[[{"header":{"parameterUnit":"m.s-1","parameterCategory":1,"la1":30.6,"la2":28.766,"lo1":-90.7593,"lo2":-88.6598,"dy":0.0162,"dx":0.0183,"nx":116,"ny":114,"refTime":"2024-05-19T12:00:00:Z","depth":0,"parameterNumber":2,"parameterNumberName":"U-component_of_WINDS"},"data":[0.0,0.0,0.0,0.0,0.0,0.0,0.0,0.0,0.0,0.0,0.0,0.0,0.0,0.0,0.0,0.0,0.0,0.0,0.0,0.0,0.0,0.0,0.0,0.0,0.0,0.0,0.0,0.0,0.0,0.0,0.0,0.0,0.0,0.0,0.0,0.0,0.0,0.0,0.0,0.0,0.0,0.0,0.0,0.0,0.0,0.0,0.0,0.0,0.0,0.0,0.0,0.0,0.0,0.0,0.0,0.0,0.0,0.0,0.0,0.0,0.0,0.0,0.0,0.0,0.0,0.0,0.0,0.0,0.0,0.0,0.0,0.0,0.0,0.0,0.0,0.0,0.0,0.0,0.0,0.0,0.0,0.0,0.0,0.0,0.0,0.0,0.0,0.0,0.0,0.0,0.0,0.0,0.0,0.0,0.0,0.0,0.0,0.0,0.0,0.0,0.0,0.0,0.0,0.0,0.0,0.0,0.0,0.0,0.0,0.0,0.0,0.0,0.0,0.0,0.0,0.0,0.0,0.0,0.0,0.0,0.0,0.0,0.0,0.0,0.0,0.0,0.0,0.0,0.0,0.0,0.0,0.0,0.0,0.0,0.0,0.0,0.0,0.0,0.0,0.0,0.0,0.0,0.0,0.0,0.0,0.0,0.0,0.0,0.0,0.0,0.0,0.0,0.0,0.0,0.0,0.0,0.0,0.0,0.0,0.0,0.0,0.0,0.0,0.0,0.0,0.0,0.0,0.0,0.0,0.0,0.0,0.0,0.0,0.0,0.0,0.0,0.0,0.0,0.0,0.0,0.0,0.0,0.0,0.0,0.0,0.0,0.0,0.0,0.0,0.0,0.0,0.0,0.0,0.0,0.0,0.0,0.0,0.0,0.0,0.0,0.0,0.0,0.0,0.0,0.0,0.0,0.0,0.0,0.0,0.0,0.0,0.0,0.0,0.0,0.0,0.0,0.0,0.0,0.0,0.0,0.0,0.0,0.0,0.0,0.0,0.0,0.0,0.0,0.0,0.0,0.0,0.0,0.0,0.0,0.0,0.0,0.0,0.0,0.0,0.0,0.0,0.0,0.0,0.0,0.0,0.0,0.0,0.0,0.0,0.0,0.0,0.0,0.0,0.0,0.0,0.0,0.0,0.0,0.0,0.0,0.0,0.0,0.0,0.0,0.0,0.0,0.0,0.0,0.0,0.0,0.0,0.0,0.0,0.0,0.0,0.0,0.0,0.0,0.0,0.0,0.0,0.0,0.0,0.0,0.0,0.0,0.0,0.0,0.0,0.0,0.0,0.0,0.0,0.0,0.0,0.0,0.0,0.0,0.0,0.0,0.0,0.0,0.0,0.0,0.0,0.0,0.0,0.0,0.0,0.0,0.0,0.0,0.0,0.0,0.0,0.0,0.0,0.0,0.0,0.0,0.0,0.0,0.0,0.0,0.0,0.0,0.0,0.0,0.0,0.0,0.0,0.0,0.0,0.0,0.0,0.0,0.0,0.0,0.0,0.0,0.0,0.0,0.0,0.0,0.0,0.0,0.0,0.0,0.0,0.0,0.0,0.0,0.0,0.0,0.0,0.0,0.0,0.0,0.0,0.0,0.0,0.0,0.0,0.0,0.0,0.0,0.0,0.0,0.0,0.0,0.0,0.0,0.0,0.0,0.0,0.0,0.0,0.0,0.0,0.0,0.0,0.0,0.0,0.0,0.0,0.0,0.0,0.0,0.0,0.0,0.0,0.0,0.0,0.0,0.0,0.0,0.0,0.0,0.0,0.0,0.0,0.0,0.0,0.0,0.0,0.0,0.0,0.0,0.0,0.0,0.0,0.0,0.0,0.0,0.0,0.0,0.0,0.0,0.0,0.0,0.0,0.0,0.0,0.0,0.0,0.0,0.0,0.0,0.0,0.0,0.0,0.0,0.0,0.0,0.0,0.0,0.0,0.0,0.0,0.0,0.0,0.0,0.0,0.0,0.0,0.0,0.0,0.0,0.0,0.0,0.0,0.0,0.0,0.0,0.0,0.0,0.0,0.0,0.0,0.0,0.0,0.0,0.0,0.0,0.0,0.0,0.0,0.0,0.0,0.0,0.0,0.0,0.0,0.0,0.0,0.0,0.0,0.0,0.0,0.0,0.0,0.0,0.0,0.0,0.0,0.0,0.0,0.0,0.0,0.0,0.0,0.0,0.0,0.0,0.0,0.0,0.0,0.0,0.0,0.0,0.0,0.0,0.0,0.0,0.0,0.0,0.0,0.0,0.0,0.0,0.0,0.0,0.0,0.0,0.0,0.0,0.0,0.0,0.0,0.0,0.0,0.0,0.0,0.0,0.0,0.0,0.0,0.0,0.0,0.0,0.0,0.0,0.0,0.0,0.0,0.0,0.0,0.0,0.0,0.0,0.0,0.0,0.0,0.0,0.0,0.0,0.0,0.0,0.0,0.0,0.0,0.0,0.0,0.0,0.0,0.0,0.0,0.0,0.0,0.0,0.0,0.0,0.0,0.0,0.0,0.0,0.0,0.0,0.0,0.0,0.0,0.0,0.0,0.0,0.0,0.0,0.0,0.0,0.0,0.0,0.0,0.0,0.0,0.0,0.0,0.0,0.0,0.0,0.0,0.0,0.0,0.0,0.0,0.0,0.0,0.0,0.0,0.0,0.0,0.0,0.0,0.0,0.0,0.0,0.0,0.0,0.0,0.0,0.0,0.0,0.0,0.0,0.0,0.0,0.0,0.0,0.0,0.0,0.0,0.0,0.0,0.0,0.0,0.0,0.0,0.0,0.0,0.0,0.0,0.0,0.0,0.0,0.0,0.0,0.0,0.0,0.0,0.0,0.0,0.0,0.0,0.0,0.0,0.0,0.0,0.0,0.0,0.0,0.0,0.0,0.0,0.0,0.0,0.0,0.0,0.0,0.0,0.0,0.0,0.0,0.0,0.0,0.0,0.0,0.0,0.0,0.0,0.0,0.0,0.0,0.0,0.0,0.0,0.0,0.0,0.0,0.0,0.0,0.0,0.0,0.0,0.0,0.0,0.0,0.0,0.0,0.0,0.0,0.0,0.0,0.0,0.0,0.0,0.0,0.0,0.0,0.0,0.0,0.0,0.0,0.0,0.0,0.0,0.0,0.0,0.0,0.0,0.0,0.0,0.0,0.0,0.0,0.0,0.0,0.0,0.0,0.0,0.0,0.0,0.0,0.0,0.0,0.0,0.0,0.0,0.0,0.0,0.0,0.0,0.0,0.0,0.0,0.0,0.0,0.0,0.0,0.0,0.0,0.0,0.0,0.0,0.0,0.0,0.0,0.0,0.0,0.0,0.0,0.0,0.0,0.0,0.0,0.0,0.0,0.0,0.0,0.0,0.0,0.0,0.0,0.0,0.0,0.0,0.0,0.0,0.0,0.0,0.0,0.0,0.0,0.0,0.0,0.0,0.0,0.0,0.0,0.0,0.0,0.0,0.0,0.0,0.0,0.0,0.0,0.0,0.0,0.0,0.0,0.0,0.0,0.0,0.0,0.0,0.0,0.0,0.0,0.0,0.0,0.0,0.0,0.0,0.0,0.0,0.0,0.0,0.0,0.0,0.0,0.0,0.0,0.0,0.0,0.0,0.0,0.0,0.0,0.0,0.0,0.0,0.0,0.0,0.0,0.0,0.0,0.0,0.0,0.0,0.0,0.0,0.0,0.0,0.0,0.0,0.0,0.0,0.0,0.0,0.0,0.0,0.0,0.0,0.0,0.0,0.0,0.0,0.0,0.0,0.0,0.0,0.0,0.0,0.0,0.0,0.0,0.0,0.0,0.0,0.0,0.0,0.0,0.0,0.0,0.0,0.0,0.0,0.0,0.0,0.0,0.0,0.0,0.0,0.0,0.0,0.0,0.0,0.0,0.0,0.0,0.0,0.0,0.0,0.0,0.0,0.0,0.0,0.0,0.0,0.0,0.0,0.0,0.0,0.0,0.0,0.0,0.0,0.0,0.0,0.0,0.0,0.0,0.0,0.0,0.0,0.0,0.0,0.0,0.0,0.0,0.0,0.0,0.0,0.0,0.0,0.0,0.0,0.0,0.0,0.0,0.0,0.0,0.0,0.0,0.0,0.0,0.0,0.0,0.0,0.0,0.0,0.0,0.0,0.0,0.0,0.0,0.0,0.0,0.0,0.0,0.0,0.0,0.0,0.0,0.0,0.0,0.0,0.0,0.0,0.0,0.0,0.0,0.0,0.0,0.0,0.0,0.0,0.0,0.0,0.0,0.0,0.0,0.0,0.0,0.0,0.0,0.0,0.0,0.0,0.0,0.0,0.0,0.0,0.0,0.0,0.0,0.0,0.0,0.0,0.0,0.0,0.0,0.0,0.0,0.0,0.0,0.0,0.0,0.0,0.0,0.0,0.0,0.0,0.0,0.0,0.0,0.0,0.0,0.0,0.0,0.0,0.0,0.0,0.0,0.0,0.0,0.0,0.0,0.0,0.0,0.0,0.0,0.0,0.0,0.0,0.0,0.0,0.0,0.0,0.0,0.0,0.0,0.0,0.0,0.0,0.0,0.0,0.0,0.0,0.0,0.0,0.0,0.0,0.0,0.0,0.0,0.0,0.0,0.0,0.0,0.0,0.0,0.0,0.0,0.0,0.0,0.0,0.0,0.0,0.0,0.0,0.0,0.0,0.0,0.0,0.0,0.0,0.0,0.0,0.0,0.0,0.0,0.0,0.0,0.0,0.0,0.0,0.0,0.0,0.0,0.0,0.0,0.0,0.0,0.0,0.0,0.0,0.0,0.0,0.0,0.0,0.0,0.0,0.0,0.0,0.0,0.0,0.0,0.0,0.0,0.0,0.0,0.0,0.0,0.0,0.0,0.0,0.0,0.0,0.0,0.0,0.0,0.0,0.0,0.0,0.0,0.0,0.0,0.0,0.0,0.0,0.0,0.0,0.0,0.0,0.0,0.0,0.0,0.0,0.0,0.0,0.0,0.0,0.0,0.0,0.0,0.0,0.0,0.0,0.0,0.0,0.0,0.0,0.0,0.0,0.0,0.0,0.0,0.0,0.0,0.0,0.0,0.0,0.0,0.0,0.0,0.0,0.0,0.0,0.0,0.0,0.0,0.0,0.0,0.0,0.0,0.0,0.0,0.0,0.0,0.0,0.0,0.0,0.0,0.0,0.0,0.0,0.0,0.0,0.0,0.0,0.0,0.0,0.0,0.0,0.0,0.0,0.0,0.0,0.0,0.0,0.0,0.0,0.0,0.0,0.0,0.0,0.0,0.0,0.0,0.0,0.0,0.0,0.0,0.0,0.0,0.0,0.0,0.0,0.0,0.0,0.0,0.0,0.0,0.0,0.0,0.0,0.0,0.0,0.0,0.0,0.0,0.0,0.0,0.0,0.0,0.0,0.0,0.0,0.0,0.0,0.0,0.0,0.0,0.0,0.0,0.0,0.0,0.0,0.0,0.0,0.0,0.0,0.0,0.0,0.0,0.0,0.0,0.0,0.0,0.0,0.0,0.0,0.0,0.0,0.0,0.0,0.0,0.0,0.0,0.0,0.0,0.0,0.0,0.0,0.0,0.0,0.0,0.0,0.0,0.0,0.0,0.0,0.0,0.0,0.0,0.0,0.0,0.0,0.0,0.0,0.0,0.0,0.0,0.0,0.0,0.0,0.0,0.0,0.0,0.0,0.0,0.0,0.0,0.0,0.0,0.0,0.0,0.0,0.0,0.0,0.0,0.0,0.0,0.0,0.0,0.0,0.0,0.0,0.0,0.0,0.0,0.0,0.0,0.0,0.0,0.0,0.0,0.0,0.0,0.0,0.0,0.0,0.0,0.0,0.0,0.0,0.0,0.0,0.0,0.0,0.0,0.0,0.0,0.0,0.0,0.0,0.0,0.0,0.0,0.0,0.0,0.0,0.0,0.0,0.0,0.0,0.0,0.0,0.0,0.0,0.0,0.0,0.0,0.0,0.0,0.0,0.0,0.0,0.0,0.0,0.0,0.0,0.0,0.0,0.0,0.0,0.0,0.0,0.0,0.0,0.0,0.0,0.0,0.0,0.0,0.0,0.0,0.0,0.0,0.0,0.0,0.0,0.0,0.0,0.0,0.0,0.0,0.0,0.0,0.0,0.0,-1.8189,-1.7276,0.0,0.0,0.0,0.0,0.0,0.0,0.0,0.0,0.0,0.0,0.0,0.0,0.0,0.0,0.0,0.0,0.0,0.0,0.0,0.0,0.0,0.0,0.0,-1.4825,-1.5325,-1.6062,-1.6807,-1.7219,-1.7219,0.0,0.0,0.0,0.0,0.0,-1.5612,-1.5223,-1.5552,-1.6661,-1.6289,-1.6874,-1.8285,-1.8256,-1.7479,-1.6076,0.0,0.0,0.0,0.0,0.0,0.0,0.0,0.0,0.0,0.0,0.0,0.0,0.0,0.0,0.0,0.0,0.0,0.0,0.0,0.0,0.0,0.0,0.0,0.0,0.0,0.0,0.0,0.0,0.0,0.0,0.0,0.0,0.0,0.0,0.0,0.0,0.0,0.0,0.0,0.0,0.0,0.0,0.0,0.0,0.0,0.0,0.0,0.0,0.0,0.0,0.0,0.0,0.0,0.0,0.0,0.0,0.0,0.0,0.0,0.0,0.0,0.0,0.0,0.0,0.0,0.0,0.0,0.0,0.0,0.0,-2.1211,-1.9841,0.0,0.0,0.0,0.0,0.0,0.0,0.0,0.0,0.0,0.0,0.0,0.0,0.0,0.0,0.0,0.0,0.0,0.0,0.0,0.0,0.0,-1.3929,-1.4791,-1.5544,-1.6323,-1.7196,-1.7828,-1.8121,-1.8003,-1.7986,0.0,0.0,0.0,-1.6671,-1.6187,-1.6052,-1.6779,-1.8403,-1.8178,-1.9142,-2.1197,-2.2465,-2.1738,-1.9321,-1.8679,0.0,0.0,0.0,0.0,0.0,0.0,0.0,0.0,0.0,0.0,0.0,0.0,0.0,0.0,0.0,0.0,0.0,0.0,0.0,0.0,0.0,0.0,0.0,0.0,0.0,0.0,0.0,0.0,0.0,0.0,0.0,0.0,0.0,0.0,0.0,0.0,0.0,0.0,0.0,0.0,0.0,0.0,0.0,0.0,0.0,0.0,0.0,0.0,0.0,0.0,0.0,0.0,0.0,0.0,0.0,0.0,0.0,0.0,0.0,0.0,0.0,0.0,0.0,-2.7844,-2.8561,-2.9568,-2.945,-2.9382,-2.9145,-2.4812,-2.3408,-2.3985,-2.1721,0.0,0.0,0.0,0.0,0.0,0.0,0.0,0.0,0.0,0.0,0.0,0.0,0.0,0.0,0.0,0.0,0.0,0.0,0.0,-1.4885,-1.6265,-1.7067,-1.8053,-1.9427,-1.9647,-1.9439,-1.8792,-1.8741,0.0,0.0,-1.7648,-1.7912,-1.8437,-1.7845,-1.8572,-2.075,-2.2578,-2.4271,-2.5812,-2.6015,-2.5913,-2.5389,-2.2189,-2.0991,-2.1231,0.0,0.0,0.0,0.0,0.0,0.0,0.0,0.0,0.0,0.0,0.0,0.0,0.0,0.0,0.0,0.0,0.0,0.0,0.0,0.0,0.0,0.0,0.0,0.0,0.0,0.0,0.0,0.0,0.0,0.0,0.0,0.0,0.0,0.0,0.0,0.0,0.0,0.0,0.0,0.0,0.0,-1.9278,-1.9917,0.0,0.0,0.0,0.0,0.0,0.0,0.0,0.0,0.0,0.0,0.0,0.0,0.0,-2.686,-2.8248,-2.9673,-3.0434,-3.0598,-3.13,-3.1707,-3.1836,-3.121,-3.0903,-3.0869,-3.0176,0.0,-2.7046,-2.4814,0.0,0.0,0.0,0.0,0.0,0.0,0.0,0.0,0.0,0.0,0.0,0.0,0.0,0.0,0.0,0.0,0.0,0.0,0.0,0.0,0.0,-1.8341,-1.949,-2.0585,-2.1417,-2.1414,-2.0276,-2.0192,-1.9667,-1.8471,-1.842,-1.8572,-1.8894,-1.9435,-2.1008,-2.3663,-2.6609,-2.8237,-2.8637,-2.9609,-2.9765,-2.9162,-2.7809,-2.5839,-2.3408,-2.1231,0.0,0.0,0.0,0.0,0.0,0.0,0.0,0.0,0.0,0.0,0.0,0.0,0.0,0.0,0.0,0.0,0.0,0.0,0.0,0.0,0.0,0.0,0.0,0.0,0.0,0.0,0.0,0.0,0.0,0.0,0.0,0.0,0.0,0.0,0.0,0.0,0.0,0.0,0.0,-2.0545,-2.2543,-2.2118,-2.3014,-2.3095,0.0,0.0,0.0,0.0,0.0,0.0,0.0,0.0,0.0,-3.0382,-3.0827,-3.1683,-3.3018,-3.3811,-3.439,-3.4799,-3.4819,-3.5052,-3.5436,-3.5115,-3.4962,-3.4945,-3.4544,-3.3525,-3.1914,-2.845,-2.637,-2.5237,0.0,0.0,0.0,0.0,-2.2665,-2.2835,0.0,0.0,0.0,0.0,0.0,0.0,0.0,0.0,0.0,0.0,0.0,0.0,-1.8488,-1.998,-2.1265,-2.224,-2.3325,-2.341,-2.2121,-2.1681,-2.0886,-1.9549,-1.9283,-1.9283,-1.9481,-2.1546,-2.3983,-2.6742,-2.9746,-3.1101,-3.0954,-3.2262,-3.2468,-3.1785,-3.213,-3.0019,-2.6099,-2.4222,-2.2226,0.0,0.0,0.0,0.0,0.0,0.0,0.0,0.0,0.0,0.0,0.0,0.0,0.0,0.0,0.0,0.0,0.0,0.0,0.0,0.0,0.0,0.0,0.0,0.0,0.0,0.0,0.0,0.0,0.0,0.0,0.0,0.0,0.0,0.0,0.0,0.0,0.0,0.0,-2.3243,-2.5152,-2.3866,-2.5225,-2.5559,0.0,0.0,0.0,0.0,0.0,0.0,-3.0129,-3.1832,-3.3277,-3.4372,-3.5099,-3.5966,-3.7057,-3.7224,-3.7668,-3.8395,-3.7629,-3.7671,-3.838,-3.8062,-3.7905,-3.7872,-3.7313,-3.6738,-3.587,-3.1799,-2.955,-2.8534,-2.7249,-2.6302,-2.5743,-2.6488,-2.6742,-2.6945,0.0,0.0,0.0,0.0,0.0,0.0,0.0,0.0,0.0,0.0,0.0,-1.8538,-2.0784,-2.2358,-2.3816,-2.5237,-2.5456,-2.5169,-2.4372,-2.3021,-2.1904,-2.1123,-2.0352,-2.0302,-2.1072,-2.4592,-2.7554,-2.9869,-3.145,-3.2568,-3.3237,-3.3334,-3.333,-3.3288,-3.3309,-3.2412,-3.0666,-2.7723,-2.5608,-2.3949,0.0,0.0,0.0,0.0,0.0,0.0,0.0,0.0,0.0,0.0,0.0,0.0,0.0,0.0,0.0,0.0,0.0,0.0,0.0,0.0,0.0,0.0,0.0,0.0,0.0,0.0,0.0,0.0,0.0,0.0,0.0,0.0,0.0,0.0,0.0,0.0,0.0,0.0,0.0,-2.505,-2.8518,0.0,0.0,0.0,0.0,-2.9898,-3.2137,-3.383,-3.4628,-3.5854,-3.7222,-3.8741,-3.8472,-3.8654,-3.9414,-3.9447,-3.9818,-4.0521,-3.9233,-3.8997,-3.9657,-3.8461,-3.7905,-3.7905,-3.7872,-3.7821,-3.755,-3.4455,-3.2324,-3.0954,-3.0192,-2.9414,-2.8857,-2.96,-2.9869,-2.9989,0.0,0.0,0.0,0.0,0.0,-1.3396,-1.3396,-1.4022,-1.4757,-1.5494,-1.7715,-1.9896,-2.1718,-2.4069,-2.593,-2.6928,-2.7486,-2.7266,-2.5997,-2.4541,-2.3611,-2.334,-2.2581,-2.3444,-2.6149,-2.796,-2.9989,-3.2222,-3.3576,-3.4702,-3.5594,-3.5762,-3.5905,-3.6036,-3.5555,-3.4765,-3.3633,-3.0311,-2.774,-2.5659,-2.2682,-2.0403,0.0,0.0,0.0,0.0,0.0,0.0,0.0,0.0,0.0,0.0,0.0,0.0,0.0,0.0,0.0,0.0,0.0,0.0,0.0,0.0,0.0,0.0,0.0,0.0,0.0,0.0,0.0,0.0,0.0,0.0,0.0,0.0,0.0,0.0,0.0,0.0,0.0,-3.0587,-3.2457,0.0,-3.1403,-3.2472,-3.3518,-3.4082,-3.5881,-3.7312,-3.812,-3.9058,-4.0055,-4.1132,-4.1013,-4.1324,-4.2105,-4.177,-4.174,-4.1972,-4.0718,-4.0267,-4.0481,-3.9695,-3.9334,-3.9334,-3.9334,-3.9039,-3.8514,-3.7449,-3.6129,-3.473,-3.3926,-3.3186,-3.2581,-3.2831,-3.2628,-3.2273,0.0,0.0,0.0,0.0,-1.3396,-1.3396,-1.3396,-1.4242,-1.524,-1.6221,-1.8713,-2.1164,-2.3192,-2.5609,-2.7486,-2.8483,-2.8839,-2.857,-2.7554,-2.5828,-2.488,-2.488,-2.4628,-2.6031,-2.9296,-3.0581,-3.2188,-3.4129,-3.5506,-3.651,-3.7168,-3.7353,-3.7498,-3.7612,-3.7114,-3.65,-3.5641,-3.3046,-3.0378,-2.7655,-2.5456,-2.3479,-2.1654,0.0,0.0,0.0,0.0,0.0,0.0,0.0,0.0,0.0,0.0,0.0,0.0,0.0,0.0,0.0,0.0,0.0,0.0,0.0,0.0,0.0,0.0,0.0,0.0,0.0,0.0,0.0,0.0,0.0,0.0,0.0,0.0,0.0,0.0,0.0,-3.333,-3.4119,-3.5646,-3.6105,-3.4761,-3.5862,-3.6876,-3.7459,-3.9019,-4.0157,-4.0671,-4.1479,-4.2158,-4.269,-4.269,-4.2947,-4.3496,-4.316,-4.2976,-4.2958,-4.1979,-4.1512,-4.149,-4.0914,-4.0546,-4.0368,-4.0368,-3.999,-3.9385,-3.9385,-3.8809,-3.7811,-3.6789,-3.6096,-3.5639,-3.5639,-3.5182,-3.4506,0.0,0.0,0.0,-1.3396,-1.3396,-1.3396,-1.3396,-1.4657,-1.612,-1.758,-1.9802,-2.2358,-2.5287,-2.6945,-2.8466,-3.0006,-2.9431,-2.8993,-2.8993,-2.6843,-2.5592,-2.566,-2.6437,-2.7943,-3.0207,-3.2374,-3.418,-3.5667,-3.7155,-3.7922,-3.7939,-3.7946,-3.7946,-3.7963,-3.7929,-3.7523,-3.6801,-3.6011,-3.3571,-3.019,-2.9381,-2.7706,-2.5473,0.0,0.0,0.0,0.0,0.0,0.0,0.0,0.0,0.0,0.0,0.0,0.0,0.0,0.0,0.0,0.0,0.0,0.0,0.0,0.0,0.0,0.0,0.0,0.0,0.0,0.0,0.0,0.0,0.0,0.0,0.0,0.0,0.0,-3.0393,-3.3844,-3.6083,-3.5316,-3.8046,-3.9056,-3.6743,-3.8634,-4.001,-4.001,-4.146,-4.2341,-4.2341,-4.3075,-4.3515,-4.3515,-4.3515,-4.3515,-4.3515,-4.3515,-4.3479,-4.3462,-4.2939,-4.2655,-4.2616,-4.2021,-4.1424,-4.0897,-4.0897,-4.0577,-4.0096,-4.0096,-4.0096,-3.996,-3.8531,-3.7956,-3.7939,-3.7939,-3.7466,-3.6728,0.0,0.0,-1.3396,-1.3396,-1.3396,-1.3396,-1.3396,-1.4657,-1.5944,-1.6874,-1.9908,-2.2919,-2.5339,-2.7435,-2.9262,-3.0768,-2.9738,-2.8993,-2.8993,-2.6369,-2.5524,-2.7131,-2.9482,-3.1799,-3.4027,-3.467,-3.5735,-3.728,-3.7702,-3.8176,-3.8684,-3.8551,-3.8734,-3.9181,-3.8699,-3.8343,-3.8069,-3.7517,-3.6039,-3.3875,-3.1529,-2.9585,-2.7893,0.0,0.0,0.0,0.0,0.0,0.0,0.0,0.0,0.0,0.0,0.0,0.0,0.0,0.0,0.0,0.0,0.0,0.0,0.0,0.0,0.0,0.0,0.0,0.0,0.0,0.0,0.0,0.0,0.0,0.0,0.0,0.0,-3.4614,-3.4614,-3.6597,-3.8597,-4.012,-4.1093,-4.1607,-4.1532,-4.2119,-4.2523,-4.2523,-4.291,-4.3167,-4.3167,-4.3386,-4.3515,-4.3515,-4.3515,-4.3515,-4.3515,-4.3515,-4.3303,-4.292,-4.2342,-4.1832,-4.138,-4.0838,-4.049,-4.0311,-4.0311,-4.0254,-4.0096,-4.0096,-4.0096,-4.0062,-3.9656,-3.9157,-3.87,-3.87,-3.8227,-3.7567,0.0,-1.3396,-1.3396,-1.3396,-1.3396,-1.3396,-1.3396,-1.4657,-1.5967,-1.7016,-2.0162,-2.3141,-2.5372,-2.7334,-2.8975,-3.0159,-2.9178,-2.8366,-2.8062,-2.6674,-2.6877,-2.9125,-3.1782,-3.3964,-3.5566,-3.6552,-3.7466,-3.8362,-3.8667,-3.9039,-3.9469,-3.9347,-3.9489,-3.9853,-3.9455,-3.91,-3.8757,-3.8472,-3.7499,-3.5943,-3.4235,-3.2459,-3.0685,-2.9161,-2.7858,-2.6725,-2.5625,-2.4577,-2.3579,-2.2832,0.0,0.0,0.0,0.0,0.0,0.0,0.0,0.0,0.0,0.0,0.0,0.0,0.0,0.0,0.0,0.0,0.0,0.0,0.0,0.0,0.0,0.0,0.0,0.0,-3.5253,-3.8028,-3.8726,-3.9625,-4.0855,-4.2598,-4.28,-4.2983,-4.346,-4.3515,-4.3515,-4.3515,-4.3809,-4.3993,-4.3993,-4.4323,-4.4507,-4.4507,-4.4507,-4.4507,-4.4507,-4.4507,-4.4181,-4.3522,-4.3182,-4.2548,-4.1643,-4.1348,-4.0908,-4.0441,-4.0441,-4.0311,-4.0096,-4.0096,-4.0096,-4.0096,0.0,0.0,0.0,0.0,-3.8717,-3.8328,0.0,-1.3396,-1.3396,-1.3396,-1.3396,-1.3396,-1.3396,-1.4657,-1.6136,-1.7614,-2.0352,-2.3006,-2.5236,-2.6725,-2.7908,-2.879,-2.8146,-2.7435,-2.686,-2.7587,-2.9024,-3.1224,-3.344,-3.5013,-3.5836,-3.7922,-3.9039,-3.9106,-3.9791,-4.0096,-4.0096,-4.0171,-4.0171,-4.0096,-4.0171,-3.9798,-3.9106,-3.9106,-3.8311,-3.7049,-3.6965,-3.5554,-3.3389,-3.207,-3.1055,-3.0176,-2.8804,-2.7401,-2.6116,-2.5388,0.0,0.0,0.0,0.0,0.0,0.0,0.0,0.0,0.0,0.0,0.0,0.0,0.0,0.0,0.0,0.0,0.0,0.0,0.0,0.0,0.0,0.0,0.0,0.0,-3.8145,-4.0689,-4.2213,-4.2433,-4.269,-4.3423,-4.3515,-4.3515,-4.3515,-4.3588,-4.3626,-4.3626,-4.4378,-4.4838,-4.4838,0.0,0.0,0.0,0.0,-4.5902,-4.5902,-4.5902,-4.548,-4.462,-4.4547,-4.3812,-4.2526,-4.2436,-4.181,-4.0803,-4.0803,-4.0528,-4.0096,-4.0096,-4.0096,-4.0096,-4.0096,-4.0096,-4.0028,-3.9385,-3.9106,-3.9022,0.0,-1.3396,-1.3396,-1.3396,-1.3396,-1.3396,-1.3396,-1.4657,-1.6136,-1.7614,-1.9908,-2.2257,-2.4474,-2.5507,-2.6573,-2.7908,-2.7351,-2.7114,-2.7553,0.0,-3.0378,-3.2022,-3.4218,-3.6039,-3.7432,-3.8464,-3.9276,-3.9893,-4.0028,-4.0096,-4.0096,-4.0528,-4.0504,-4.0121,-4.0552,-4.0436,-3.9893,-3.9893,-3.9385,-3.8514,-3.7922,-3.6315,-3.4252,-3.3964,-3.3017,-3.1853,-3.1549,-3.0852,-3.0006,-2.9262,-2.8572,-2.7624,-2.5347,0.0,0.0,0.0,0.0,0.0,0.0,0.0,0.0,0.0,0.0,0.0,0.0,0.0,0.0,0.0,0.0,0.0,0.0,0.0,0.0,-3.8535,-4.0571,-4.2176,-4.313,-4.3276,-4.3331,-4.3478,-4.3515,-4.3515,-4.3515,-4.4085,-4.447,-4.447,-4.5204,-4.5663,-4.5663,-4.581,-4.5902,-4.5902,-4.5902,-4.5902,-4.5902,-4.5902,-4.5324,-4.421,-4.3611,0.0,-4.1454,-4.0861,-4.0483,-4.0237,-4.0237,-4.0204,-4.0096,-4.0096,-4.0096,-4.0096,-4.0096,-4.0096,-4.0079,-3.9943,-3.9893,-3.9876,-1.3396,-1.3396,-1.3396,-1.3396,-1.3396,-1.3396,-1.3396,-1.4657,-1.6136,-1.7614,-1.9773,-2.1901,-2.3746,-2.4609,-2.5355,-2.6082,-2.615,-2.6793,0.0,-2.982,-3.1461,-3.3326,-3.5554,-3.7127,-3.7889,-3.8971,-3.974,-4.0096,-4.0096,-4.0096,-4.0113,-4.0368,-4.0343,-4.0121,-4.0368,-4.0343,-4.0096,-4.0096,-3.9673,-3.8937,-3.821,-3.6992,-3.5627,-3.5199,-3.4353,-3.341,-3.341,-3.2699,-3.165,-3.0903,-3.0275,-2.9504,-2.7846,-2.6931,-2.6009,0.0,0.0,0.0,0.0,0.0,0.0,0.0,0.0,0.0,0.0,0.0,0.0,0.0,0.0,-3.1864,0.0,0.0,-3.8664,-4.0425,-4.1931,-4.3039,-4.3441,-4.3515,-4.3515,-4.3515,-4.3515,-4.3644,-4.4066,-4.447,-4.4856,-4.5278,-4.6049,-4.6507,-4.6507,-4.6893,-4.6963,-4.6655,-4.6655,-4.6497,-4.6155,-4.6155,-4.5642,-4.4655,-4.4289,-4.3436,-4.2167,-4.1439,-4.094,-4.0629,-4.0265,-4.0096,-4.0096,-4.0096,-4.0096,-4.0096,-4.0096,-4.0096,-4.0096,-4.0096,-4.0096,-4.0096,-1.3396,-1.3396,-1.3396,-1.3396,-1.3396,-1.3396,-1.3396,-1.4657,-1.6086,-1.7422,-1.9435,-2.1258,-2.2581,-2.3257,-2.3746,-2.4051,-2.5017,0.0,0.0,-3.0446,-3.2239,-3.4607,-3.6755,-3.7905,-3.7905,-3.9368,-4.0096,-4.0096,-4.0096,-4.0096,-4.0096,-4.0096,-4.0096,-4.0096,-4.0096,-4.0096,-4.0096,-4.0096,-3.9757,-3.9123,-3.8261,-3.7533,-3.6914,-3.5955,-3.5228,-3.4692,-3.4539,-3.3563,-3.2209,-3.1596,-3.1016,-3.0351,-2.9489,-2.9384,-2.9036,-2.6127,-2.5541,0.0,0.0,0.0,0.0,0.0,0.0,0.0,0.0,0.0,-3.0467,-3.3023,-3.4169,-3.523,-3.6859,-3.8923,-4.0701,-4.1724,-4.2793,-4.3515,-4.3515,-4.3515,-4.3515,-4.3515,-4.3626,-4.3993,-4.4654,-4.4966,-4.5443,-4.6085,-4.6874,-4.7333,-4.7333,-4.7957,-4.8075,-4.7593,-4.7572,-4.732,-4.6778,-4.6778,-4.6321,-4.5428,-4.5292,-4.4523,-4.32,-4.2484,-4.1816,-4.117,-4.0434,-4.0096,-4.0096,-4.0096,-4.0096,-4.0096,-4.0096,-4.0096,-4.0096,-4.0096,-4.0096,-4.0096,0.0,-1.3396,-1.3396,-1.3396,-1.3396,-1.3396,-1.3396,-1.4657,-1.5883,-1.6722,-1.8195,-1.9469,-2.0289,-2.0454,-2.1045,-2.2431,-2.4409,0.0,-2.9786,-3.0734,-3.2476,-3.5346,-3.7019,-3.7905,-3.7905,-3.9368,-4.0096,-4.0096,-4.0096,-4.0096,-4.0096,-4.0096,-4.0096,-4.0096,-4.0096,-4.0096,-4.0096,-4.0096,-4.0045,-3.9859,-3.8464,-3.7855,-3.7618,-3.6157,-3.5549,-3.538,-3.4742,-3.3563,-3.2293,-3.2209,-3.128,-3.0133,-3.0019,-2.9799,-2.939,-2.8364,0.0,-2.6677,-2.6687,-2.6859,-2.7742,-3.0638,-3.0722,-3.147,0.0,0.0,-3.588,-3.7912,-3.8974,-3.9749,-4.0436,-4.1374,-4.2306,-4.3134,-4.3407,-4.3515,-4.3515,-4.3515,-4.3515,-4.3515,-4.4121,-4.4617,-4.4691,-4.5993,-4.6874,-4.6947,-4.77,-4.8177,-4.8177,-4.8251,-4.8267,-4.8191,-4.8191,-4.8172,-4.8094,-4.8094,-4.7458,-4.6265,-4.5604,-4.4611,-4.3359,-4.2596,-4.1891,-4.117,-4.0434,-4.0096,-4.0096,-4.0096,-4.0096,-4.0096,-4.0096,-4.0096,-4.0096,-4.0096,-4.0096,-4.0096,0.0,-1.3396,-1.3396,-1.3396,-1.3396,-1.3396,-1.3396,-1.4657,-1.5859,-1.6597,-1.7975,-1.9181,-1.9917,-2.0002,-2.0454,-2.1549,-2.368,-2.6031,-2.8584,-3.0683,-3.2763,-3.4878,-3.6857,-3.7905,-3.7905,-3.9368,-4.0096,-4.0096,-4.0096,-4.0096,-4.0096,-4.0096,-4.0096,-4.0096,-4.0096,-4.0096,-4.0096,-4.0096,-4.0096,-3.9977,-3.8481,-3.7905,-3.7686,-3.5723,-3.4692,-3.4264,-3.3981,-3.2899,0.0,0.0,-3.0774,-3.0418,-3.0231,-3.0099,-2.9783,-2.8551,-2.8313,0.0,-3.0015,-3.0938,-3.1897,0.0,-3.4907,-3.6482,-3.8421,-3.8594,-3.8854,-4.059,-4.1244,-4.1679,-4.2362,-4.2763,-4.3259,0.0,-4.4195,-4.4195,-4.4195,-4.4195,-4.4011,-4.357,-4.4213,-4.4892,-4.5351,-4.6012,-4.6801,-4.7718,-4.8122,-4.8306,-4.8306,-4.8306,-4.8152,-4.7777,-4.7777,-4.7428,-4.6664,-4.6664,-4.6233,-4.5346,-4.5044,-4.4609,-4.4062,-4.3301,-4.254,-4.1796,-4.1052,-4.073,-4.0696,-4.0282,-4.0096,-4.0096,-4.0096,-4.0096,-4.0096,-4.0096,-4.0096,-4.0096,0.0,-1.3396,-1.3396,-1.3396,-1.3396,-1.3396,-1.3396,-1.4657,-1.5781,-1.6333,-1.7687,-1.8809,-1.9338,-1.9575,-2.0014,-2.0788,-2.273,-2.4915,-2.7334,-2.9939,-3.2226,-3.4117,-3.618,-3.7381,-3.7584,-3.9046,-3.9808,-3.9808,-4.0011,-4.0096,-4.0096,-4.0096,-4.0096,-4.0096,-4.0096,-4.0096,-4.0096,-3.9893,-3.9808,-3.9673,-3.8193,-3.7466,-3.7043,-3.4979,-3.3491,-3.2493,-3.2493,-3.1529,0.0,0.0,-2.9363,-2.9575,-2.9545,-2.9648,-2.97,-2.9208,-2.9827,-3.1023,-3.248,-3.3797,0.0,-3.5817,-3.8138,-4.0139,-3.979,-4.0322,-4.1222,-4.2396,-4.2635,-4.28,-4.3404,-4.3515,-4.3754,-4.4563,-4.4691,-4.4691,-4.4691,-4.4691,-4.4415,-4.3606,-4.4011,-4.469,-4.5498,-4.5975,-4.6709,-4.7865,-4.8024,-4.8055,-4.8055,-4.7879,-4.7593,-4.715,-4.711,-4.6682,-4.5757,-4.5757,-4.5433,-4.4841,-4.4841,-4.4759,-4.4581,-4.3775,-4.3115,-4.2557,-4.183,-4.139,-4.117,-4.0612,-4.0282,-4.0096,-4.0096,-4.0096,-4.0096,-4.0096,-4.0096,-4.0096,0.0,0.0,-1.3396,-1.3396,-1.3396,-1.3396,-1.3396,-1.4657,-1.5612,-1.5629,-1.6931,-1.7834,-1.7867,-1.8504,-1.9232,-1.9968,-2.1468,-2.3613,-2.6539,-2.8231,-3.0398,-3.3322,-3.4873,-3.6045,-3.6829,-3.8285,-3.9022,-3.9022,-3.9757,-4.0096,-4.0096,-4.0096,-4.0096,-4.0096,-4.0096,-4.0096,-4.0045,-3.9351,-3.9022,-3.8886,-3.7438,-3.6366,-3.5498,-3.3994,-3.2104,-3.019,-3.019,0.0,0.0,0.0,-2.6809,-2.6945,-2.7639,-2.8185,0.0,-3.1063,-3.2546,-3.3519,-3.3704,0.0,-3.6035,-3.8083,-3.9829,-4.126,-4.2029,-4.28,-4.3387,-4.346,-4.346,-4.3478,-4.3515,-4.3515,-4.3754,-4.4563,-4.4691,-4.4691,-4.4691,-4.4691,-4.4415,-4.3606,-4.3533,-4.3846,0.0,-4.614,-4.7076,-4.7131,-4.732,-4.7428,-4.7428,-4.6801,-4.6454,-4.643,-4.643,-4.6407,-4.6383,-4.6383,-4.607,-4.5485,-4.5485,-4.5169,-4.4581,-4.3775,-4.3375,-4.3325,-4.2591,-4.1863,-4.1204,-4.1187,-4.0747,-4.0096,-4.0096,-4.0096,-4.0096,-4.0096,-4.0096,-4.0096,0.0,0.0,0.0,-1.3396,-1.3802,-1.4141,-1.4141,-1.4969,-1.5595,-1.5595,-1.687,0.0,0.0,0.0,0.0,0.0,0.0,-2.2612,-2.5083,-2.7605,-2.967,-3.1157,-3.3558,-3.5233,-3.5994,-3.7009,-3.777,-3.8278,-3.8514,-3.8633,-3.8633,-3.8633,-3.8633,-3.8633,-3.8633,-3.8633,-3.8616,-3.8379,-3.8548,-3.8819,-3.6806,-3.6163,-3.6113,-3.3609,-3.1312,-2.9247,0.0,0.0,0.0,-2.549,-2.5779,-2.6387,-2.6098,0.0,0.0,-3.0084,-3.1622,-3.3063,-3.5152,0.0,-3.875,-3.9978,-4.1497,-4.2763,-4.302,-4.3296,-4.3515,-4.3515,-4.3075,-4.2873,-4.3387,-4.3057,-4.3314,-4.5186,-4.5498,-4.5681,-4.6214,-4.6287,-4.5792,-4.447,-4.4305,0.0,0.0,0.0,0.0,-4.7021,-4.7162,-4.743,-4.7979,-4.7406,-4.7044,-4.7044,-4.6641,-4.6216,-4.5808,-4.5808,-4.5511,-4.4906,-4.4906,-4.4786,-4.4598,-4.4316,-4.4198,-4.4147,-4.3369,-4.2895,-4.2564,-4.161,-4.1052,-4.0781,-4.0299,-4.0096,-4.0096,-4.0096,-4.0096,-4.0096,0.0,0.0,0.0,0.0,0.0,0.0,0.0,0.0,0.0,0.0,0.0,0.0,0.0,0.0,0.0,0.0,0.0,0.0,-2.3966,-2.6166,-2.7842,-2.8839,-3.0954,-3.2459,-3.3237,-3.3998,-3.4895,-3.5893,-3.6163,-3.6569,-3.707,-3.707,-3.707,-3.707,-3.707,-3.707,-3.7077,-3.6806,-3.6958,-3.7195,-3.4945,-3.4184,-3.41,-3.1362,-2.9094,0.0,0.0,0.0,0.0,-2.3866,-2.4584,-2.5574,0.0,0.0,-2.8617,-3.0713,-3.2475,-3.4418,-3.7461,-3.9289,-4.0598,-4.168,-4.2745,-4.3515,-4.3515,-4.3515,-4.3423,-4.313,-4.2433,-4.2029,-4.2543,-4.1974,-4.2231,-4.4654,-4.5278,-4.5755,-4.6544,-4.6911,-4.6599,-4.5296,-4.5131,-4.4929,0.0,0.0,0.0,-4.6581,-4.7016,-4.7428,-4.7959,-4.7367,-4.6932,-4.6728,-4.6288,-4.5783,-4.5178,-4.5178,-4.4971,-4.4615,-4.4615,-4.4615,-4.4615,-4.4615,-4.4615,-4.4581,-4.4045,-4.3673,-4.3325,-4.2361,-4.1694,-4.1153,-4.0679,-4.0333,-4.0096,-4.0096,-4.0096,-4.0096,0.0,0.0,0.0,0.0,0.0,0.0,0.0,0.0,0.0,0.0,0.0,0.0,0.0,0.0,0.0,0.0,0.0,0.0,0.0,0.0,0.0,-2.6522,-2.7317,-2.8129,-2.8925,-2.9617,-3.0683,-3.2124,-3.2831,-3.3897,-3.5261,-3.5261,-3.5261,-3.5261,-3.5261,-3.5278,-3.5261,-3.4539,-3.4252,-3.4134,-3.1918,-3.0632,-2.9803,-2.7554,0.0,0.0,0.0,0.0,0.0,0.0,0.0,0.0,0.0,0.0,0.0,-3.3049,-3.5152,-3.7471,-4.0337,-4.115,-4.1589,-4.3112,-4.3515,-4.3515,-4.3515,-4.3478,-4.3221,-4.2396,-4.157,-4.0948,0.0,0.0,-4.0653,-4.3001,-4.4158,-4.5057,-4.5847,-4.6636,-4.6856,0.0,0.0,0.0,0.0,0.0,0.0,-4.6012,0.0,-4.7413,-4.7428,-4.6801,-4.6192,-4.5622,-4.552,-4.5232,-4.4654,-4.4615,-4.4615,-4.4615,-4.4615,-4.4615,-4.4615,-4.4615,-4.4615,-4.4615,-4.4615,-4.4164,-4.3443,-4.3409,-4.2591,-4.1322,-4.1238,-4.0764,-4.0146,-4.0113,-4.0096,-4.0096,0.0,0.0,0.0,0.0,0.0,0.0,0.0,0.0,0.0,0.0,0.0,0.0,0.0,0.0,0.0,0.0,0.0,0.0,0.0,0.0,0.0,0.0,0.0,-2.7334,-2.8077,-2.828,-2.8873,-2.9839,-3.0025,-3.0294,-3.0685,-3.0685,-3.0685,-3.0685,-3.0685,-3.0987,-3.1441,-3.0717,-3.1041,-3.1833,0.0,-2.8907,-2.9094,0.0,0.0,0.0,0.0,0.0,0.0,0.0,0.0,0.0,0.0,-3.1374,-3.3196,0.0,0.0,-3.9372,-4.073,-4.1992,-4.2983,-4.3387,-4.3515,-4.3515,-4.3515,-4.3039,-4.2378,-4.1572,-4.0288,-3.9129,0.0,0.0,0.0,-4.1515,-4.3901,0.0,-4.6672,-4.748,0.0,-4.6892,0.0,-4.6562,-4.5957,-4.6452,0.0,0.0,-4.7365,-4.7434,-4.8038,-4.747,-4.7066,-4.691,-4.5989,-4.5433,-4.5267,-4.4814,-4.4615,-4.4615,-4.4615,-4.4615,-4.4615,-4.4615,-4.4615,-4.4615,-4.4615,-4.4496,-4.4231,-4.3656,-4.3172,-4.2743,-4.1644,-4.1085,-4.0849,-4.0316,-4.0096,-4.0096,0.0,0.0,0.0,0.0,0.0,0.0,0.0,0.0,0.0,0.0,0.0,0.0,0.0,0.0,0.0,0.0,0.0,0.0,0.0,0.0,0.0,0.0,-2.4323,-2.495,-2.5373,-2.5694,-2.6251,0.0,0.0,0.0,-2.7994,-2.7994,-2.7994,-2.7994,-2.7994,-2.8213,-2.8586,-2.818,0.0,0.0,0.0,0.0,0.0,0.0,0.0,0.0,0.0,0.0,0.0,0.0,0.0,-2.973,-3.2513,-3.3914,-3.5141,-3.8183,0.0,-4.0689,-4.1846,-4.28,-4.3515,-4.3515,-4.3515,-4.3221,-4.2158,-4.157,-4.0708,-3.8802,-3.7408,0.0,-3.5495,-3.6982,0.0,0.0,0.0,0.0,-4.6452,-4.7572,-4.8141,0.0,-4.7976,0.0,-4.7553,-4.7962,-4.8441,0.0,-4.8166,-4.8057,-4.8878,-4.8303,-4.7854,-4.7529,-4.6828,-4.633,-4.6066,-4.5422,-4.5077,-4.506,-4.4767,-4.4615,-4.4615,-4.4615,-4.4615,-4.4615,-4.4615,-4.4615,-4.4564,-4.4113,-4.3724,-4.3274,-4.2134,-4.1491,-4.1119,-4.0383,-4.0096,-4.0096,0.0,0.0,0.0,0.0,0.0,0.0,0.0,0.0,0.0,0.0,0.0,0.0,0.0,0.0,0.0,0.0,0.0,0.0,0.0,0.0,0.0,0.0,-2.2296,-2.2296,-2.2296,-2.2936,-2.3577,0.0,0.0,0.0,0.0,0.0,0.0,0.0,0.0,0.0,0.0,0.0,0.0,0.0,0.0,0.0,0.0,0.0,0.0,0.0,0.0,0.0,0.0,0.0,-3.0142,-3.1365,-3.4588,-3.6114,-3.7345,-4.0495,-4.1407,-4.1735,-4.3112,-4.3515,-4.3515,-4.3515,-4.3423,-4.2727,-4.0366,-3.9609,-3.8524,-3.5278,0.0,-3.3201,-3.2289,-3.4321,-3.6376,-3.7217,0.0,-4.4745,-4.5755,-4.7186,-4.8233,-4.8453,-4.9132,-4.9589,-4.9601,-4.9673,-4.9717,-4.9734,-4.8972,-4.8847,-4.9536,-4.9012,-4.8388,-4.7709,-4.7682,-4.743,-4.6832,-4.616,-4.5805,-4.5703,-4.5043,-4.4699,-4.4615,-4.4615,-4.4615,-4.4615,-4.4615,-4.4615,-4.4615,-4.4615,-4.4181,-4.3504,-4.2743,-4.1999,-4.1255,-4.0536,-4.018,-4.0096,0.0,0.0,0.0,0.0,0.0,0.0,0.0,0.0,0.0,0.0,-1.856,-1.78,0.0,0.0,0.0,0.0,0.0,0.0,0.0,0.0,0.0,0.0,-2.2296,-2.2296,-2.2296,0.0,0.0,0.0,0.0,0.0,0.0,0.0,0.0,0.0,0.0,0.0,0.0,0.0,0.0,0.0,0.0,0.0,0.0,0.0,0.0,0.0,0.0,0.0,0.0,0.0,-3.1774,-3.4972,-3.8237,-3.9823,-4.0817,-4.2572,-4.3075,-4.313,-4.3423,-4.3515,-4.3515,-4.3515,-4.3002,-4.1962,-3.9865,-3.8118,0.0,0.0,-3.2187,-3.1366,-2.9904,-3.2693,-3.55,-3.6376,0.0,0.0,0.0,0.0,-4.7829,0.0,0.0,-4.9612,-4.9691,-4.9699,0.0,0.0,-4.9162,-4.8785,-4.8877,-4.8767,-4.8388,-4.7709,-4.7682,-4.743,-4.6832,-4.6667,-4.6295,-4.5703,-4.5568,-4.5179,-4.4615,-4.4615,-4.4615,-4.4615,-4.4615,-4.4615,-4.4615,-4.4615,-4.453,-4.4327,-4.3521,-4.276,-4.2016,-4.1271,-4.0612,-4.0096,0.0,0.0,0.0,0.0,0.0,0.0,0.0,-1.8894,-1.9164,-1.99,-1.9744,-1.9418,-1.9,-1.9253,-1.9608,0.0,0.0,0.0,0.0,0.0,0.0,0.0,0.0,0.0,0.0,0.0,0.0,0.0,0.0,0.0,0.0,0.0,0.0,0.0,0.0,0.0,0.0,0.0,0.0,0.0,0.0,0.0,0.0,0.0,0.0,0.0,0.0,0.0,0.0,0.0,-3.0637,-3.4495,-3.8884,-4.0881,-4.1864,-4.314,-4.3515,-4.3515,-4.3515,-4.3515,-4.3515,-4.3515,-4.2892,-4.1432,-3.8163,0.0,0.0,0.0,-2.9074,-2.845,-2.7864,-3.0705,0.0,-3.4247,0.0,0.0,0.0,0.0,0.0,0.0,0.0,0.0,0.0,-5.0918,-5.0838,-5.0545,-4.9849,-4.9417,-4.9379,-4.9069,-4.8695,-4.8401,-4.8372,-4.8243,-4.7936,-4.7564,-4.7005,-4.6261,-4.5889,-4.5314,-4.4615,-4.4615,-4.4615,-4.4615,-4.4615,-4.4615,-4.4615,-4.4615,-4.4615,-4.453,-4.3724,-4.2963,-4.2202,-4.1474,-4.073,-4.0096,0.0,0.0,0.0,0.0,0.0,0.0,0.0,-1.9283,-1.9705,-2.0606,-2.1414,-2.1613,-2.0809,-2.0589,-2.0424,0.0,0.0,0.0,0.0,0.0,0.0,0.0,0.0,0.0,0.0,0.0,0.0,0.0,0.0,0.0,0.0,0.0,0.0,0.0,0.0,0.0,0.0,0.0,0.0,0.0,0.0,0.0,0.0,0.0,0.0,0.0,0.0,0.0,0.0,0.0,-2.8863,-3.2217,-3.7326,-4.0026,-4.1522,-4.2541,-4.3152,-4.3515,-4.3515,-4.3515,-4.3515,-4.3515,-4.2763,-4.0903,-3.6562,-3.4175,0.0,0.0,-2.6309,-2.5968,-2.6399,0.0,-3.1286,0.0,-3.5819,-3.9368,0.0,0.0,0.0,0.0,0.0,0.0,-5.1938,-5.1932,0.0,-5.1138,-5.0435,-4.9919,-4.9792,-4.9286,-4.9001,-4.9001,-4.9001,-4.9001,-4.9001,-4.8291,-4.753,-4.6786,-4.6058,-4.5314,-4.4615,-4.4615,-4.4615,-4.4615,-4.4615,-4.4615,-4.4615,-4.4615,-4.4615,-4.4547,-4.391,-4.3098,-4.2219,-4.1644,-4.0865,-4.0096,0.0,0.0,0.0,0.0,0.0,0.0,0.0,-2.0517,-2.1495,-2.2902,-2.3729,-2.3915,-2.3173,-2.2496,-2.182,0.0,0.0,0.0,0.0,0.0,0.0,0.0,0.0,0.0,0.0,0.0,0.0,0.0,0.0,0.0,0.0,0.0,0.0,0.0,0.0,0.0,0.0,0.0,0.0,0.0,0.0,0.0,0.0,0.0,0.0,0.0,0.0,0.0,0.0,0.0,0.0,-2.8952,-3.3156,-3.6933,-3.9923,-4.051,0.0,0.0,-4.3515,-4.3515,-4.3515,-4.3515,-4.2359,-4.016,-3.6085,0.0,0.0,-2.6402,-2.5314,-2.522,-2.593,-2.7783,-3.0094,0.0,0.0,-3.79,0.0,0.0,0.0,0.0,0.0,0.0,-5.2017,-5.1558,-5.1164,-5.1112,-5.0435,-4.9734,-4.9138,-4.9032,-4.9001,-4.9001,-4.9001,-4.9001,-4.9001,-4.8291,-4.753,-4.6786,-4.6058,-4.5314,-4.4615,-4.4615,-4.4615,-4.4615,-4.4615,-4.4615,-4.4615,-4.4615,-4.4615,-4.4598,-4.453,-4.3599,-4.2286,-4.2219,-4.1314,-4.0096,0.0,0.0,0.0,0.0,0.0,0.0,-1.9765,-2.0268,-2.1025,-2.2547,-2.378,-2.422,-2.3477,-2.3528,-2.3139,-2.1972,0.0,0.0,0.0,0.0,0.0,0.0,0.0,0.0,0.0,0.0,0.0,0.0,0.0,0.0,0.0,0.0,0.0,0.0,0.0,0.0,0.0,0.0,0.0,0.0,0.0,0.0,0.0,0.0,0.0,0.0,0.0,0.0,0.0,0.0,0.0,0.0,-2.7864,-3.106,0.0,0.0,-4.0652,-4.192,-4.3152,-4.3515,-4.3515,-4.3515,-4.1712,-3.9092,-3.584,0.0,-2.8747,-2.606,-2.4476,-2.4135,-2.6018,-2.6283,-2.7519,-3.1508,-3.2238,-3.3891,-3.8356,0.0,0.0,0.0,0.0,0.0,0.0,0.0,-5.1368,-5.05,-4.978,-4.9286,-4.9001,-4.9001,-4.9001,-4.9001,-4.9001,-4.9001,-4.9001,-4.8714,-4.797,-4.6786,-4.6498,-4.5737,-4.4615,-4.4615,-4.4615,-4.4615,-4.4615,-4.4615,-4.4615,-4.4615,-4.4615,-4.4615,-4.4615,-4.3667,-4.2286,-4.2286,-4.1382,-4.0096,0.0,0.0,0.0,0.0,0.0,-1.8307,-1.9765,-2.02,-2.0893,-2.2429,-2.3729,-2.4305,-2.378,-2.4,-2.3763,-2.2733,-2.2431,0.0,0.0,0.0,0.0,0.0,0.0,0.0,0.0,0.0,0.0,0.0,0.0,0.0,0.0,0.0,0.0,0.0,0.0,0.0,0.0,0.0,0.0,0.0,0.0,0.0,0.0,0.0,0.0,0.0,0.0,0.0,0.0,0.0,0.0,0.0,0.0,0.0,0.0,0.0,-3.8526,-4.0419,-4.1923,-4.2795,-4.3268,-4.3268,-4.1107,-3.8277,0.0,-3.1729,-2.7975,-2.5799,-2.3946,-2.3338,-2.5421,-2.5201,-2.5961,-2.979,-3.0288,-3.1737,-3.6125,-3.8649,0.0,0.0,0.0,-4.9435,0.0,-5.1658,-5.1426,-4.9821,-4.9432,-4.9212,-4.9001,-4.9001,-4.9001,-4.9001,-4.9001,-4.9001,-4.9001,-4.8562,-4.7834,-4.6786,-4.6346,-4.5613,-4.4615,-4.4615,-4.4615,-4.4615,-4.4615,-4.4615,-4.4615,-4.4615,-4.4615,-4.4615,-4.4615,-4.3667,-4.2286,-4.2286,-4.1382,-4.0096,0.0,0.0,0.0,0.0,0.0,0.0,-1.9765,-2.0686,-2.1715,-2.319,-2.4051,-2.4491,-2.4491,-2.3848,-2.341,-2.3376,-2.2733,0.0,0.0,0.0,0.0,0.0,0.0,0.0,0.0,0.0,0.0,-2.3376,0.0,0.0,0.0,0.0,0.0,0.0,0.0,0.0,0.0,0.0,0.0,0.0,0.0,0.0,0.0,0.0,0.0,0.0,0.0,0.0,0.0,0.0,0.0,0.0,0.0,0.0,0.0,0.0,-3.5508,-3.9371,-3.959,-4.1141,-4.2711,-4.2711,-4.053,-3.7835,0.0,-3.1729,-2.7914,-2.5502,-2.3773,-2.2955,-2.3786,-2.4778,-2.6047,-2.7765,-2.992,-3.259,-3.6103,-3.8795,0.0,0.0,0.0,-4.8085,-5.0562,-5.1587,-5.1223,-4.9168,-4.9622,0.0,-4.9032,-4.9001,-4.9001,-4.9001,-4.9001,-4.9001,-4.9001,-4.7547,-4.6802,-4.6769,-4.5326,-4.4615,-4.4615,-4.4615,-4.4615,-4.4615,-4.4615,-4.4615,-4.4615,-4.4615,-4.4615,-4.4615,-4.4615,-4.3667,-4.2286,-4.2286,-4.1382,-4.0096,0.0,0.0,0.0,0.0,0.0,0.0,0.0,-1.9879,-2.0741,-2.1766,-2.2984,-2.3763,-2.3763,-2.3528,-2.3393,-2.3393,-2.2733,0.0,0.0,0.0,0.0,0.0,0.0,0.0,0.0,0.0,-2.3173,-2.3393,-2.4408,-2.4644,0.0,0.0,0.0,0.0,0.0,0.0,0.0,0.0,0.0,0.0,0.0,0.0,0.0,0.0,0.0,0.0,0.0,0.0,0.0,0.0,0.0,0.0,0.0,0.0,0.0,-2.6324,0.0,0.0,-3.6114,-3.7363,-3.8133,-3.7614,-3.5758,-3.3722,-3.2492,-2.9292,-2.625,-2.5207,-2.3632,-2.2794,-2.4024,-2.4132,-2.5415,-2.9574,-3.063,0.0,0.0,0.0,0.0,-4.3552,-4.6506,-4.8888,0.0,0.0,-4.971,-4.9063,-4.9212,-4.9243,-4.9001,-4.9001,-4.9001,-4.9001,-4.9001,-4.8765,-4.8257,-4.78,-4.7056,-4.6041,-4.5568,-4.5077,-4.4615,-4.4615,-4.4615,-4.4615,-4.4615,-4.4615,-4.4615,-4.4615,-4.4615,-4.4615,-4.4615,-4.3667,-4.2286,-4.2286,-4.1382,-4.0096,0.0,0.0,0.0,0.0,0.0,0.0,0.0,-1.9299,-1.9862,-2.0653,-2.1803,-2.2665,-2.2953,-2.2987,-2.3105,-2.3376,-2.2733,0.0,0.0,0.0,0.0,0.0,0.0,0.0,0.0,-2.275,-2.3393,-2.4239,-2.5152,-2.5659,-2.5744,-2.5744,-2.505,0.0,0.0,0.0,0.0,0.0,0.0,0.0,0.0,0.0,0.0,0.0,0.0,0.0,0.0,0.0,0.0,0.0,0.0,0.0,0.0,0.0,0.0,0.0,-2.6493,-2.9764,0.0,-3.4322,-3.5366,-3.4924,-3.3227,-3.1492,-3.0679,-2.7958,-2.5368,-2.4555,-2.3281,-2.2569,-2.3437,-2.3707,-2.4938,-2.8395,-2.9588,-3.1441,0.0,0.0,0.0,-4.3574,0.0,0.0,0.0,-4.9267,-4.9256,-4.9032,-4.9001,-4.9001,-4.9001,-4.8748,-4.8595,-4.8595,-4.8595,-4.8376,-4.7889,-4.7361,-4.6616,-4.5703,-4.5415,-4.5026,-4.4615,-4.4615,-4.4615,-4.4615,-4.4615,-4.4615,0.0,-4.4615,-4.4615,-4.4581,-4.4265,-4.3386,-4.2252,-4.1982,-4.1119,-4.0096,0.0,0.0,0.0,0.0,0.0,0.0,0.0,-1.8848,-1.9147,-1.9828,-2.067,-2.1461,-2.2158,-2.2262,-2.2581,-2.3257,0.0,0.0,0.0,0.0,0.0,0.0,0.0,0.0,0.0,-2.2398,-2.3479,-2.5592,-2.5761,-2.6539,-2.7891,-2.7891,-2.6708,-2.4575,0.0,0.0,0.0,0.0,0.0,0.0,0.0,0.0,0.0,0.0,0.0,0.0,0.0,0.0,0.0,0.0,0.0,0.0,0.0,0.0,0.0,0.0,0.0,0.0,0.0,-3.1615,0.0,-3.3617,-3.2147,-3.0498,-2.9606,-2.7358,0.0,-2.368,-2.2818,-2.2347,-2.2499,-2.3613,-2.4747,-2.5493,-2.769,-3.0481,0.0,-3.6499,0.0,0.0,-4.7248,0.0,-4.7772,-4.905,-4.9664,-4.9063,-4.8951,-4.8934,-4.8934,-4.824,-4.7804,-4.7804,-4.7753,-4.7736,-4.7736,-4.6397,-4.5669,-4.5618,-4.4925,-4.4615,-4.4615,-4.4615,-4.4615,-4.4615,-4.4615,-4.4615,-4.4615,-4.4615,-4.4615,-4.453,-4.3792,-4.3014,-4.2202,-4.1525,-4.0781,-4.0096,0.0,0.0,0.0,0.0,0.0,0.0,0.0,0.0,0.0,0.0,-2.0361,-2.1258,-2.1444,-2.1955,-2.2364,0.0,0.0,0.0,0.0,0.0,0.0,0.0,0.0,0.0,0.0,-2.341,-2.4509,-2.5592,-2.7351,-2.8383,-2.8722,-2.8722,-2.7503,-2.5321,-2.4745,0.0,0.0,0.0,0.0,0.0,0.0,0.0,0.0,0.0,0.0,0.0,0.0,-2.2296,0.0,0.0,0.0,0.0,0.0,0.0,0.0,0.0,-2.3088,-2.3864,-2.4729,0.0,-2.7504,-2.694,-2.6434,-2.6029,0.0,-2.4802,-2.3816,-2.346,0.0,-2.282,-2.4511,-2.466,-2.5826,-2.9935,-3.1608,-3.3581,-3.7097,0.0,0.0,-4.611,-4.7398,-4.8246,-4.8634,-4.8991,-4.9152,-4.9001,-4.8494,-4.8173,-4.8173,-4.7462,-4.7056,-4.7056,-4.6515,-4.6227,-4.6227,-4.5872,-4.5415,-4.4869,-4.4682,-4.4615,-4.4615,-4.4615,-4.4615,-4.4615,-4.4615,-4.4615,-4.4615,-4.4615,-4.4615,-4.4581,-4.4384,-4.347,-4.2269,-4.21,-4.1204,-4.0096,0.0,0.0,0.0,0.0,0.0,0.0,0.0,0.0,0.0,0.0,0.0,0.0,0.0,0.0,0.0,0.0,0.0,0.0,0.0,0.0,0.0,0.0,0.0,0.0,-2.2296,-2.341,-2.4678,-2.6099,-2.7672,-2.8975,-3.0025,-3.0025,-2.8789,-2.6522,-2.478,-2.3359,0.0,0.0,0.0,0.0,0.0,0.0,0.0,0.0,0.0,0.0,-2.2296,-2.2296,0.0,-2.3088,-2.3088,-2.2868,0.0,0.0,0.0,0.0,-2.2581,-2.2902,-2.2902,-2.4475,-2.6015,-2.5608,-2.5506,-2.5422,-2.5083,0.0,0.0,0.0,0.0,0.0,-2.4814,-2.5592,-2.7165,-3.0717,-3.2476,0.0,0.0,0.0,-4.4913,-4.6603,-4.7462,-4.8176,0.0,-4.8697,-4.8511,-4.8511,-4.7817,-4.7411,-4.7411,-4.6701,-4.6295,-4.6295,-4.5568,-4.5348,-4.5703,-4.5365,-4.4976,-4.4615,-4.4615,-4.4615,-4.4615,-4.4615,-4.4615,-4.4615,-4.4615,-4.4615,-4.4615,-4.4615,-4.4615,-4.453,-4.3836,-4.3014,-4.2202,-4.1551,-4.079,-4.0096,0.0,0.0,0.0,0.0,0.0,0.0,0.0,0.0,0.0,0.0,0.0,0.0,0.0,0.0,0.0,0.0,0.0,0.0,0.0,0.0,0.0,0.0,0.0,-2.2398,-2.2632,-2.3241,-2.4644,-2.686,-2.7722,-2.9193,-3.119,-3.1309,-3.0023,-2.7503,-2.478,-2.3105,0.0,0.0,0.0,0.0,0.0,0.0,0.0,0.0,0.0,0.0,0.0,0.0,0.0,-2.3731,-2.3831,-2.3477,-2.4,0.0,0.0,0.0,0.0,0.0,-2.2702,-2.4797,-2.6759,-2.6302,-2.637,-2.6336,-2.5609,0.0,0.0,0.0,0.0,0.0,0.0,-2.6894,0.0,0.0,0.0,0.0,-3.9842,-4.2586,-4.479,-4.645,-4.7192,0.0,-4.8595,-4.8105,-4.775,-4.775,-4.7056,-4.6616,-4.6616,-4.5923,-4.5534,-4.5534,-4.4925,-4.4919,-4.5534,-4.4891,-4.4615,-4.4615,-4.4615,-4.4615,-4.4615,-4.4615,-4.4615,-4.4615,-4.4615,-4.4615,-4.4615,-4.4615,-4.453,-4.4282,-4.298,-4.232,-4.1965,-4.0739,-4.0197,-4.0096,0.0,0.0,0.0,0.0,0.0,0.0,0.0,0.0,0.0,0.0,0.0,0.0,0.0,0.0,0.0,0.0,0.0,0.0,0.0,0.0,0.0,0.0,-2.2296,-2.2885,-2.4135,-2.4271,-2.5406,-2.7621,-2.9041,-3.026,-3.1207,-3.1853,-3.0262,-2.6793,-2.51,-2.3562,-2.2296,0.0,0.0,0.0,0.0,0.0,0.0,0.0,0.0,0.0,0.0,0.0,0.0,-2.2564,-2.2987,-2.3308,-2.2801,0.0,0.0,0.0,0.0,0.0,-2.4578,-2.6336,-2.7029,-2.4526,-2.4847,-2.5575,-2.4846,0.0,0.0,0.0,0.0,0.0,0.0,-2.9533,-3.085,0.0,0.0,-3.9039,0.0,0.0,-4.4122,-4.5669,0.0,-4.6329,-4.7056,-4.7039,-4.6972,-4.6972,-4.6295,-4.5872,-4.5872,-4.5162,-4.4784,-4.4784,-4.4666,-4.4649,-4.4784,-4.4666,-4.4615,-4.4615,-4.4615,-4.4615,-4.4615,-4.4615,-4.4615,-4.4615,-4.4615,-4.4615,-4.4615,-4.4615,-4.4198,-4.3572,-4.3335,-4.2472,-4.1339,-4.1119,-4.0629,-4.0096,0.0,0.0,0.0,0.0,0.0,0.0,0.0,0.0,0.0,0.0,0.0,0.0,0.0,0.0,0.0,0.0,0.0,0.0,0.0,0.0,0.0,-2.2885,-2.2885,-2.3207,-2.3898,-2.5083,-2.659,-2.845,-3.0345,-3.1664,-3.2374,-3.1512,-2.9533,-2.664,-2.5168,-2.3678,-2.2296,0.0,0.0,0.0,0.0,0.0,0.0,0.0,0.0,0.0,0.0,0.0,0.0,0.0,-2.3376,-2.3864,-2.3122,0.0,0.0,0.0,0.0,0.0,-2.353,-2.517,-2.637,-2.5423,-2.6911,-2.8433,-2.7689,-2.7233,0.0,0.0,0.0,0.0,0.0,0.0,-3.3694,-3.7432,0.0,-4.1186,-4.2695,-4.3462,-4.4326,0.0,0.0,-4.5991,-4.6718,-4.643,-4.621,-4.621,-4.5517,-4.5094,-4.5094,-4.4801,-4.4615,-4.4615,-4.4615,-4.4615,-4.4615,-4.4615,-4.4615,-4.4615,-4.4615,-4.4615,-4.4615,-4.4615,-4.4615,-4.4615,-4.4615,-4.4615,-4.4615,-4.4615,-4.413,-4.3341,-4.2963,-4.2151,-4.1153,-4.0747,-4.0375,-4.0096,0.0,0.0,0.0,0.0,0.0,0.0,0.0,0.0,0.0,0.0,0.0,0.0,0.0,0.0,0.0,0.0,0.0,0.0,0.0,0.0,-2.255,-2.3122,-2.346,-2.4,-2.4711,-2.6184,-2.796,-3.0042,-3.1735,-3.2848,-3.3372,-3.1495,-2.9211,-2.664,-2.5337,-2.3833,-2.2296,-2.2296,-2.2296,0.0,0.0,0.0,0.0,0.0,0.0,0.0,0.0,0.0,0.0,0.0,0.0,0.0,0.0,0.0,0.0,-2.2936,-2.2564,-2.2668,-2.319,-2.4577,-2.6082,-2.6996,0.0,-3.0446,-3.0581,-2.9905,-2.9416,0.0,0.0,0.0,0.0,-3.4049,0.0,-3.9842,-4.1364,-4.2431,-4.3271,-4.397,-4.4651,-4.5354,-4.5449,-4.5652,-4.6227,-4.5771,-4.5449,-4.5449,-4.4936,-4.4615,-4.4615,-4.4615,-4.4615,-4.4615,-4.4615,-4.4615,-4.4615,-4.4615,-4.4615,-4.4615,-4.4615,-4.4615,-4.4615,-4.4615,-4.4615,-4.4615,-4.4615,-4.4496,-4.4316,-4.4316,-4.3758,-4.2817,-4.2252,-4.1593,-4.0865,-4.0316,-4.0096,-4.0096,0.0,0.0,0.0,0.0,0.0,0.0,0.0,0.0,0.0,0.0,0.0,0.0,0.0,0.0,0.0,0.0,0.0,0.0,0.0,0.0,-2.2313,-2.2381,-2.3695,-2.5726,-2.8536,-2.8027,-2.948,-3.3085,-3.3237,-3.3355,-3.3389,-3.2547,-3.0211,-2.6657,-2.5879,-2.4308,-2.2296,-2.2296,-2.2296,0.0,0.0,0.0,0.0,0.0,0.0,0.0,0.0,0.0,0.0,0.0,0.0,0.0,0.0,0.0,-2.4338,-2.3545,-2.3325,-2.3765,-2.5828,-2.6488,-2.6979,-2.8468,-2.8433,-2.8753,-3.1532,-3.1038,0.0,-3.2662,0.0,0.0,0.0,-3.7144,-3.9208,-4.0849,-4.1781,-4.2543,-4.3301,-4.4084,-4.4603,-4.4666,-4.4682,-4.4699,-4.475,-4.4716,-4.4682,-4.4682,-4.4632,-4.4615,-4.4615,-4.4615,-4.4615,-4.4615,-4.4615,-4.4615,-4.4615,-4.4615,-4.4615,-4.4615,-4.4615,-4.4615,-4.4615,-4.4615,-4.4615,-4.4615,-4.4615,-4.4181,-4.3504,-4.3504,-4.2658,-4.1356,-4.1305,-4.0832,-4.018,-4.013,-4.0096,-4.0096,0.0,0.0,0.0,0.0,0.0,0.0,0.0,0.0,0.0,0.0,0.0,0.0,0.0,0.0,0.0,0.0,0.0,0.0,0.0,0.0,-2.2499,-2.297,-2.3966,-2.5455,-2.752,-2.911,-3.1055,-3.3406,-3.3863,-3.3846,-3.3372,-3.1715,-2.9668,-2.7317,-2.6116,-2.4881,-2.3644,-2.3173,-2.2987,-2.2936,0.0,0.0,0.0,0.0,0.0,0.0,0.0,0.0,0.0,0.0,-2.3021,-2.3325,-2.2868,-2.3224,-2.3663,-2.2936,-2.2733,-2.2902,-2.3748,-2.5642,-2.7638,-2.8739,-2.9822,0.0,0.0,-3.3643,-3.4624,-3.5943,-3.6434,0.0,0.0,0.0,-3.9631,-4.1559,-4.2117,-4.2726,-4.3961,-4.4429,-4.4615,-4.4615,-4.4615,-4.4615,-4.4615,-4.4615,-4.4615,-4.4615,-4.4615,-4.4615,-4.4615,-4.4615,-4.4615,-4.4615,-4.4615,-4.4615,-4.4615,-4.4615,-4.4615,-4.4615,-4.4615,-4.4615,-4.4615,-4.4615,-4.4615,-4.4581,-4.4062,-4.369,-4.3358,-4.2912,-4.2117,-4.1153,-4.0696,-4.0367,-4.0096,-4.0096,-4.0096,-4.0096,0.0,0.0,0.0,0.0,0.0,0.0,0.0,0.0,0.0,0.0,0.0,0.0,0.0,0.0,0.0,0.0,0.0,0.0,-2.2296,-2.2296,-2.253,-2.3038,-2.3983,-2.5185,-2.6657,-2.9431,-3.1698,-3.3406,-3.437,-3.4117,-3.2679,-3.1157,-2.9497,-2.7756,-2.6488,-2.5541,-2.4778,-2.3799,-2.3393,-2.3325,0.0,0.0,0.0,0.0,0.0,0.0,0.0,0.0,0.0,0.0,-2.2835,-2.3004,-2.2719,-2.2987,-2.3291,-2.2801,-2.2987,-2.3344,-2.3344,-2.5339,-2.7756,-2.9025,0.0,0.0,-3.4134,-3.547,-3.6891,-3.8599,-3.8954,-3.9106,-3.9597,0.0,0.0,0.0,-4.2489,-4.3098,-4.4429,-4.4615,-4.4615,-4.4615,-4.4615,-4.4615,-4.4615,-4.4615,-4.4615,-4.4615,-4.4615,-4.4615,-4.4615,-4.4615,-4.4615,-4.4615,-4.4615,-4.4615,-4.4615,-4.4615,-4.4615,-4.4615,-4.4615,-4.4615,-4.4615,-4.4615,-4.4479,-4.4181,-4.3656,-4.3122,-4.2675,-4.2151,-4.1508,-4.0798,-4.0316,-4.0096,-4.0096,-4.0096,-4.0096,-4.0096,0.0,0.0,0.0,0.0,0.0,0.0,0.0,0.0,0.0,0.0,0.0,0.0,0.0,0.0,0.0,0.0,0.0,0.0,-2.2296,-2.2296,-2.2296,-2.2296,-2.3712,-2.5168,-2.664,-2.8907,-3.1173,-3.3389,-3.4839,-3.4083,-3.119,-3.1173,-2.9973,-2.7773,-2.7046,-2.6302,-2.5508,-2.4036,-2.341,-2.3359,-2.2615,0.0,0.0,0.0,0.0,0.0,0.0,0.0,0.0,0.0,-2.2902,-2.2431,-2.3156,-2.3393,-2.341,-2.3393,-2.4425,-2.5592,-2.5576,-2.6133,-2.7266,-2.955,0.0,0.0,-3.6135,-3.6214,-3.6698,-4.0443,-4.1221,-4.1221,-4.1221,-4.1221,0.0,-4.2185,-4.2929,-4.369,-4.4496,-4.4615,-4.4615,-4.4615,-4.4615,-4.4615,-4.4615,-4.4615,-4.4615,-4.4615,-4.4615,-4.4615,-4.4615,-4.4615,-4.4615,-4.4615,-4.4615,-4.4615,-4.4615,-4.4615,-4.4615,-4.4598,-4.4598,-4.4598,-4.4615,-4.4598,-4.4147,-4.3392,-4.3375,-4.253,-4.1204,-4.1204,-4.0747,-4.0096,-4.0096,-4.0096,-4.0096,-4.0096,-4.0096,-4.0096,0.0,0.0,0.0,0.0,0.0,0.0,0.0,0.0,0.0,0.0,0.0,0.0,0.0,0.0,0.0,0.0,0.0,0.0,-2.2296,-2.2296,-2.2296,-2.2296,-2.3224,-2.3917,-2.4374,-2.6573,-2.9313,-3.2632,-3.3051,-3.229,-3.0412,-2.9907,-2.8991,-2.779,-2.757,-2.7063,-2.6268,-2.4795,-2.4458,-2.4847,-2.3579,-2.3071,0.0,0.0,0.0,0.0,0.0,0.0,0.0,0.0,0.0,0.0,-2.2564,-2.3342,-2.3966,-2.2936,-2.3663,-2.4695,-2.4188,-2.6149,0.0,-3.0446,0.0,0.0,0.0,-3.8548,0.0,0.0,-4.1965,-4.1965,-4.1965,-4.1965,-4.2219,-4.2963,-4.324,-4.369,-4.4496,-4.4615,-4.4615,-4.4615,-4.4615,-4.4615,-4.4615,-4.4615,-4.4615,-4.4615,-4.4615,-4.4615,-4.4615,-4.4615,-4.4615,-4.4615,-4.4615,-4.4615,-4.4615,-4.4615,-4.4316,-4.3775,-4.3775,-4.4045,-4.4581,-4.4012,-4.3639,-4.3341,-4.232,-4.161,-4.117,-4.0629,-4.0316,-4.0096,-4.0096,-4.0096,-4.0096,-4.0096,-4.0096,-4.0096,0.0,0.0,0.0,0.0,0.0,0.0,0.0,0.0,0.0,0.0,0.0,0.0,0.0,0.0,0.0,0.0,0.0,0.0,0.0,0.0,-2.2431,-2.2733,-2.3156,-2.3799,-2.4678,-2.6302,-2.8095,-3.0076,-3.0362,-2.9905,-2.8755,-2.9211,-2.9025,-2.8298,-2.8907,-2.8398,-2.7063,-2.5879,-2.5303,-2.5084,-2.4188,-2.3661,-2.3393,0.0,0.0,0.0,0.0,0.0,0.0,0.0,0.0,0.0,-2.2296,0.0,-2.3577,-2.3257,-2.4222,-2.5472,-2.593,-2.8129,0.0,-3.2903,-3.5137,-3.7422,-3.9766,0.0,0.0,0.0,-4.2743,-4.2743,-4.2743,-4.2743,-4.2878,-4.3325,-4.3673,-4.4045,-4.4547,-4.4615,-4.4615,-4.4615,-4.4615,-4.4615,-4.4615,-4.4615,-4.4615,-4.4615,-4.4615,-4.4615,-4.4615,-4.4282,-4.4113,-4.4113,-4.3826,-4.3701,-4.3701,-4.3701,-4.3436,-4.2963,-4.2963,-4.3217,-4.3684,-4.3183,-4.2811,-4.2472,-4.1271,-4.0747,-4.073,-4.0282,-4.0096,-4.0096,-4.0096,-4.0096,-4.0096,-4.0096,-4.0096,-4.0096,0.0,0.0,0.0,0.0,0.0,0.0,0.0,0.0,0.0,0.0,0.0,0.0,0.0,0.0,0.0,0.0,0.0,0.0,0.0,0.0,-2.2632,-2.3359,-2.3528,-2.4543,-2.6556,-2.7181,-2.7164,-2.6505,-2.7367,-2.7384,-2.664,-2.8941,-2.96,-2.8959,-3.0381,-2.977,-2.7655,-2.6843,-2.5726,-2.4491,-2.4423,-2.4,-2.3393,-2.3393,0.0,0.0,0.0,0.0,0.0,0.0,0.0,0.0,-2.2296,-2.2381,-2.275,-2.3949,-2.5439,-2.7148,-2.9228,-3.097,0.0,-3.5949,-3.6897,0.0,-4.1407,-4.2236,-4.2523,-4.3352,0.0,-4.3521,-4.3521,-4.3521,-4.3521,-4.3521,-4.4113,-4.4615,-4.4615,-4.4615,-4.4615,-4.4615,-4.4615,-4.4615,-4.4615,-4.4615,-4.4615,-4.4615,-4.4615,-4.4581,-4.4496,-4.3809,-4.3358,-4.3291,-4.2642,-4.2286,-4.2286,-4.2286,-4.2252,-4.2202,-4.2202,-4.2151,-4.2083,-4.2168,-4.1796,-4.1068,-4.0375,-4.0096,-4.0096,-4.0096,-4.0096,-4.0096,-4.0096,-4.0096,-4.0096,-4.0096,-4.0096,-4.0096,0.0,0.0,0.0,0.0,0.0,0.0,0.0,0.0,0.0,0.0,0.0,0.0,0.0,0.0,0.0,0.0,0.0,0.0,0.0,0.0,-2.2632,-2.3359,-2.4509,-2.5355,-2.5828,-2.5423,-2.5134,-2.4965,-2.6877,-2.7131,-2.5896,-2.8163,-2.8805,-2.8094,-2.9042,-2.8536,-2.6843,-2.554,-2.4795,-2.444,-2.3881,-2.3528,-2.3393,-2.3393,-2.2936,0.0,0.0,0.0,0.0,0.0,0.0,0.0,-2.2296,-2.3088,-2.3864,-2.3021,-2.4644,-2.681,-2.73,-2.9381,0.0,0.0,-3.7635,-3.9757,-4.1119,-4.188,-4.2675,-4.4045,-4.4333,-4.4333,-4.4333,-4.4333,-4.4333,-4.4333,-4.4496,-4.4615,-4.4615,-4.4615,-4.4615,-4.4615,-4.4615,-4.4615,-4.4615,-4.4615,-4.4615,-4.4615,-4.4615,-4.4316,-4.3707,-4.3477,-4.3149,-4.254,-4.2371,-4.2286,-4.2286,-4.2286,-4.1999,-4.1441,-4.1441,-4.1119,-4.0603,-4.117,-4.1018,-4.0333,-4.018,-4.0096,-4.0096,-4.0096,-4.0096,-4.0096,-4.0096,-4.0096,-4.0096,-4.0096,-4.0096,-4.002,0.0,0.0,0.0,0.0,0.0,0.0,0.0,0.0,0.0,0.0,0.0,0.0,0.0,0.0,0.0,0.0,0.0,0.0,0.0,0.0,-2.2801,-2.3881,-2.5,-2.5592,-2.5592,-2.488,-2.4491,-2.4491,-2.5659,-2.6015,-2.5659,-2.8281,-2.9499,-2.9465,-3.0245,-2.9331,-2.7165,-2.6015,-2.4948,-2.3966,-2.3949,-2.3729,-2.3393,-2.3393,-2.2936,-2.2296,-2.2296,0.0,0.0,0.0,0.0,0.0,0.0,0.0,-2.3427,-2.3359,-2.4695,-2.6573,-2.8366,0.0,0.0,-3.6924,0.0,-4.0299,-4.1035,-4.1508,-4.21,-4.3278,-4.409,-4.4615,-4.4615,-4.4615,-4.4615,-4.4615,-4.4615,-4.4615,-4.4615,-4.4615,-4.4615,-4.4615,-4.4615,-4.4615,-4.4615,-4.4615,-4.4445,-4.4045,-4.4028,-4.369,-4.2912,-4.254,-4.2185,-4.1779,-4.1424,-4.1264,-4.1264,-4.1264,-4.106,-4.0663,-4.0663,-4.046,-4.0113,-4.0519,-4.0468,-4.0096,-4.0096,-4.0096,-4.0096,-4.0096,-4.0096,-4.0096,-4.0096,-4.0096,-4.0096,-4.0096,-4.0096,-3.9978,0.0,0.0,0.0,0.0,0.0,0.0,0.0,0.0,0.0,0.0,0.0,0.0,0.0,0.0,0.0,0.0,0.0,0.0,0.0,-2.2415,-2.3038,-2.4254,-2.5017,-2.5423,-2.5423,-2.4694,-2.4372,-2.4491,-2.4372,-2.5017,0.0,0.0,-3.0497,-3.1207,-3.1698,-3.0311,-2.7553,-2.6691,-2.5118,-2.3257,-2.3881,-2.3763,-2.3207,-2.3207,-2.2835,-2.2296,-2.2296,-2.2296,-2.2296,-2.2296,0.0,0.0,0.0,0.0,-2.2533,-2.3763,-2.4729,-2.6116,-2.9347,0.0,-3.5368,-3.9012,-4.0011,0.0,-4.0865,-4.1119,-4.1373,-4.1982,-4.3217,-4.4209,-4.4209,-4.4209,-4.4209,-4.4209,-4.4327,-4.4384,-4.4384,-4.4384,-4.4384,-4.4384,-4.4293,-4.4209,-4.4209,-4.4209,-4.3927,-4.3267,-4.3189,-4.2895,-4.2151,-4.1525,-4.1136,-4.1018,-4.0434,-4.0096,-4.0096,-4.0096,-4.0096,-4.0096,-4.0096,-4.0096,-4.0096,-4.0096,-4.0096,-4.0096,-4.0096,-4.0096,-4.0096,-4.0096,-4.0096,-4.0096,-4.0096,-4.0096,-4.0096,-4.0096,-4.002,-3.9782,0.0,0.0,0.0,0.0,0.0,0.0,0.0,0.0,0.0,0.0,0.0,-2.2296,-2.2296,-2.2296,0.0,0.0,0.0,0.0,-2.2296,0.0,0.0,-2.3528,-2.4254,-2.4643,-2.4643,-2.3932,-2.3864,-2.4491,-2.3864,0.0,0.0,0.0,0.0,-3.1173,0.0,0.0,0.0,0.0,-2.3898,-2.2462,-2.255,-2.2533,-2.2448,-2.2448,-2.2381,-2.2296,-2.2296,-2.2296,-2.2296,-2.2296,-2.2296,0.0,0.0,0.0,-2.233,-2.2533,-2.3562,-2.4897,0.0,0.0,-3.5233,0.0,-3.9639,-4.013,0.0,0.0,-4.1238,0.0,-4.2016,-4.2591,-4.2591,-4.2591,-4.2591,-4.2591,-4.3149,-4.3572,-4.3572,-4.3572,-4.3572,-4.3572,-4.2997,-4.2591,-4.2591,-4.2591,-4.2557,-4.2439,-4.2439,-4.2117,-4.139,-4.1255,-4.0899,-4.0282,-4.0146,-4.0096,-4.0096,-4.0096,-4.0096,-4.0096,-4.0096,-4.0096,-4.0096,-4.0096,-4.0096,-4.0096,-4.0096,-4.0096,-4.0096,-4.0096,-4.0096,-4.0096,-4.0096,-4.0096,-4.0096,-4.0096,-3.9662,-3.8951,0.0,0.0,0.0,0.0,0.0,0.0,0.0,0.0,0.0,0.0,0.0,-2.2296,-2.2296,-2.2296,0.0,0.0,0.0,0.0,-2.2296,-2.26,0.0,0.0,-2.3712,-2.3881,-2.3881,-2.3577,-2.3562,-2.3881,0.0,0.0,0.0,-3.0717,-3.2002,0.0,0.0,0.0,0.0,0.0,-2.4255,-2.2885,-2.2465,-2.3291,-2.4577,-2.2922,-2.3342,-2.456,-2.2888,-2.2296,-2.2296,-2.2296,-2.2296,-2.2296,-2.2296,0.0,0.0,0.0,-2.3054,-2.4577,-2.7858,-3.1258,-3.4709,0.0,-3.9225,-3.9605,-4.0011,0.0,-4.0578,-4.0578,-4.0832,-4.1331,-4.2134,-4.2286,-4.2286,-4.2286,-4.2574,-4.2777,-4.2777,-4.2777,-4.2777,-4.2777,-4.2489,-4.2286,-4.2286,-4.2286,-4.2117,-4.1711,-4.1677,-4.1356,-4.0612,-4.0578,-4.0451,-4.0113,-4.0096,-4.0096,-4.0096,-4.0096,-4.0096,-4.0096,-4.0096,-4.0096,-4.0096,-4.0096,-4.0096,-4.0096,-4.0096,-4.0096,-4.0096,-4.0096,-4.0096,-4.0096,-4.0096,-4.0096,-4.0096,-4.0096,-3.9876,-3.9411,0.0,0.0,0.0,0.0,0.0,0.0,0.0,0.0,0.0,0.0,0.0,0.0,-2.2296,0.0,0.0,0.0,0.0,0.0,-2.2296,0.0,0.0,0.0,0.0,-2.3122,-2.3122,-2.3122,-2.3207,-2.3393,0.0,0.0,-3.1481,-3.1481,-3.3698,0.0,-3.5064,-3.2831,0.0,0.0,0.0,0.0,-2.3646,-2.4746,-2.6539,-2.5118,-2.593,-2.7452,-2.4475,-2.3412,-2.3294,-2.255,-2.2296,-2.2296,-2.2296,-2.2296,0.0,0.0,0.0,0.0,0.0,0.0,-3.2882,-3.6637,-3.8007,-3.8667,0.0,0.0,-4.0096,0.0,-4.0096,-4.0451,-4.1551,-4.1728,-4.1728,-4.1728,-4.1897,-4.2016,-4.2016,-4.2016,-4.2016,-4.2016,-4.1847,-4.1728,-4.1728,-4.1728,-4.1508,-4.095,-4.0916,-4.0679,-4.013,-4.0096,-4.0096,-4.0096,-4.0096,-4.0096,-4.0096,-4.0096,-4.0096,-4.0096,-4.0096,-4.0096,-4.0096,-4.0096,-4.0096,-4.0096,-4.0096,-4.0096,-4.0096,-4.0096,-4.0096,-4.0096,-4.0096,-4.0096,-4.0096,-4.0096,-3.9978,-3.961,0.0,0.0,0.0,0.0,0.0,0.0,0.0,0.0,0.0,0.0,0.0,0.0,0.0,0.0,0.0,0.0,0.0,0.0,0.0,0.0,0.0,0.0,0.0,0.0,-2.2347,-2.2347,-2.2699,0.0,0.0,0.0,-3.2242,-3.2242,-3.4984,-3.9808,-3.6823,-3.3503,-3.0057,0.0,0.0,0.0,0.0,-2.6556,-2.6996,-2.9702,-3.0818,-3.0565,-2.7537,-2.6471,-2.6031,0.0,-2.2296,-2.2296,-2.2296,-2.2296,-2.2296,0.0,0.0,0.0,0.0,-2.6962,0.0,-3.2763,-3.5318,0.0,0.0,0.0,-4.0096,-4.0096,-4.0096,-4.013,-4.0197,-4.0214,-4.0214,-4.0214,-4.0798,-4.1271,-4.1271,-4.1271,-4.1271,-4.1271,-4.0629,-4.0214,-4.0214,-4.0214,-4.0197,-4.0163,-4.0163,-4.0146,-4.0096,-4.0096,-4.0096,-4.0096,-4.0096,-4.0096,-4.0096,-4.0096,-4.0096,-4.0096,-4.0096,-4.0096,-4.0096,-4.0096,-4.0096,-4.0096,-4.0096,-4.0096,-4.0096,-4.0096,-4.0096,-4.0096,-4.0096,-4.0096,-4.0096,-4.0096,-3.961,-3.8854,0.0,0.0,0.0,0.0,0.0,0.0,0.0,0.0,0.0,0.0,0.0,0.0,0.0,-2.2296,-2.2296,-2.2296,-2.2296,0.0,0.0,0.0,0.0,0.0,0.0,0.0,0.0,-2.2296,0.0,0.0,0.0,-2.5,-2.9431,-2.9941,-3.1938,-3.5086,-3.4945,-3.4421,-3.3334,-2.8958,0.0,0.0,0.0,-2.8856,-3.1004,-3.114,-3.2374,-3.3643,-3.0649,0.0,0.0,0.0,0.0,-2.3004,-2.3004,-2.2682,-2.2296,-2.2296,-2.2296,0.0,0.0,0.0,0.0,-3.1055,-3.3305,-3.4996,-3.6485,-3.8142,-3.9402,-3.9402,-3.9774,-4.0096,-4.0096,-4.0096,-4.0096,-4.0096,-4.0333,-4.0476,-4.0476,-4.0476,-4.0476,-4.0476,-4.0265,-4.0096,-4.0096,-4.0096,-4.0096,-4.0096,-4.0096,-4.0096,-4.0096,-4.0096,-4.0096,-4.0096,-4.0096,-4.0096,-4.0096,-4.0096,-4.0096,-4.0096,-4.0096,-4.0096,-4.0096,-4.0096,-4.0096,-4.0096,-4.0096,-4.0096,-4.0096,-4.0096,-4.0096,-4.0096,-4.0096,-3.9782,-3.9342,-3.9342,-3.8843,-3.8076,0.0,0.0,0.0,0.0,0.0,0.0,0.0,0.0,0.0,-2.2296,0.0,0.0,0.0,0.0,-2.2296,-2.2296,-2.2296,-2.2296,-2.2296,0.0,0.0,0.0,0.0,0.0,0.0,-2.2533,-2.255,0.0,0.0,0.0,0.0,-2.823,-2.9924,-3.2293,-3.2273,-3.3372,0.0,0.0,0.0,-3.0446,0.0,-3.1546,-3.3795,-3.4066,-3.5402,-3.6721,-3.3744,0.0,0.0,0.0,0.0,0.0,-2.4289,-2.3291,-2.2296,-2.2296,-2.2296,0.0,-2.4088,0.0,0.0,0.0,0.0,-3.2303,-3.5334,-3.6772,-3.777,-3.8785,-3.9402,-3.9808,-4.0062,-4.0096,-4.0096,-4.0096,-4.0096,-4.0096,-4.0096,-4.0096,-4.0096,-4.0096,-4.0096,-4.0096,-4.0096,-4.0096,-4.0096,-4.0096,-4.0096,-4.0096,-4.0096,-4.0096,-4.0096,-4.0096,-4.0096,-4.0096,-4.0096,-4.0096,-4.0096,-4.0096,-4.0096,-4.0096,-4.0096,-4.0096,-4.0096,-4.0096,-4.0096,-4.0096,-4.0096,-4.0096,-4.0096,-4.0096,-4.0096,-3.961,-3.8908,-3.8908,-3.8442,-3.769,0.0,0.0,0.0,0.0,0.0,0.0,0.0,0.0,-2.2296,-2.233,0.0,0.0,0.0,0.0,0.0,-2.2398,-2.2381,-2.2347,-2.233,-2.2313,0.0,0.0,0.0,0.0,0.0,-2.3004,-2.3021,-2.2296,-2.3729,-2.5185,-2.6607,0.0,-2.9296,-3.2005,-2.911,-3.0224,-3.4269,0.0,-3.3254,-3.3491,0.0,-3.4455,-3.4996,0.0,-4.0062,-3.9723,-3.6789,-3.5684,0.0,-3.1492,0.0,0.0,-2.6049,-2.4086,-2.233,-2.2296,-2.2313,0.0,0.0,0.0,0.0,0.0,0.0,0.0,-3.5204,0.0,-3.5216,-3.8244,-3.887,-3.9123,-3.9926,-4.0096,-4.0096,-4.0096,-4.0096,-4.0096,-4.0096,-4.0096,-4.0096,-4.0096,-4.0096,-4.0096,-4.0096,-4.0096,-4.0096,-4.0096,-4.0096,-4.0096,-4.0096,-4.0096,-4.0096,-4.0096,-4.0096,-4.0096,-4.0096,-4.0096,-4.0096,-4.0096,-4.0096,-4.0096,-4.0096,-4.0096,-4.0096,-4.0096,-4.0096,-4.0096,-4.0096,-4.0096,-4.0096,-4.0096,-4.0096,-3.961,-3.8881,-3.8881,-3.8386,-3.7602,0.0,0.0,0.0,0.0,0.0,-2.2296,-2.2296,-2.2296,-2.2496,0.0,0.0,0.0,-2.4118,-2.4492,-2.4695,-2.4695,-2.4188,-2.3661,-2.3122,-2.2598,-2.2296,-2.2296,-2.2296,-2.2296,-2.2296,-2.2499,-2.2499,-2.2296,-2.2716,-2.3393,-2.4323,-2.5067,-2.6437,-2.8248,-2.7925,-2.8822,-3.0381,-2.7977,0.0,-3.4032,-3.2087,-3.3592,0.0,0.0,0.0,0.0,0.0,-3.7821,-3.6299,0.0,-3.2493,-2.8906,0.0,0.0,0.0,-2.2448,0.0,0.0,-2.2431,0.0,0.0,0.0,0.0,0.0,0.0,0.0,-3.2154,-3.5131,-3.618,-3.711,-3.8954,-3.974,-4.0096,-4.0096,-4.0096,-4.0096,-4.0096,-4.0096,-4.0096,-4.0096,-4.0096,-4.0096,-4.0096,-4.0096,-4.0096,-4.0096,-4.0096,-4.0096,-4.0096,-4.0096,-4.0096,-4.0096,-4.0096,-4.0096,-4.0096,-4.0096,-4.0096,-4.0096,-4.0096,-4.0096,-4.0096,-4.0096,-4.0096,-4.0096,-4.0096,-4.0096,-4.0096,-4.0096,-4.0096,-4.0096,-4.0096,-3.9279,-3.8121,-3.8121,-3.7265,-3.6116,0.0,0.0,0.0,0.0,0.0,-2.3665,-2.3665,-2.3665,-2.3818,0.0,0.0,0.0,-2.4881,-2.6471,-2.6979,-2.571,-2.4931,-2.4186,-2.3444,-2.2716,-2.2296,-2.2296,-2.2296,-2.2431,-2.275,-2.2767,-2.2767,-2.2767,-2.2767,-2.2818,-2.2953,-2.3376,-2.422,-2.5321,-2.544,-2.6285,-2.7402,-2.4712,0.0,0.0,-3.2949,0.0,0.0,-3.8937,-3.98,0.0,0.0,0.0,-3.8132,-3.7828,-3.4726,0.0,0.0,0.0,0.0,0.0,0.0,0.0,0.0,0.0,0.0,0.0,0.0,0.0,-2.8145,-2.8721,-2.9702,0.0,-3.4387,-3.5385,-3.7652,-3.8437,-3.8928,-3.9554,-3.9656,-3.9757,-4.0062,-4.0096,-4.0096,-4.0096,-4.0096,-4.0096,-4.0096,-4.0096,-4.0096,-4.0096,-4.0096,-4.0096,-4.0096,-4.0096,-4.0096,-4.0096,-4.0096,-4.0096,-4.0096,-4.0096,-4.0096,-4.0096,-4.0096,-4.0096,-4.0096,-4.0096,-4.0096,-4.0096,-4.0096,-4.0096,-4.0096,-4.0096,-4.0096,-4.0096,-4.0096,-3.9172,-3.7793,-3.7793,-3.6829,-3.5504,0.0,0.0,-2.3444,-2.3613,-2.4729,-2.5659,-2.5812,-2.5761,-2.5812,0.0,-2.5675,-2.5692,-2.6505,-2.8839,-2.9262,-2.659,-2.5439,-2.4525,-2.3697,-2.2885,-2.2381,-2.2296,-2.2381,-2.2699,-2.3274,-2.3427,-2.3427,-2.3274,-2.3359,-2.3021,-2.2296,-2.2296,-2.2649,-2.3241,-2.2584,-2.3378,-2.5119,-2.3564,-2.6031,-3.1241,-3.468,-3.6874,0.0,0.0,-4.1187,-4.1322,-4.1322,-4.0849,-4.0096,-3.9174,-3.6186,0.0,0.0,0.0,0.0,0.0,-2.5389,0.0,0.0,0.0,0.0,0.0,0.0,0.0,-2.867,-2.8044,-2.7824,0.0,-3.2662,-3.3372,-3.5746,-3.6321,-3.6863,-3.8159,-3.8582,-3.9056,-3.9977,-4.0096,-4.0096,-4.0096,-4.0096,-4.0096,-4.0096,-4.0096,-4.0096,-4.0096,-4.0096,-4.0096,-4.0096,-4.0096,-4.0096,-4.0096,-4.0096,-4.0096,-4.0096,-4.0096,-4.0096,-4.0096,-4.0096,-4.0096,-4.0096,-4.0096,-4.0096,-4.0096,-4.0096,-4.0045,-3.9969,-3.9969,-4.002,-4.0096,-4.0096,-3.9172,-3.7793,-3.7793,-3.6829,-3.5504,0.0,-2.3712,-2.3765,-2.4966,-2.5406,-2.5998,-2.7198,-2.6877,-2.7148,-2.8991,-3.0125,-3.1295,-3.2611,-3.2242,-3.1633,-3.1041,-2.8636,-2.659,-2.527,-2.3917,-2.2919,-2.233,-2.2868,-2.297,-2.2516,-2.3678,-2.3697,-2.2499,-2.3105,-2.3021,-2.2296,-2.2296,-2.2381,-2.2513,-2.2364,-2.2533,-2.3108,-2.5643,0.0,-2.9551,-3.0869,-3.4726,-3.9723,-4.0155,-4.1052,-4.2083,-4.2083,-4.161,-4.0696,-3.8768,-3.7127,-3.5323,0.0,0.0,0.0,-2.7063,-2.7672,-2.8906,-2.7536,0.0,0.0,0.0,0.0,0.0,-2.6082,-2.6166,-2.6962,0.0,-2.801,-2.889,-3.1749,-3.3254,-3.4167,-3.4455,-3.6028,-3.7912,-3.9825,-4.0096,-4.0096,-4.0096,-4.0096,-4.0096,-4.0096,-4.0096,-4.0096,-4.0096,-4.0096,-4.0096,-4.0096,-4.0096,-4.0096,-4.0096,-4.0096,-4.0096,-4.0096,-4.0096,-4.0096,-4.0096,-4.0096,-4.0096,-4.0096,-4.0096,-4.0096,-4.0096,-4.0096,-3.9731,-3.9139,-3.9139,-3.9516,-4.0096,-4.0096,-3.9172,-3.7793,-3.7793,-3.6829,-3.5504,0.0,-2.4492,-2.4847,-2.5964,-2.6776,-2.7791,-2.9279,-2.9178,-2.9617,-3.1512,-3.3372,-3.4392,-3.3981,-3.4324,-3.38,-3.1921,-2.9702,-2.7757,-2.6251,-2.4425,-2.3241,-2.2868,-2.2852,-2.3021,-2.3376,-2.3393,-2.3393,-2.3393,-2.3038,-2.2651,-2.2296,-2.2296,-2.2888,-2.3902,-2.319,-2.346,-2.4577,0.0,-2.7249,-2.9297,-3.2645,0.0,-4.0223,-4.1339,-4.2192,-4.2861,-4.2861,-4.2151,-4.0933,-3.9073,-3.7956,0.0,-3.3795,-3.3102,-3.2814,0.0,-3.0006,-3.0869,-2.9362,0.0,0.0,-2.9127,0.0,0.0,0.0,-2.6454,-2.659,-2.8095,-2.7486,-2.7604,-3.0632,-3.119,-3.1562,-3.2662,-3.4117,-3.5605,-3.7117,-3.8278,-3.8988,-3.8988,-3.9326,-3.9554,-3.9554,-3.9893,-4.0096,-4.0096,-4.0096,-4.0096,-4.0096,-4.0096,-4.0096,-4.0096,-4.0096,-4.0096,-4.0096,-4.0096,-4.0096,-4.0096,-4.0096,-4.0096,-4.0096,-4.0096,-4.0096,-4.007,-3.9662,-3.9289,-3.8881,-3.8497,-3.8596,-3.8941,-3.8941,-3.8246,-3.7203,-3.7203,-3.6477,-3.5504,0.0,-2.5186,-2.5896,-2.6759,-2.818,-2.9721,-3.1193,-3.1529,-3.2205,-3.3846,-3.5774,-3.6423,-3.4861,-3.6079,-3.5915,-3.3136,-3.1041,-2.9331,-2.8061,-2.5642,-2.4188,-2.4036,-2.319,-2.3274,-2.4474,-2.3325,-2.3173,-2.4085,-2.3038,-2.2431,-2.2296,-2.2296,-2.3327,-2.5152,-2.4239,0.0,0.0,0.0,0.0,-3.0939,0.0,-3.8447,-3.9504,-4.2006,-4.297,-4.3003,-4.3291,-4.2615,-4.1407,-3.9918,-3.9022,-3.8142,-3.5859,-3.5673,0.0,0.0,0.0,0.0,0.0,0.0,0.0,0.0,0.0,-2.9125,0.0,0.0,0.0,-2.8636,-2.7554,0.0,0.0,0.0,0.0,-3.0719,0.0,0.0,0.0,-3.5165,0.0,-3.7195,-3.8024,-3.8565,-3.8565,-3.886,-3.9199,-3.9656,-3.9402,-3.9436,-3.9859,-4.0028,-4.0096,-4.0096,-4.0096,-4.0096,-4.0096,-4.0096,-4.0096,-4.0096,-4.0096,-4.0096,-4.0096,-4.0096,-4.0096,-4.0045,-3.9262,-3.8827,-3.8635,-3.7876,-3.7501,-3.7383,-3.7677,-3.7308,-3.6615,-3.6615,-3.6134,-3.5504,-2.5355,-2.5541,-2.6032,-2.7435,-2.8939,-3.0463,-3.1955,-3.273,-3.3931,-3.6135,-3.7212,-3.8176,-3.9233,-3.8396,-3.8125,-3.9012,-3.5301,-3.2831,-3.2662,-2.9277,-2.7012,-2.6336,-2.4998,-2.4321,-2.4491,-2.4338,-2.3695,-2.255,-2.3038,-2.2936,-2.2296,-2.2296,-2.2769,-2.3697,-2.4847,0.0,0.0,0.0,-3.1952,0.0,-3.7364,-3.7172,0.0,-4.0104,-4.1457,-4.1627,-4.2919,-4.3291,-4.2902,0.0,-4.0899,-4.0443,0.0,-3.8024,-3.8142,-3.5785,0.0,0.0,0.0,0.0,0.0,0.0,-3.3457,0.0,0.0,0.0,-2.7943,-2.5625,0.0,0.0,0.0,0.0,0.0,0.0,0.0,0.0,-2.8737,-3.0531,-3.2679,-3.4641,-3.6186,-3.7049,-3.7049,-3.5898,-3.596,-3.8007,-3.6867,-3.6992,-3.9005,-3.9757,-4.0096,-4.0096,-4.0096,-4.0096,-4.0096,-4.0096,-4.0096,-4.0096,-4.0096,-4.0096,-4.0096,-4.0096,-4.0096,-4.0045,-3.9262,-3.8525,-3.7863,-3.7054,-3.6337,-3.591,-3.7265,-3.7308,-3.6615,-3.6615,-3.6134,-3.5504,-2.5456,-2.5592,0.0,-2.7536,-2.8331,-2.9548,-3.1938,-3.4776,-3.6992,-3.7963,-3.9089,-4.0054,-4.0663,-4.0189,-3.9901,0.0,-3.7601,-3.5453,-3.4117,-3.136,0.0,-2.8704,-2.7232,-2.6201,-2.5794,-2.4931,-2.4,-2.2936,-2.2818,-2.26,-2.2296,-2.2296,-2.3598,-2.5964,-2.659,0.0,-3.1052,0.0,-3.2205,0.0,0.0,-3.5284,0.0,-4.0899,-4.3166,-4.3234,-4.3859,-4.3809,-4.3156,-4.1711,-4.1204,0.0,0.0,0.0,0.0,-3.7483,0.0,0.0,0.0,0.0,0.0,0.0,0.0,0.0,-2.9059,0.0,-2.7571,0.0,0.0,0.0,0.0,0.0,0.0,0.0,-2.6674,0.0,0.0,0.0,-2.9583,-3.2256,0.0,-3.4053,-3.534,-3.4489,-3.4607,-3.6428,-3.5571,-3.596,-3.8244,-3.9056,-3.9673,-4.0096,-4.0096,-4.0096,-4.0096,-4.0096,-4.0096,-4.0096,-4.0096,-4.0096,-4.0096,-4.0096,-4.0096,-4.002,-3.8789,-3.8092,-3.769,-3.6477,-3.5782,-3.5554,-3.6196,-3.6243,-3.5943,-3.5943,-3.575,-3.5504,-2.5456,0.0,0.0,-2.73,-2.801,-2.9497,-3.2713,-3.6169,-3.8531,-3.8937,-3.9935,-4.0899,-4.1711,-4.1813,-4.1931,0.0,-4.0713,-3.8853,-3.6755,-3.4184,-3.2391,-3.1647,-2.9565,-2.8179,-2.7638,-2.598,-2.4541,-2.3393,-2.2868,-2.2699,-2.2902,-2.2699,-2.4342,-2.7536,-2.8365,-3.0579,-3.3694,0.0,-3.3914,-3.4641,-3.5622,-3.6214,-3.6992,-4.1813,-4.4073,-4.4615,-4.4615,-4.4215,-4.3538,-4.2252,-4.1813,-4.1593,-4.0307,-4.0121,-4.0172,0.0,0.0,0.0,-3.7862,0.0,0.0,0.0,0.0,0.0,0.0,0.0,0.0,0.0,0.0,0.0,0.0,0.0,0.0,0.0,0.0,-2.5761,0.0,-2.5761,0.0,0.0,0.0,0.0,-3.3406,-3.2357,-3.2442,-3.4539,-3.3643,-3.4235,-3.7127,-3.8176,-3.9039,-3.9791,-3.9994,-4.0096,-4.0096,-4.0096,-4.0096,-4.0096,-4.0096,-4.0096,-4.0096,-4.0096,-3.9978,-3.9705,-3.8374,-3.7661,-3.7368,-3.6053,-3.5504,-3.5504,-3.5504,-3.5504,-3.5504,-3.5504,-3.5504,-3.5504,-2.5456,-2.6167,0.0,-2.6725,-2.8569,-3.1255,-3.4923,-3.6282,-3.7388,-3.8802,-3.9039,-4.0155,-4.3003,-4.3325,-4.4491,-4.7382,-4.5635,-4.3735,-4.2134,-3.864,-3.6248,-3.5447,-3.1948,-3.0023,-2.9987,-2.7774,-2.5558,-2.3393,-2.3376,-2.3729,-2.4406,-2.3712,-2.456,-2.686,-2.9786,-3.2341,-3.4556,-3.6034,-3.9106,-4.2817,-4.0738,-4.166,-4.4039,-4.2066,-4.2675,-4.4615,-4.4615,-4.4581,-4.4445,-4.3623,-4.3325,-4.3217,-4.2422,-4.1711,-4.117,0.0,0.0,0.0,-3.9994,-3.9994,-3.8945,-3.4556,-3.3423,-3.2222,-2.7807,0.0,-2.9803,0.0,0.0,0.0,0.0,0.0,0.0,0.0,0.0,0.0,0.0,0.0,0.0,0.0,0.0,0.0,0.0,-2.8636,-2.8433,-3.2141,-3.0398,-3.1072,-3.543,-3.7127,-3.8278,-3.9005,-3.974,-4.0096,-4.0096,-4.0096,-4.0096,-4.0096,-4.0096,-4.0096,-4.0096,-4.0096,-3.9662,-3.8908,-3.8149,-3.7368,-3.6584,-3.5814,-3.5504,-3.5504,-3.5504,-3.5504,-3.5504,-3.5504,-3.5504,-3.5504,0.0,0.0,0.0,0.0,-2.774,-2.9987,-3.4235,-3.7212,-3.9698,-4.166,-4.2371,-4.3826,-4.6786,-4.7124,-4.7716,-4.9221,-4.8223,-4.6667,-4.4688,-4.1965,-4.0087,-3.9343,-3.6231,-3.4049,-3.3034,-3.0818,-2.8569,-2.6302,-2.5338,-2.5236,-2.5929,-2.4694,-2.5591,0.0,0.0,-3.3461,0.0,0.0,0.0,0.0,0.0,-4.1924,-4.453,-4.3752,-4.3938,-4.4615,-4.4615,-4.4615,-4.4564,-4.4282,-4.3842,-4.3341,-4.3115,-4.2523,-4.183,-4.1339,-4.1018,-4.0713,-4.0231,-4.0096,-3.9385,-3.6406,-3.4523,-3.2529,-2.9168,-2.929,-2.9793,0.0,0.0,0.0,0.0,0.0,0.0,0.0,0.0,0.0,0.0,0.0,0.0,0.0,0.0,0.0,0.0,0.0,-2.7656,-2.9941,-2.9416,-3.0736,-3.4658,-3.6315,-3.7719,-3.8954,-3.9723,-4.0096,-4.0096,-4.0096,-4.0096,-4.0096,-4.0096,-4.0096,-4.0096,-4.0096,-3.9662,-3.8854,-3.8121,-3.7338,-3.6554,-3.5814,-3.5504,-3.5504,-3.5504,-3.5504,-3.5504,-3.5504,-3.5504,-3.5504,-2.8247,0.0,-2.901,-2.774,-2.8789,-3.1055,-3.4742,-3.8481,-4.1508,-4.3172,-4.4553,-4.6426,-4.9103,-4.939,-4.9779,-5.0794,-5.0456,-4.89,-4.5906,-4.4823,-4.3487,-4.1677,-3.9766,-3.7929,-3.6129,-3.4184,-3.1681,-2.8618,-2.7672,-2.7317,0.0,0.0,0.0,0.0,0.0,-3.4049,-3.6569,-3.9605,-4.0747,0.0,0.0,-4.325,0.0,-4.4976,-4.4852,-4.4615,-4.4615,-4.4615,-4.4615,-4.4615,-4.4248,-4.3826,-4.3826,-4.3301,-4.2608,-4.2134,-4.1796,-4.1491,-4.1027,-4.0891,-4.0367,-3.8149,-3.6282,-3.425,-3.1412,-3.1426,-3.1732,-3.066,0.0,0.0,0.0,0.0,0.0,0.0,0.0,0.0,0.0,-2.2906,0.0,0.0,0.0,0.0,0.0,0.0,-2.637,-2.8416,-2.8333,-2.9687,-3.3136,-3.4996,-3.6677,-3.8159,-3.9199,-3.9842,-4.0096,-4.0096,-4.0096,-4.0096,-4.0096,-3.9952,-3.9662,-3.9662,-3.9086,-3.8044,-3.7587,-3.6919,-3.6165,-3.5701,-3.5504,-3.5504,-3.5504,-3.5504,-3.5504,-3.5504,-3.5504,-3.5504,-2.9382,-2.9753,-3.0125,-2.9501,-3.163,-3.4218,-3.6508,-3.9935,-4.2608,-4.347,-4.5551,-4.78,-5.0016,-5.0253,-5.0828,-5.2232,-5.2367,-5.0557,-4.6312,-4.7276,-4.643,-4.2828,-4.254,-4.1457,-3.9309,-3.7726,-3.4793,-3.0497,-3.026,0.0,0.0,0.0,0.0,0.0,-3.2408,0.0,-3.5887,-4.0358,-4.2743,-4.3629,-4.5162,-4.5754,-4.5754,-4.5754,-4.5314,-4.4699,-4.4632,-4.4615,-4.4615,-4.4615,-4.4615,-4.4615,-4.4615,-4.4079,-4.3443,-4.3409,-4.2912,-4.2337,-4.2303,-4.2286,-4.1796,-3.9681,-3.8531,-3.7138,-3.4226,-3.4626,-3.5386,-3.4626,-3.5178,-3.5959,0.0,0.0,0.0,0.0,0.0,0.0,0.0,0.0,0.0,0.0,0.0,0.0,0.0,0.0,-2.4678,-2.7486,-2.708,0.0,0.0,-3.322,-3.5137,-3.6745,-3.8186,-3.9277,-4.0028,-3.9995,-3.9995,-3.9995,-3.9995,-3.9584,-3.8854,-3.8854,-3.8015,-3.6615,-3.6615,-3.6165,-3.5504,-3.5504,-3.5504,-3.5504,-3.5504,-3.5504,-3.5504,-3.5504,-3.5504,-3.5504,-3.07,-3.2104,-3.366,-3.4629,-3.4493,-3.4979,-3.7263,-4.0273,-4.3166,-4.5602,-4.7868,-5.0101,-5.2384,-5.2638,-5.279,-5.3162,-5.3196,-5.2469,-5.0727,-4.9932,-4.9103,-4.8122,-4.5991,-4.4299,-4.3193,-4.0054,-3.7601,-3.591,0.0,0.0,-3.1413,0.0,0.0,0.0,0.0,0.0,-3.5853,-3.9817,-4.2895,-4.5196,-4.6143,-4.6515,-4.6515,-4.6515,-4.6397,-4.6075,-4.5004,-4.4615,-4.4615,-4.4615,-4.4615,-4.4615,-4.4615,-4.4479,-4.4164,-4.3589,-4.3284,-4.3014,-4.2439,-4.2286,-4.2151,-4.1576,-3.9665,-3.759,-3.6408,-3.5858,-3.5291,-3.4129,-3.5693,-3.6507,-3.4055,-3.3174,0.0,0.0,0.0,0.0,0.0,0.0,0.0,-2.4665,0.0,0.0,0.0,-2.4289,-2.5355,-2.61,-2.6505,-2.801,-3.1038,-3.2259,-3.407,-3.6728,-3.7653,-3.8453,-3.9193,-3.8652,-3.8374,-3.8374,-3.8374,-3.829,-3.8092,-3.8092,-3.7528,-3.6615,-3.6615,-3.6165,-3.5504,-3.5504,-3.5504,-3.5504,-3.5504,-3.5504,-3.5504,-3.5504,-3.5504,-3.5504,-3.278,-3.4709,-3.684,-3.8031,-3.8311,-3.8717,-3.9681,-4.1508,-4.3758,-4.6447,-4.8714,-5.0574,-5.186,-5.2909,-5.3501,-5.3501,-5.3501,-5.2892,-5.142,-5.1488,0.0,-4.9678,-4.8342,-4.7124,-4.6058,-4.2675,0.0,-3.8379,0.0,-3.2357,-3.1785,0.0,0.0,0.0,0.0,-3.4049,-3.5419,-3.9817,-4.325,-4.5771,-4.6498,-4.6989,0.0,-4.7293,-4.7073,-4.6684,-4.5867,-4.5348,-4.501,-4.4716,-4.4615,-4.4615,-4.4615,-4.4615,-4.4513,-4.4062,-4.3927,-4.3826,-4.3403,-4.3328,-4.3328,-4.3328,-4.1796,-4.0062,-3.9118,-3.7941,-3.6753,-3.5707,-3.5943,-3.6021,-3.5011,-3.3173,-3.0385,0.0,0.0,0.0,0.0,0.0,0.0,0.0,-2.3836,0.0,0.0,-2.3392,-2.4508,-2.5085,-2.5795,-2.7097,-2.911,-3.1193,-3.3376,-3.5729,-3.7133,-3.819,-3.8891,-3.8497,-3.8121,-3.7793,-3.7793,-3.7602,-3.7279,-3.7279,-3.6828,-3.6117,-3.6117,-3.5894,-3.5504,-3.5504,-3.5504,-3.5504,-3.5504,-3.5504,-3.5504,-3.5504,-3.5504,-3.5504,-3.5318,-3.7415,-3.9597,-4.0163,-4.2083,-4.3453,-4.3081,-4.3673,-4.4891,-4.6955,-4.9154,-5.0541,-5.0541,-5.2317,-5.3501,-5.3501,-5.3501,-5.2655,-5.0676,-5.2401,-5.2334,-4.9712,-5.0101,-4.9695,-4.824,-4.5235,-4.2269,0.0,-3.6163,-3.3457,-3.1157,0.0,0.0,0.0,0.0,0.0,0.0,-4.0493,-4.3859,-4.5923,-4.6752,-4.7479,-4.8024,-4.8024,-4.7665,-4.7073,-4.6972,-4.6464,-4.5737,-4.4976,-4.475,-4.4733,-4.4632,-4.4615,-4.4615,-4.4615,-4.4615,-4.4615,-4.4615,-4.4615,-4.4615,-4.4615,-4.3995,-4.302,-4.1555,-3.9997,-3.8652,-3.7823,-3.6114,-3.529,-3.6938,-3.3128,-2.8502,0.0,0.0,0.0,0.0,0.0,0.0,0.0,0.0,0.0,0.0,-2.2468,0.0,-2.4274,-2.4949,-2.5761,-2.6793,-2.9941,-3.2523,-3.4312,-3.6377,-3.7811,-3.8608,-3.8515,-3.8189,-3.7632,-3.7544,-3.713,-3.6477,-3.6477,-3.6117,-3.5504,-3.5504,-3.5504,-3.5504,-3.5504,-3.5504,-3.5504,-3.5504,-3.5504,-3.5504,-3.5504,-3.5504,-3.5504,-3.8142,-4.0104,-4.1559,-4.1085,-4.2878,-4.4959,-4.6667,-4.7564,-4.8376,-4.9373,-5.1488,-5.2909,-5.2909,-5.3264,-5.3501,-5.3501,-5.3501,-5.3331,-5.2942,-5.3281,-5.3264,-5.2739,-5.2198,-5.1217,-4.9746,-4.6819,-4.3826,-4.0815,-3.7195,-3.3964,-3.1173,0.0,0.0,0.0,0.0,0.0,-3.9335,-4.2743,0.0,-4.6718,-4.8071,-4.8697,-4.8815,-4.8815,-4.8731,-4.8528,-4.7936,-4.7242,-4.6481,-4.5754,-4.5517,-4.5399,-4.4801,-4.4615,-4.4615,-4.4615,-4.4615,-4.4615,-4.4615,-4.4615,-4.4615,-4.4615,-4.3995,-4.3002,-4.156,-4.0001,-3.8504,-3.7097,-3.6502,-3.5844,-3.4501,-3.2117,-2.9774,0.0,0.0,0.0,0.0,0.0,0.0,0.0,0.0,-2.4676,0.0,0.0,0.0,0.0,0.0,-2.4898,-2.7469,-2.8229,-3.0163,-3.3568,-3.4551,-3.5712,-3.7146,-3.6443,-3.6352,-3.6783,-3.618,-3.5814,-3.5701,-3.5701,-3.5619,-3.5504,-3.5504,-3.5504,-3.5504,-3.5504,-3.5504,-3.5504,-3.5504,-3.5504,-3.5504,-3.5504,-3.5504,-3.5504,-4.2252,-4.3014,-4.3606,-4.4028,-4.5635,-4.7361,-4.8815,-5.0355,-5.1048,-5.0202,-5.1048,-5.1742,-5.1742,-5.279,-5.3501,-5.3501,-5.3501,-5.3501,-5.3501,-5.3501,-5.3501,-5.3501,-5.2739,-5.1961,-5.1251,-4.8359,-4.5568,-4.2946,-3.843,-3.4692,-3.1752,-3.0632,0.0,0.0,0.0,-3.591,0.0,0.0,-4.484,-4.6363,-4.7851,-4.8663,-4.9001,-4.9001,-4.9001,-4.8951,-4.8612,-4.824,-4.7767,-4.665,-4.6024,-4.5652,-4.528,-4.4891,-4.4615,-4.4615,-4.4615,-4.4615,-4.4615,-4.4615,-4.4615,-4.4615,-4.4327,-4.3624,-4.2116,-4.059,-3.9024,-3.7543,-3.6585,-3.5502,-3.3816,-3.2153,-3.0688,-2.9744,-2.8188,0.0,0.0,0.0,0.0,0.0,0.0,0.0,0.0,0.0,0.0,0.0,0.0,-2.401,-2.6216,-2.7131,-2.9239,-3.2817,-3.3991,-3.5077,-3.6177,-3.6122,-3.6054,-3.6038,-3.5668,-3.5504,-3.5504,-3.5504,-3.5504,-3.5504,-3.5504,-3.5504,-3.5504,-3.5504,-3.5504,-3.5504,-3.5504,-3.5504,-3.5504,-3.5504,-3.5504,-3.5504,-4.5703,-4.572,-4.5838,-4.6853,-4.8376,-4.9661,-5.0253,-5.2266,-5.3027,-5.1065,-5.0811,-5.0811,-5.0811,-5.2418,-5.3501,-5.3501,-5.3501,-5.3501,-5.3501,-5.3501,-5.3501,-5.3501,-5.2892,-5.2469,-5.23,-4.9729,-4.7124,-4.4598,-3.9994,-3.6034,-3.275,0.0,0.0,0.0,0.0,-3.7371,-4.0722,-4.2946,-4.479,-4.6295,-4.7584,-4.8494,-4.9001,-4.9001,-4.9001,-4.9001,-4.9001,-4.9001,-4.8832,-4.7665,-4.6786,-4.6143,-4.5991,-4.5432,-4.4852,-4.4852,-4.4733,-4.4542,-4.4384,-4.4457,-4.4542,-4.4355,-4.431,-4.3895,-4.221,-4.0733,-3.9257,-3.7638,-3.6352,-3.51,-3.3739,-3.2886,-3.1989,-3.0896,-2.9549,0.0,0.0,0.0,0.0,0.0,0.0,0.0,-2.1948,0.0,0.0,0.0,0.0,-2.3226,-2.4952,-2.6102,-2.8262,-3.1638,-3.3203,-3.4367,-3.513,-3.5952,-3.6134,-3.5718,-3.5587,-3.5504,-3.5504,-3.5504,-3.5504,-3.5504,-3.5504,-3.5504,-3.5504,-3.5504,-3.5504,-3.5504,-3.5504,-3.5504,-3.5504,-3.5504,-3.5504,-3.5504,-4.6667,-4.7716,-4.8426,-4.7902,-4.9562,-5.1031,-5.1099,-5.3027,-5.4177,-5.3298,-5.3179,-5.3179,-5.3179,-5.3365,-5.3501,-5.3501,-5.3501,-5.3501,-5.3501,-5.3501,-5.3501,-5.3501,-5.3433,-5.3061,-5.2317,-5.071,-4.8122,-4.4519,-4.2016,-3.8565,-3.4269,-3.3474,-3.3372,-3.3998,-3.7161,-3.9884,-4.2236,-4.4519,-4.6346,-4.7753,-4.8578,-4.8951,-4.9001,-4.9001,-4.9001,-4.9001,-4.9001,-4.9001,-4.8984,-4.8849,-4.8308,-4.7597,-4.6904,-4.6194,-4.5602,-4.5602,-4.5111,-4.4412,-4.3621,-4.4006,-4.4412,-4.3621,-4.3426,-4.2851,-4.0704,-3.9501,-3.8209,-3.615,-3.5587,-3.51,-3.3739,-3.4397,-3.4322,-3.1809,-3.175,-3.1839,0.0,0.0,-2.8128,0.0,0.0,0.0,0.0,-2.2146,0.0,0.0,-2.1569,-2.272,-2.5056,-2.4746,-2.607,-2.9473,-3.0964,-3.2352,-3.3693,-3.4972,-3.5894,-3.6492,-3.5814,-3.5504,-3.5504,-3.5504,-3.5504,-3.5504,-3.5504,-3.5504,-3.5504,-3.5504,-3.5504,-3.5504,-3.5504,-3.5504,-3.5504,-3.5504,-3.5504,-3.5504,-4.9441,-4.9204,-4.9492,-5.1014,-5.1251,-5.1826,-5.3602,-5.4685,-5.5158,-5.4871,-5.4448,-5.416,-5.416,-5.3771,-5.3501,-5.3501,-5.3501,-5.3501,-5.3501,-5.3501,-5.3501,-5.3501,-5.3501,-5.3348,-5.3027,-5.1961,-5.0033,-4.7208,-4.4062,-4.0713,-3.7178,-3.5977,-3.6535,-3.8565,-3.9783,-4.1813,-4.4434,-4.5788,-4.7208,-4.8629,-4.9357,-4.9661,-4.9661,-4.9661,-4.939,-4.9001,-4.9001,-4.9001,-4.9001,-4.9001,-4.8528,-4.7838,-4.7564,-4.6955,-4.6363,-4.6363,-4.5838,-4.5058,-4.4208,-4.3876,-4.3756,-4.3396,-4.2909,-4.221,-4.102,-3.9671,-3.8209,-3.6503,-3.5814,-3.534,-3.4801,-3.4472,-3.4218,-3.3948,-3.2766,-3.2079,0.0,0.0,0.0,0.0,0.0,0.0,0.0,-2.2528,0.0,0.0,0.0,-2.1638,-2.3544,-2.3771,-2.4994,-2.7554,-3.0129,-3.1731,-3.2284,-3.4437,-3.5636,-3.5958,-3.5636,-3.5504,-3.5504,-3.5504,-3.5504,-3.5504,-3.5504,-3.5504,-3.5504,-3.5504,-3.5504,-3.5504,-3.5504,-3.5504,-3.5504,-3.5504,-3.5504,-3.5504,-5.2114,-5.1369,-5.1386,-5.3737,-5.3264,-5.323,-5.536,-5.5902,-5.6038,-5.6038,-5.5581,-5.5158,-5.4955,-5.4262,-5.3822,-5.3822,-5.3636,-5.3501,-5.3501,-5.3501,-5.3501,-5.3501,-5.3501,-5.3501,-5.3501,-5.2706,-5.1437,-4.9661,-4.6566,-4.3656,-4.0933,-3.969,-4.0214,-4.2236,-4.2878,-4.4485,-4.6735,-4.7462,-4.8494,-4.9695,-5.0202,-5.0422,-5.0422,-5.0422,-5.0101,-4.9627,-4.9407,-4.9323,-4.9289,-4.9069,-4.8663,-4.821,-4.821,-4.7733,-4.7124,-4.7124,-4.6599,-4.5782,-4.4688,-4.4028,-4.3493,-4.3035,-4.2252,-4.1453,-4.0875,-3.9472,-3.7933,-3.6551,-3.5863,-3.5504,-3.5504,-3.4726,-3.4262,-3.4816,-3.3499,-3.2527,0.0,-3.115,0.0,0.0,-2.6662,-2.4918,-2.3999,-2.2985,0.0,0.0,-2.2202,-2.2133,-2.3418,-2.3549,-2.4736,-2.7249,-3.0053,-3.1672,-3.204,-3.4325,-3.5504,-3.5504,-3.5504,-3.5504,-3.5504,-3.5504,-3.5504,-3.5504,-3.5504,-3.5504,-3.5504,-3.5504,-3.5504,-3.5504,-3.5504,-3.5504,-3.5504,-3.5504,-3.5504,-3.5504,-5.4245,-5.4532,-5.4769,-5.5547,-5.5647,-5.5647,-5.5681,-5.6325,-5.6799,-5.6799,-5.6782,-5.6511,-5.5784,-5.5023,-5.4583,-5.4583,-5.3923,-5.3501,-5.3501,-5.3501,-5.3501,-5.3501,-5.3501,-5.3501,-5.3501,-5.2706,-5.1944,-5.1183,-4.9678,-4.78,-4.5602,-4.484,-4.453,-4.4649,-4.6853,-4.8227,-4.9018,-4.9746,-5.049,-5.1183,-5.1168,-5.12,-5.12,-5.12,-5.1168,-5.1099,-5.0338,-5.0084,-4.9965,-4.9255,-4.9001,-4.8984,-4.8984,-4.8494,-4.7872,-4.7872,-4.7361,-4.6452,-4.4821,-4.4391,-4.4009,-4.243,-4.1379,-4.0538,-3.9874,-3.854,-3.7045,-3.5774,-3.5504,-3.5504,-3.5504,-3.5489,-3.5055,-3.3739,-3.4038,-3.3769,-3.1795,-3.0941,0.0,-2.8757,-2.6234,-2.4605,-2.459,-2.343,0.0,0.0,-2.456,-2.4866,-2.5525,-2.4313,-2.5342,-2.9166,-3.0724,-3.2084,-3.3269,-3.4769,-3.5504,-3.5504,-3.5504,-3.5504,-3.5504,-3.5504,-3.5504,-3.5504,-3.5504,-3.5504,-3.5504,-3.5504,-3.5504,-3.5504,-3.5504,-3.5504,-3.5504,-3.5504,-3.5504,-3.5504,-5.526,-5.5361,-5.5581,-5.6325,-5.6461,-5.663,-5.712,-5.7391,-5.7543,-5.7543,-5.7543,-5.7459,-5.7222,-5.6089,-5.5361,-5.5361,-5.4685,-5.4245,-5.4245,-5.3788,-5.3501,-5.3501,-5.3501,-5.3501,-5.3501,-5.3247,-5.2739,-5.1961,-5.0473,-4.8866,-4.7179,-4.6972,-4.7394,-4.8359,-4.9086,-4.9813,-5.0524,-5.076,-5.1285,-5.1961,-5.1961,-5.1961,-5.1961,-5.1961,-5.1657,-5.1183,-5.0947,-5.0524,-5.005,-4.9813,-4.9424,-4.9001,-4.9001,-4.8849,-4.8663,-4.8663,-4.7689,-4.6347,-4.5244,-4.3773,-4.244,-4.193,-4.0801,-3.9788,-3.9704,-3.8187,-3.6537,-3.5684,-3.5504,-3.5504,-3.5504,-3.5504,-3.537,-3.4936,-3.4277,-3.3589,-3.2961,0.0,-2.9729,-2.9325,-2.732,-2.5959,-2.5959,-2.5181,-2.4657,-2.4605,-2.4171,-2.4201,-2.4874,-2.5809,-2.6669,-2.7442,-3.0531,-3.2391,-3.2763,-3.4596,-3.5504,-3.5504,-3.5504,-3.5504,-3.5504,-3.5504,-3.5504,-3.5504,-3.5504,-3.5504,-3.5504,-3.5504,-3.5504,-3.5504,-3.5504,-3.5504,-3.5504,-3.5504,-3.5504,-3.5504,-5.6478,-5.6528,-5.6681,-5.712,-5.7205,-5.7357,-5.7814,-5.7881,-5.7881,-5.7881,-5.7881,-5.7881,-5.7881,-5.707,-5.6427,-5.6156,-5.5446,-5.5006,-5.5006,-5.4313,-5.3907,-5.3907,-5.3653,-5.3501,-5.3501,-5.3501,-5.3264,-5.2756,-5.1522,-5.0456,-4.956,-4.956,-5.005,-5.093,-5.1234,-5.1623,-5.208,-5.208,-5.2334,-5.2756,-5.2756,-5.2756,-5.2756,-5.2756,-5.2469,-5.2029,-5.1725,-5.1319,-5.0879,-5.0608,-5.0219,-4.9796,-4.9509,-4.9407,-4.9357,-4.9086,-4.802,-4.6733,-4.5909,-4.3942,-4.2054,-4.1771,-4.0543,-3.9373,-3.9226,-3.7982,-3.6641,-3.6013,-3.5684,-3.5504,-3.5504,-3.5504,-3.5504,-3.5504,-3.4367,-3.3499,-3.3499,-3.1435,-2.9849,0.0,0.0,-2.7245,-2.7001,-2.7036,-2.6931,-2.6503,-2.6767,-2.7036,-2.7191,-2.744,-2.7974,-2.8786,-3.1704,-3.338,-3.3634,-3.4876,-3.5504,-3.5504,-3.5504,-3.5504,-3.5504,-3.5504,-3.5504,-3.5504,-3.5504,-3.5504,-3.5504,-3.5504,-3.5504,-3.5504,-3.5504,-3.5504,-3.5504,-3.5504,-3.5504,-3.5504,-5.7763,-5.7881,-5.7881,-5.7881,-5.7881,-5.7881,-5.7881,-5.7881,-5.7881,-5.7881,-5.7881,-5.7881,-5.7881,-5.7881,-5.7611,-5.6934,-5.6207,-5.5801,-5.5801,-5.5091,-5.4634,-5.4583,-5.394,-5.3551,-5.3501,-5.3501,-5.3501,-5.3501,-5.2756,-5.2384,-5.2384,-5.2384,-5.2384,-5.2418,-5.3179,-5.3501,-5.3501,-5.3501,-5.3501,-5.3501,-5.3501,-5.3501,-5.3501,-5.3501,-5.3501,-5.3399,-5.2655,-5.235,-5.2198,-5.1522,-5.1251,-5.1067,-5.0325,-5.0023,-4.9869,-4.919,-4.8338,-4.7441,-4.6684,-4.4701,-4.2678,-4.1886,-4.0538,-3.923,-3.8542,-3.7913,-3.7285,-3.6626,-3.5998,-3.5564,-3.5519,-3.5504,-3.5504,-3.5504,-3.4367,-3.3499,-3.3499,-3.1809,-3.0357,-2.9789,-2.9175,-2.8547,-2.7929,-2.9007,-2.9711,-2.9621,-3.1315,-3.2079,-3.1466,-2.9205,-2.934,-3.2482,-3.3814,-3.4801,-3.5489,-3.5504,-3.5504,-3.5504,-3.5504,-3.5504,-3.5504,-3.5504,-3.5504,-3.5504,-3.5504,-3.5504,-3.5504,-3.5504,-3.5504,-3.5504,-3.5504,-3.5504,-3.5504,-3.5504,-3.5504,-3.5504,-5.7865,-5.7881,-5.7881,-5.7881,-5.7881,-5.7881,-5.7881,-5.7881,-5.7881,-5.7881,-5.7881,-5.7881,-5.7881,-5.7881,-5.7814,-5.7645,-5.6968,-5.6545,-5.6545,-5.5869,-5.5192,-5.4617,-5.4431,-5.4076,-5.3518,-5.3501,-5.3501,-5.3501,-5.3315,-5.3213,-5.3213,-5.3213,-5.3213,-5.323,-5.3416,-5.3501,-5.3501,-5.3501,-5.3501,-5.3501,-5.3501,-5.3501,-5.3501,-5.3501,-5.3501,-5.3484,-5.3281,-5.2824,-5.2283,-5.2097,-5.1674,-5.1054,-5.0092,-4.9442,-4.9044,-4.9017,-4.8338,-4.7407,-4.6502,-4.493,-4.321,-4.1826,-4.0409,-3.923,-3.8542,-3.8272,-3.7838,-3.6716,-3.6357,-3.6103,-3.5594,-3.5504,-3.5504,-3.5504,-3.4367,-3.3499,-3.3499,-3.2228,-3.1212,-3.1062,-3.0913,-3.0748,-3.0584,-3.0853,-3.0657,-2.9654,-3.0447,-3.0911,-3.0761,-3.1135,-3.1928,-3.3215,-3.4084,-3.4801,-3.5489,-3.5504,-3.5504,-3.5504,-3.5504,-3.5504,-3.5504,-3.5504,-3.5504,-3.5504,-3.5504,-3.5504,-3.5504,-3.5504,-3.5504,-3.5504,-3.5504,-3.5504,-3.5504,-3.5504,-3.5504,-3.5504,-5.7881,-5.7881,-5.7881,-5.7881,-5.7881,-5.7881,-5.7881,-5.7881,-5.7881,-5.7881,-5.7881,-5.7881,-5.7881,-5.7881,-5.7881,-5.7881,-5.7526,-5.7289,-5.7289,-5.6613,-5.6021,-5.5615,-5.5277,-5.4769,-5.4008,-5.3991,-5.3839,-5.3501,-5.3501,-5.3501,-5.3501,-5.3501,-5.3501,-5.3501,-5.3501,-5.3501,-5.3501,-5.3501,-5.3501,-5.3501,-5.3501,-5.3501,-5.3501,-5.3501,-5.3501,-5.3501,-5.3501,-5.323,-5.2858,-5.2858,-5.2587,-5.2016,-5.0651,-4.9943,-4.9516,-4.8809,-4.7814,-4.685,-4.6349,-4.504,-4.3343,-4.1407,-4.0397,-3.9694,-3.902,-3.8616,-3.8182,-3.7494,-3.6896,-3.6372,-3.6013,-3.5714,-3.54,-3.5085,-3.4158,-3.338,-3.3095,-3.2437,-3.1959,-3.1959,-3.2213,-3.2392,-3.2392,-3.2706,-3.2467,-3.145,-3.2243,-3.2647,-3.2332,-3.332,-3.3903,-3.3948,-3.4607,-3.513,-3.5504,-3.5504,-3.5504,-3.5504,-3.5504,-3.5504,-3.5504,-3.5504,-3.5504,-3.5504,-3.5504,-3.5504,-3.5504,-3.5504,-3.5504,-3.5504,-3.5504,-3.5504,-3.5504,-3.5504,-3.5504,-3.5504,-5.7881,-5.7881,-5.7881,-5.7881,-5.7881,-5.7881,-5.7881,-5.7881,-5.7881,-5.7881,-5.7881,-5.7881,-5.7881,-5.7881,-5.7881,-5.7881,-5.7881,-5.7881,-5.7881,-5.7306,-5.6917,-5.6799,-5.6207,-5.553,-5.4769,-5.4651,-5.4228,-5.3501,-5.3501,-5.3501,-5.3501,-5.3501,-5.3501,-5.3501,-5.3501,-5.3501,-5.3501,-5.3501,-5.3501,-5.3501,-5.3501,-5.3501,-5.3501,-5.3501,-5.3501,-5.3501,-5.3501,-5.3501,-5.3467,-5.3314,-5.3382,-5.3163,-5.1144,-5.0527,-5.0242,-4.8552,-4.713,-4.612,-4.612,-4.4867,-4.3128,-4.1174,-4.0546,-4.0247,-3.9694,-3.9035,-3.8512,-3.8407,-3.7524,-3.6716,-3.6522,-3.6028,-3.54,-3.4638,-3.4008,-3.338,-3.2617,-3.2677,-3.2766,-3.2677,-3.3335,-3.3799,-3.3799,-3.4249,-3.4324,-3.3829,-3.4756,-3.513,-3.4698,-3.519,-3.5235,-3.4683,-3.519,-3.5504,-3.5504,-3.5504,-3.5504,-3.5504,-3.5504,-3.5504,-3.5504,-3.5504,-3.5504,-3.5504,-3.5504,-3.5504,-3.5504,-3.5504,-3.5504,-3.5504,-3.5504,-3.5504,-3.5504,-3.5504,-3.5504,-3.5504,-5.7881,-5.7881,-5.7881,-5.7881,-5.7881,-5.7881,-5.7881,-5.7881,-5.7881,-5.7881,-5.7881,-5.7881,-5.7881,-5.7881,-5.7881,-5.7881,-5.7881,-5.7881,-5.7881,-5.778,-5.7442,-5.6833,-5.6697,-5.6292,-5.5564,-5.4921,-5.4228,-5.3501,-5.3501,-5.3501,-5.3501,-5.3501,-5.3501,-5.3501,-5.3501,-5.3501,-5.3501,-5.3501,-5.3501,-5.3501,-5.3501,-5.3501,-5.3501,-5.3501,-5.3501,-5.3501,-5.3501,-5.3501,-5.3348,-5.2435,-5.2749,-5.2973,-5.006,-4.9328,-4.9368,-4.8122,-4.6812,-4.5792,-4.5792,-4.4243,-4.2528,-4.2179,-4.122,-4.0367,-4.0277,-3.9738,-3.9095,-3.8512,-3.8227,-3.7764,-3.6686,-3.6402,-3.5923,-3.4713,-3.4414,-3.3903,-3.2677,-3.3469,-3.3994,-3.341,-3.4442,-3.519,-3.519,-3.4756,-3.4681,-3.516,-3.4846,-3.4846,-3.5325,-3.5444,-3.5459,-3.5355,-3.5444,-3.5504,-3.5504,-3.5504,-3.5504,-3.5504,-3.5504,-3.5504,-3.5504,-3.5504,-3.5504,-3.5504,-3.5504,-3.5504,-3.5504,-3.5504,-3.5504,-3.5504,-3.5504,-3.5504,-3.5504,-3.5504,-3.5504,-3.5504,-5.7881,-5.7881,-5.7881,-5.7881,-5.7881,-5.7881,-5.7881,-5.7881,-5.7881,-5.7881,-5.7881,-5.7881,-5.7881,-5.7881,-5.7881,-5.7881,-5.7881,-5.7881,-5.7881,-5.7881,-5.7746,-5.7408,-5.7391,-5.7053,-5.6325,-5.5581,-5.4837,-5.4093,-5.4093,-5.389,-5.3501,-5.3501,-5.3501,-5.3501,-5.3501,-5.3501,-5.3501,-5.3501,-5.3501,-5.3501,-5.3501,-5.3501,-5.3501,-5.3501,-5.3501,-5.3501,-5.3501,-5.3501,-5.3348,-5.2277,-5.2241,-5.2205,-4.9599,-4.8916,-4.885,-4.7793,-4.6649,-4.5619,-4.5301,-4.4066,-4.2806,-4.2485,-4.1946,-4.1265,-4.0561,-4.0172,-3.9753,-3.908,-3.8646,-3.8212,-3.7614,-3.6956,-3.6163,-3.519,-3.4758,-3.4174,-3.3185,-3.3873,-3.4399,-3.4099,-3.4891,-3.5504,-3.5504,-3.522,-3.516,-3.5489,-3.5205,-3.5175,-3.5489,-3.5504,-3.5504,-3.5504,-3.5504,-3.5504,-3.5504,-3.5504,-3.5504,-3.5504,-3.5504,-3.5504,-3.5504,-3.5504,-3.5504,-3.5504,-3.5504,-3.5504,-3.5504,-3.5504,-3.5504,-3.5504,-3.5504,-3.5504,-3.5504,-3.5504,-3.5504,-3.5504,-5.7881,-5.7881,-5.7881,-5.7881,-5.7881,-5.7881,-5.7881,-5.7881,-5.7881,-5.7881,-5.7881,-5.7881,-5.7881,-5.7881,-5.7881,-5.7881,-5.7881,-5.7881,-5.7881,-5.7881,-5.7881,-5.7881,-5.7881,-5.7543,-5.6816,-5.6258,-5.5598,-5.4854,-5.4854,-5.4482,-5.3754,-5.3754,-5.367,-5.3501,-5.3501,-5.3501,-5.3501,-5.3501,-5.3501,-5.3501,-5.3501,-5.3501,-5.3501,-5.3501,-5.3501,-5.3501,-5.3501,-5.3501,-5.3314,-5.201,-5.1724,-5.1488,-4.9175,-4.8594,-4.8594,-4.7609,-4.6596,-4.5733,-4.5147,-4.4173,-4.317,-4.2701,-4.2515,-4.2126,-4.1085,-4.0621,-4.0247,-3.9753,-3.911,-3.8571,-3.8422,-3.7584,-3.6611,-3.5669,-3.519,-3.4607,-3.3634,-3.4203,-3.4651,-3.4533,-3.5085,-3.5504,-3.5504,-3.5504,-3.5504,-3.5504,-3.5504,-3.5504,-3.5504,-3.5504,-3.5504,-3.5504,-3.5504,-3.5504,-3.5504,-3.5504,-3.5504,-3.5504,-3.5504,-3.5504,-3.5504,-3.5504,-3.5504,-3.5504,-3.5504,-3.5504,-3.5504,-3.5504,-3.5504,-3.5504,-3.5504,-3.5504,-3.5504,-3.5504,-3.5504,-3.5504,-5.7881,-5.7881,-5.7881,-5.7881,-5.7881,-5.7881,-5.7881,-5.7881,-5.7881,-5.7881,-5.7881,-5.7881,-5.7881,-5.7881,-5.7881,-5.7881,-5.7881,-5.7881,-5.7881,-5.7881,-5.7881,-5.7881,-5.7881,-5.7543,-5.6816,-5.6748,-5.6376,-5.5632,-5.5632,-5.5243,-5.4515,-5.4515,-5.4143,-5.3501,-5.3501,-5.3501,-5.3501,-5.3501,-5.3501,-5.3501,-5.3501,-5.3501,-5.3501,-5.3501,-5.3501,-5.3501,-5.3501,-5.3501,-5.3195,-5.1171,-5.1117,-5.1377,-4.835,-4.8072,-4.8594,-4.7609,-4.6798,-4.615,-4.5772,-4.4484,-4.329,-4.323,-4.2806,-4.2366,-4.2276,-4.1265,-4.0382,-4.0337,-3.9798,-3.9155,-3.8497,-3.8317,-3.7644,-3.5804,-3.5968,-3.5669,-3.3769,-3.4607,-3.519,-3.4578,-3.5085,-3.5504,-3.5504,-3.5504,-3.5504,-3.5504,-3.5504,-3.5504,-3.5504,-3.5504,-3.5504,-3.5504,-3.5504,-3.5504,-3.5504,-3.5504,-3.5504,-3.5504,-3.5504,-3.5504,-3.5504,-3.5504,-3.5504,-3.5504,-3.5504,-3.5504,-3.5504,-3.5504,-3.5504,-3.5504,-3.5504,-3.5504,-3.5504,-3.5504,-3.5504,-3.5504,-5.7881,-5.7881,-5.7881,-5.7881,-5.7881,-5.7881,-5.7881,-5.7881,-5.7881,-5.7881,-5.7881,-5.7881,-5.7881,-5.7881,-5.7881,-5.7881,-5.7881,-5.7881,-5.7881,-5.7881,-5.7881,-5.7881,-5.7881,-5.7763,-5.7492,-5.7476,-5.712,-5.6393,-5.6393,-5.6004,-5.5294,-5.5294,-5.4888,-5.4177,-5.4177,-5.3923,-5.3501,-5.3501,-5.3501,-5.3501,-5.3501,-5.3501,-5.3501,-5.3501,-5.3501,-5.3501,-5.3501,-5.3501,-5.3195,-5.1096,-5.0665,-5.055,-4.8088,-4.7581,-4.7792,-4.7424,-4.6845,-4.6286,-4.6105,-4.5021,-4.3798,-4.3394,-4.315,-4.2865,-4.25,-4.2006,-4.1422,-4.0561,-4.0202,-3.9828,-3.9155,-3.8676,-3.8153,-3.7419,-3.7165,-3.6791,-3.6028,-3.6372,-3.6447,-3.5836,-3.5953,-3.5953,-3.5549,-3.5504,-3.5504,-3.5504,-3.5504,-3.5504,-3.5504,-3.5504,-3.5504,-3.5504,-3.5504,-3.5504,-3.5504,-3.5504,-3.5504,-3.5504,-3.5504,-3.5504,-3.5504,-3.5504,-3.5504,-3.5504,-3.5504,-3.5504,-3.5504,-3.5504,-3.5504,-3.5504,-3.5504,-3.5504,-3.5504,-3.5504,-3.5504,-3.5504,-5.8287,-5.8254,-5.8169,-5.7932,-5.7881,-5.7881,-5.7881,-5.7881,-5.7881,-5.7881,-5.7881,-5.7881,-5.7881,-5.7881,-5.7881,-5.7881,-5.7881,-5.7881,-5.7881,-5.7881,-5.7881,-5.7881,-5.7881,-5.7881,-5.7881,-5.7881,-5.7645,-5.7154,-5.7154,-5.6765,-5.6055,-5.6055,-5.5666,-5.4955,-5.4955,-5.4532,-5.3856,-5.3856,-5.3721,-5.3501,-5.3501,-5.3314,-5.299,-5.299,-5.299,-5.299,-5.299,-5.3213,-5.3195,-5.1096,-5.0397,-5.0025,-4.7976,-4.7309,-4.7309,-4.7309,-4.698,-4.6591,-4.6339,-4.5648,-4.4736,-4.3813,-4.3439,-4.317,-4.2776,-4.2545,-4.2141,-4.1205,-4.0681,-4.0262,-3.9813,-3.917,-3.8646,-3.8422,-3.8003,-3.7644,-3.7434,-3.7404,-3.7255,-3.6821,-3.6776,-3.6596,-3.6148,-3.6103,-3.6103,-3.6103,-3.6103,-3.6103,-3.6103,-3.6103,-3.6103,-3.6103,-3.6103,-3.6103,-3.6103,-3.5714,-3.5504,-3.5504,-3.5714,-3.5699,-3.5519,-3.5714,-3.5804,-3.5804,-3.5594,-3.5624,-3.5804,-3.5594,-3.5504,-3.5504,-3.5504,-3.5504,-3.5504,-3.5504,-3.5504,-3.5504,-5.9167,-5.9015,-5.8778,-5.8034,-5.7881,-5.7881,-5.7881,-5.7881,-5.7881,-5.7881,-5.7881,-5.7881,-5.7881,-5.7881,-5.7881,-5.7881,-5.7881,-5.7881,-5.7881,-5.7881,-5.7881,-5.7881,-5.7881,-5.7881,-5.7881,-5.7881,-5.7881,-5.7881,-5.7881,-5.7526,-5.6816,-5.6816,-5.6427,-5.5733,-5.5733,-5.531,-5.46,-5.46,-5.4177,-5.3518,-5.3518,-5.287,-5.1921,-5.1885,-5.1885,-5.1885,-5.1885,-5.2592,-5.3161,-5.1096,-5.0397,-5.0025,-4.7976,-4.7309,-4.7309,-4.7309,-4.7309,-4.716,-4.6516,-4.6279,-4.5965,-4.4646,-4.3783,-4.3305,-4.329,-4.2836,-4.241,-4.2396,-4.1324,-4.0412,-4.0397,-3.9873,-3.92,-3.8512,-3.8407,-3.8167,-3.7524,-3.7419,-3.7419,-3.7419,-3.7419,-3.7419,-3.7404,-3.7404,-3.7404,-3.7404,-3.7404,-3.7404,-3.7404,-3.7404,-3.7404,-3.7404,-3.7404,-3.7404,-3.7404,-3.6148,-3.5519,-3.5534,-3.6178,-3.6148,-3.5549,-3.6193,-3.6492,-3.6462,-3.5804,-3.5893,-3.6447,-3.5789,-3.5519,-3.5519,-3.5519,-3.5504,-3.5504,-3.5504,-3.5504,-3.5504,-5.9827,-5.937,-5.8947,-5.8727,-5.8237,-5.7881,-5.7881,-5.7881,-5.7881,-5.7881,-5.7881,-5.7881,-5.7881,-5.7881,-5.7881,-5.7881,-5.7881,-5.7881,-5.7881,-5.7881,-5.7881,-5.7881,-5.7881,-5.7881,-5.7881,-5.7881,-5.7881,-5.7881,-5.7881,-5.778,-5.756,-5.756,-5.7171,-5.6478,-5.6478,-5.6072,-5.5378,-5.5378,-5.4955,-5.4228,-5.3449,-5.2636,-5.1832,-5.1117,-5.0855,-5.0855,-5.0855,-5.1521,-5.2046,-4.9993,-4.9773,-5.0025,-4.7976,-4.7309,-4.7309,-4.7309,-4.7309,-4.7264,-4.707,-4.6681,-4.5965,-4.4646,-4.4167,-4.3898,-4.3409,-4.314,-4.291,-4.25,-4.2096,-4.1527,-4.0561,-4.0247,-3.9888,-3.9215,-3.911,-3.905,-3.882,-3.8811,-3.8646,-3.8153,-3.8093,-3.7913,-3.7464,-3.7404,-3.7404,-3.7404,-3.7404,-3.7404,-3.7404,-3.7404,-3.7404,-3.7404,-3.7404,-3.7404,-3.7404,-3.703,-3.6836,-3.6851,-3.7045,-3.703,-3.6851,-3.7045,-3.7135,-3.712,-3.6926,-3.6956,-3.712,-3.6926,-3.6582,-3.6193,-3.6193,-3.5908,-3.5504,-3.5504,-3.5504,-3.5504,-6.0639,-6.0233,-5.9725,-5.9116,-5.8643,-5.8237,-5.7932,-5.7881,-5.7881,-5.7881,-5.7881,-5.7881,-5.7881,-5.7881,-5.7881,-5.7881,-5.7881,-5.7881,-5.7881,-5.7881,-5.7881,-5.7881,-5.7881,-5.7881,-5.7881,-5.7881,-5.7881,-5.7881,-5.7881,-5.7881,-5.7881,-5.7881,-5.7645,-5.7239,-5.6771,-5.6168,-5.5409,-5.5024,-5.4629,-5.4253,-5.3163,-5.2471,-5.1988,-5.0675,-5.0144,-5.0153,-4.9868,-5.0419,-5.1043,-4.9376,-4.8963,-4.8922,-4.7694,-4.7309,-4.7309,-4.7309,-4.7309,-4.7309,-4.7309,-4.701,-4.6456,-4.5379,-4.4706,-4.4212,-4.3768,-4.3484,-4.3185,-4.2821,-4.259,-4.2156,-4.1324,-4.0965,-4.0576,-3.9903,-3.9813,-3.9709,-3.9454,-3.9388,-3.926,-3.8841,-3.8796,-3.8646,-3.8242,-3.8197,-3.8197,-3.8197,-3.8197,-3.8197,-3.8197,-3.8197,-3.8197,-3.8197,-3.8197,-3.8197,-3.8197,-3.8197,-3.7928,-3.7404,-3.7674,-3.7659,-3.7419,-3.7674,-3.7808,-3.7778,-3.7524,-3.7554,-3.7778,-3.7524,-3.7195,-3.6851,-3.6851,-3.6462,-3.5893,-3.5893,-3.5729,-3.5504,-6.1535,-6.1349,-6.0842,-5.937,-5.9049,-5.8761,-5.8,-5.7881,-5.7881,-5.7881,-5.7881,-5.7881,-5.7881,-5.7881,-5.7881,-5.7881,-5.7881,-5.7881,-5.7881,-5.7881,-5.7881,-5.7881,-5.7881,-5.7845,-5.7755,-5.7845,-5.7881,-5.7881,-5.7881,-5.7881,-5.7881,-5.7808,-5.7755,-5.7718,-5.6547,-5.5686,-5.5001,-5.4011,-5.3752,-5.388,-5.2741,-5.2307,-5.2156,-5.0409,-4.9742,-4.9603,-4.8986,-4.9399,-5.0126,-4.915,-4.8141,-4.7309,-4.7309,-4.7309,-4.7309,-4.7309,-4.7309,-4.7309,-4.7309,-4.7309,-4.716,-4.6561,-4.5454,-4.4466,-4.4347,-4.3813,-4.3364,-4.3305,-4.2865,-4.247,-4.241,-4.1916,-4.125,-4.0591,-4.0442,-4.0187,-3.9589,-3.9454,-3.9388,-3.9388,-3.9388,-3.9388,-3.9388,-3.9388,-3.9388,-3.9388,-3.9388,-3.9388,-3.9388,-3.9388,-3.9388,-3.9388,-3.9388,-3.9388,-3.9388,-3.9388,-3.8811,-3.7599,-3.8197,-3.8167,-3.7614,-3.8212,-3.8482,-3.8452,-3.7838,-3.7928,-3.8437,-3.7838,-3.7554,-3.7494,-3.7434,-3.703,-3.6477,-3.6417,-3.6013,-3.5504,-6.2178,-6.1704,-6.0994,-6.003,-5.9387,-5.8761,-5.8,-5.7881,-5.7881,-5.7881,-5.7881,-5.7881,-5.7881,-5.7881,-5.7881,-5.7881,-5.7881,-5.7881,-5.7881,-5.7881,-5.7881,-5.7881,-5.7881,-5.7463,-5.6586,-5.7463,-5.7881,-5.7881,-5.7881,-5.7881,-5.7881,-5.7001,-5.6569,-5.6531,-5.5434,-5.4865,-5.4679,-5.4448,-5.4088,-5.3528,-5.2398,-5.1662,-5.1036,-4.9872,-4.9084,-4.8617,-4.8481,-4.8753,-4.9094,-4.8866,-4.8141,-4.7309,-4.7309,-4.7309,-4.7309,-4.7309,-4.7309,-4.7309,-4.7309,-4.7309,-4.7279,-4.713,-4.6486,-4.5577,-4.4556,-4.4212,-4.3917,-4.3409,-4.3185,-4.297,-4.25,-4.2276,-4.1976,-4.1265,-4.0726,-4.0352,-4.0202,-3.9738,-3.9388,-3.9388,-3.9388,-3.9388,-3.9388,-3.9388,-3.9388,-3.9388,-3.9388,-3.9388,-3.9388,-3.9388,-3.9388,-3.9388,-3.9388,-3.9388,-3.9388,-3.9388,-3.9239,-3.899,-3.9125,-3.9125,-3.8955,-3.9125,-3.9185,-3.9185,-3.905,-3.9065,-3.9185,-3.905,-3.8661,-3.8123,-3.7614,-3.703,-3.6432,-3.5908,-3.5624,-3.5504,-6.1537,-6.0795,-5.9853,-5.9095,-5.865,-5.8316,-5.813,-5.809,-5.8181,-5.84,-5.8423,-5.8287,-5.7932,-5.7881,-5.8034,-5.8389,-5.8744,-5.8795,-5.8457,-5.8423,-5.8271,-5.7898,-5.7881,-5.7372,-5.6227,-5.6794,-5.6849,-5.6315,-5.6849,-5.7076,-5.7076,-5.6492,-5.6204,-5.6109,-5.4515,-5.3785,-5.3742,-5.3193,-5.3078,-5.3137,-5.2007,-5.1659,-5.1642,-5.0261,-4.9523,-4.9134,-4.8506,-4.8209,-4.8057,-4.8057,-4.7722,-4.7309,-4.7309,-4.7309,-4.7309,-4.7309,-4.7309,-4.7309,-4.7309,-4.7309,-4.7309,-4.7309,-4.7055,-4.6531,-4.5514,-4.4781,-4.4212,-4.3828,-4.3514,-4.3185,-4.2895,-4.2821,-4.2611,-4.1991,-4.1602,-4.122,-4.0905,-4.0307,-3.9888,-3.9888,-3.9568,-3.9388,-3.9388,-3.9388,-3.9388,-3.9388,-3.9388,-3.9388,-3.9388,-3.9388,-3.9388,-3.9388,-3.9388,-3.9388,-3.9388,-3.9388,-3.9388,-3.9388,-3.9388,-3.9388,-3.9388,-3.9388,-3.9388,-3.9388,-3.9388,-3.9388,-3.9388,-3.9388,-3.92,-3.8841,-3.8497,-3.7778,-3.6881,-3.6552,-3.6028,-3.5504,-6.0602,-5.961,-5.8588,-5.7824,-5.7696,-5.7763,-5.7968,-5.7978,-5.8124,-5.8518,-5.8567,-5.8332,-5.775,-5.7683,-5.7897,-5.8516,-5.9119,-5.9319,-5.89,-5.8867,-5.8568,-5.7827,-5.7793,-5.7134,-5.5674,-5.5618,-5.5312,-5.4589,-5.5474,-5.5913,-5.5913,-5.5754,-5.5618,-5.5538,-5.351,-5.2604,-5.2575,-5.1588,-5.1773,-5.253,-5.1603,-5.1773,-5.2469,-5.0939,-5.0285,-5.0046,-4.9,-4.8132,-4.7459,-4.7339,-4.7309,-4.7309,-4.7309,-4.7309,-4.7309,-4.7309,-4.7309,-4.7309,-4.7309,-4.7309,-4.7309,-4.7309,-4.7309,-4.716,-4.6621,-4.5544,-4.4601,-4.4362,-4.3843,-4.3424,-4.3319,-4.329,-4.3125,-4.2626,-4.247,-4.2216,-4.1662,-4.098,-4.0561,-4.0561,-3.9993,-3.9544,-3.9388,-3.9388,-3.9388,-3.9388,-3.9388,-3.9388,-3.9388,-3.9388,-3.9388,-3.9388,-3.9388,-3.9388,-3.9388,-3.9388,-3.9388,-3.9388,-3.9388,-3.9388,-3.9388,-3.9388,-3.9388,-3.9388,-3.9388,-3.9388,-3.9388,-3.9388,-3.9313,-3.923,-3.9089,-3.8392,-3.7404,-3.7285,-3.6507,-3.5504,-6.0602,-5.961,-5.8588,-5.7824,-5.7696,-5.7501,-5.6851,-5.6739,-5.675,-5.6825,-5.6825,-5.6777,-5.668,-5.668,-5.6713,-5.6809,-5.6948,-5.7388,-5.8327,-5.8408,-5.8094,-5.7496,-5.7463,-5.6181,-5.3412,-5.3352,-5.3742,-5.4589,-5.4755,-5.4838,-5.478,-5.3828,-5.3352,-5.3265,-5.2018,-5.1433,-5.1433,-5.1261,-5.1308,-5.1433,-5.1261,-5.1308,-5.1418,-5.1156,-5.0689,-5.0166,-4.9986,-4.9194,-4.8072,-4.7504,-4.7309,-4.7309,-4.7309,-4.7309,-4.7309,-4.7309,-4.7309,-4.7309,-4.7309,-4.7309,-4.7309,-4.7309,-4.7309,-4.7279,-4.7189,-4.6591,-4.5681,-4.4556,-4.4242,-4.4003,-4.3409,-4.329,-4.326,-4.317,-4.2731,-4.2366,-4.2276,-4.1707,-4.125,-4.125,-4.0666,-4.0053,-3.9448,-3.9388,-3.9388,-3.9388,-3.9388,-3.9388,-3.9388,-3.9388,-3.9388,-3.9388,-3.9388,-3.9388,-3.9388,-3.9388,-3.9388,-3.9388,-3.9388,-3.9388,-3.9388,-3.9388,-3.9388,-3.9388,-3.9388,-3.9388,-3.9388,-3.9388,-3.9065,-3.8482,-3.7898,-3.7569,-3.7345,-3.6806,-3.6148,-3.5504,-5.8616,-5.7621,-5.669,-5.6381,-5.6272,-5.6402,-5.6743,-5.6788,-5.6859,-5.7149,-5.7173,-5.6985,-5.6527,-5.689,-5.7173,-5.7173,-5.754,-5.7824,-5.7941,-5.8616,-5.833,-5.6948,-5.7233,-5.6145,-5.3518,-5.3102,-5.2812,-5.2694,-5.3324,-5.3656,-5.3613,-5.3165,-5.29,-5.2856,-5.1727,-5.1214,-5.1214,-5.1214,-5.1214,-5.1214,-5.1214,-5.1214,-5.1214,-5.1214,-5.1035,-5.0689,-5.0315,-4.9404,-4.8237,-4.7952,-4.7608,-4.7309,-4.7309,-4.7309,-4.7309,-4.7309,-4.7309,-4.7309,-4.7309,-4.7309,-4.7309,-4.7309,-4.7309,-4.7309,-4.7309,-4.7085,-4.6591,-4.5633,-4.484,-4.4227,-4.3888,-4.3544,-4.329,-4.329,-4.309,-4.2895,-4.2895,-4.2342,-4.1826,-4.1429,-4.0801,-4.0292,-3.9993,-3.9634,-3.9388,-3.9388,-3.9388,-3.9388,-3.9388,-3.9388,-3.9388,-3.9388,-3.9388,-3.9388,-3.9388,-3.9388,-3.9388,-3.9388,-3.9388,-3.9388,-3.9388,-3.9388,-3.9388,-3.9388,-3.9388,-3.9388,-3.9388,-3.9388,-3.9245,-3.8901,-3.8212,-3.7524,-3.6851,-3.6596,-3.6073,-3.5504]},{"header":{"parameterUnit":"m.s-1","parameterCategory":1,"la1":30.6,"la2":28.766,"lo1":-90.7593,"lo2":-88.6598,"dy":0.0162,"dx":0.0183,"nx":116,"ny":114,"refTime":"2024-05-19T12:00:00:Z","depth":0,"parameterNumber":3,"parameterNumberName":"V-component_of_WINDS"},"data":[0.0,0.0,0.0,0.0,0.0,0.0,0.0,0.0,0.0,0.0,0.0,0.0,0.0,0.0,0.0,0.0,0.0,0.0,0.0,0.0,0.0,0.0,0.0,0.0,0.0,0.0,0.0,0.0,0.0,0.0,0.0,0.0,0.0,0.0,0.0,0.0,0.0,0.0,0.0,0.0,0.0,0.0,0.0,0.0,0.0,0.0,0.0,0.0,0.0,0.0,0.0,0.0,0.0,0.0,0.0,0.0,0.0,0.0,0.0,0.0,0.0,0.0,0.0,0.0,0.0,0.0,0.0,0.0,0.0,0.0,0.0,0.0,0.0,0.0,0.0,0.0,0.0,0.0,0.0,0.0,0.0,0.0,0.0,0.0,0.0,0.0,0.0,0.0,0.0,0.0,0.0,0.0,0.0,0.0,0.0,0.0,0.0,0.0,0.0,0.0,0.0,0.0,0.0,0.0,0.0,0.0,0.0,0.0,0.0,0.0,0.0,0.0,0.0,0.0,0.0,0.0,0.0,0.0,0.0,0.0,0.0,0.0,0.0,0.0,0.0,0.0,0.0,0.0,0.0,0.0,0.0,0.0,0.0,0.0,0.0,0.0,0.0,0.0,0.0,0.0,0.0,0.0,0.0,0.0,0.0,0.0,0.0,0.0,0.0,0.0,0.0,0.0,0.0,0.0,0.0,0.0,0.0,0.0,0.0,0.0,0.0,0.0,0.0,0.0,0.0,0.0,0.0,0.0,0.0,0.0,0.0,0.0,0.0,0.0,0.0,0.0,0.0,0.0,0.0,0.0,0.0,0.0,0.0,0.0,0.0,0.0,0.0,0.0,0.0,0.0,0.0,0.0,0.0,0.0,0.0,0.0,0.0,0.0,0.0,0.0,0.0,0.0,0.0,0.0,0.0,0.0,0.0,0.0,0.0,0.0,0.0,0.0,0.0,0.0,0.0,0.0,0.0,0.0,0.0,0.0,0.0,0.0,0.0,0.0,0.0,0.0,0.0,0.0,0.0,0.0,0.0,0.0,0.0,0.0,0.0,0.0,0.0,0.0,0.0,0.0,0.0,0.0,0.0,0.0,0.0,0.0,0.0,0.0,0.0,0.0,0.0,0.0,0.0,0.0,0.0,0.0,0.0,0.0,0.0,0.0,0.0,0.0,0.0,0.0,0.0,0.0,0.0,0.0,0.0,0.0,0.0,0.0,0.0,0.0,0.0,0.0,0.0,0.0,0.0,0.0,0.0,0.0,0.0,0.0,0.0,0.0,0.0,0.0,0.0,0.0,0.0,0.0,0.0,0.0,0.0,0.0,0.0,0.0,0.0,0.0,0.0,0.0,0.0,0.0,0.0,0.0,0.0,0.0,0.0,0.0,0.0,0.0,0.0,0.0,0.0,0.0,0.0,0.0,0.0,0.0,0.0,0.0,0.0,0.0,0.0,0.0,0.0,0.0,0.0,0.0,0.0,0.0,0.0,0.0,0.0,0.0,0.0,0.0,0.0,0.0,0.0,0.0,0.0,0.0,0.0,0.0,0.0,0.0,0.0,0.0,0.0,0.0,0.0,0.0,0.0,0.0,0.0,0.0,0.0,0.0,0.0,0.0,0.0,0.0,0.0,0.0,0.0,0.0,0.0,0.0,0.0,0.0,0.0,0.0,0.0,0.0,0.0,0.0,0.0,0.0,0.0,0.0,0.0,0.0,0.0,0.0,0.0,0.0,0.0,0.0,0.0,0.0,0.0,0.0,0.0,0.0,0.0,0.0,0.0,0.0,0.0,0.0,0.0,0.0,0.0,0.0,0.0,0.0,0.0,0.0,0.0,0.0,0.0,0.0,0.0,0.0,0.0,0.0,0.0,0.0,0.0,0.0,0.0,0.0,0.0,0.0,0.0,0.0,0.0,0.0,0.0,0.0,0.0,0.0,0.0,0.0,0.0,0.0,0.0,0.0,0.0,0.0,0.0,0.0,0.0,0.0,0.0,0.0,0.0,0.0,0.0,0.0,0.0,0.0,0.0,0.0,0.0,0.0,0.0,0.0,0.0,0.0,0.0,0.0,0.0,0.0,0.0,0.0,0.0,0.0,0.0,0.0,0.0,0.0,0.0,0.0,0.0,0.0,0.0,0.0,0.0,0.0,0.0,0.0,0.0,0.0,0.0,0.0,0.0,0.0,0.0,0.0,0.0,0.0,0.0,0.0,0.0,0.0,0.0,0.0,0.0,0.0,0.0,0.0,0.0,0.0,0.0,0.0,0.0,0.0,0.0,0.0,0.0,0.0,0.0,0.0,0.0,0.0,0.0,0.0,0.0,0.0,0.0,0.0,0.0,0.0,0.0,0.0,0.0,0.0,0.0,0.0,0.0,0.0,0.0,0.0,0.0,0.0,0.0,0.0,0.0,0.0,0.0,0.0,0.0,0.0,0.0,0.0,0.0,0.0,0.0,0.0,0.0,0.0,0.0,0.0,0.0,0.0,0.0,0.0,0.0,0.0,0.0,0.0,0.0,0.0,0.0,0.0,0.0,0.0,0.0,0.0,0.0,0.0,0.0,0.0,0.0,0.0,0.0,0.0,0.0,0.0,0.0,0.0,0.0,0.0,0.0,0.0,0.0,0.0,0.0,0.0,0.0,0.0,0.0,0.0,0.0,0.0,0.0,0.0,0.0,0.0,0.0,0.0,0.0,0.0,0.0,0.0,0.0,0.0,0.0,0.0,0.0,0.0,0.0,0.0,0.0,0.0,0.0,0.0,0.0,0.0,0.0,0.0,0.0,0.0,0.0,0.0,0.0,0.0,0.0,0.0,0.0,0.0,0.0,0.0,0.0,0.0,0.0,0.0,0.0,0.0,0.0,0.0,0.0,0.0,0.0,0.0,0.0,0.0,0.0,0.0,0.0,0.0,0.0,0.0,0.0,0.0,0.0,0.0,0.0,0.0,0.0,0.0,0.0,0.0,0.0,0.0,0.0,0.0,0.0,0.0,0.0,0.0,0.0,0.0,0.0,0.0,0.0,0.0,0.0,0.0,0.0,0.0,0.0,0.0,0.0,0.0,0.0,0.0,0.0,0.0,0.0,0.0,0.0,0.0,0.0,0.0,0.0,0.0,0.0,0.0,0.0,0.0,0.0,0.0,0.0,0.0,0.0,0.0,0.0,0.0,0.0,0.0,0.0,0.0,0.0,0.0,0.0,0.0,0.0,0.0,0.0,0.0,0.0,0.0,0.0,0.0,0.0,0.0,0.0,0.0,0.0,0.0,0.0,0.0,0.0,0.0,0.0,0.0,0.0,0.0,0.0,0.0,0.0,0.0,0.0,0.0,0.0,0.0,0.0,0.0,0.0,0.0,0.0,0.0,0.0,0.0,0.0,0.0,0.0,0.0,0.0,0.0,0.0,0.0,0.0,0.0,0.0,0.0,0.0,0.0,0.0,0.0,0.0,0.0,0.0,0.0,0.0,0.0,0.0,0.0,0.0,0.0,0.0,0.0,0.0,0.0,0.0,0.0,0.0,0.0,0.0,0.0,0.0,0.0,0.0,0.0,0.0,0.0,0.0,0.0,0.0,0.0,0.0,0.0,0.0,0.0,0.0,0.0,0.0,0.0,0.0,0.0,0.0,0.0,0.0,0.0,0.0,0.0,0.0,0.0,0.0,0.0,0.0,0.0,0.0,0.0,0.0,0.0,0.0,0.0,0.0,0.0,0.0,0.0,0.0,0.0,0.0,0.0,0.0,0.0,0.0,0.0,0.0,0.0,0.0,0.0,0.0,0.0,0.0,0.0,0.0,0.0,0.0,0.0,0.0,0.0,0.0,0.0,0.0,0.0,0.0,0.0,0.0,0.0,0.0,0.0,0.0,0.0,0.0,0.0,0.0,0.0,0.0,0.0,0.0,0.0,0.0,0.0,0.0,0.0,0.0,0.0,0.0,0.0,0.0,0.0,0.0,0.0,0.0,0.0,0.0,0.0,0.0,0.0,0.0,0.0,0.0,0.0,0.0,0.0,0.0,0.0,0.0,0.0,0.0,0.0,0.0,0.0,0.0,0.0,0.0,0.0,0.0,0.0,0.0,0.0,0.0,0.0,0.0,0.0,0.0,0.0,0.0,0.0,0.0,0.0,0.0,0.0,0.0,0.0,0.0,0.0,0.0,0.0,0.0,0.0,0.0,0.0,0.0,0.0,0.0,0.0,0.0,0.0,0.0,0.0,0.0,0.0,0.0,0.0,0.0,0.0,0.0,0.0,0.0,0.0,0.0,0.0,0.0,0.0,0.0,0.0,0.0,0.0,0.0,0.0,0.0,0.0,0.0,0.0,0.0,0.0,0.0,0.0,0.0,0.0,0.0,0.0,0.0,0.0,0.0,0.0,0.0,0.0,0.0,0.0,0.0,0.0,0.0,0.0,0.0,0.0,0.0,0.0,0.0,0.0,0.0,0.0,0.0,0.0,0.0,0.0,0.0,0.0,0.0,0.0,0.0,0.0,0.0,0.0,0.0,0.0,0.0,0.0,0.0,0.0,0.0,0.0,0.0,0.0,0.0,0.0,0.0,0.0,0.0,0.0,0.0,0.0,0.0,0.0,0.0,0.0,0.0,0.0,0.0,0.0,0.0,0.0,0.0,0.0,0.0,0.0,0.0,0.0,0.0,0.0,0.0,0.0,0.0,0.0,0.0,0.0,0.0,0.0,0.0,0.0,0.0,0.0,0.0,0.0,0.0,0.0,0.0,0.0,0.0,0.0,0.0,0.0,0.0,0.0,0.0,0.0,0.0,0.0,0.0,0.0,0.0,0.0,0.0,0.0,0.0,0.0,0.0,0.0,0.0,0.0,0.0,0.0,0.0,0.0,0.0,0.0,0.0,0.0,0.0,0.0,0.0,0.0,0.0,0.0,0.0,0.0,0.0,0.0,0.0,0.0,0.0,0.0,0.0,0.0,0.0,0.0,0.0,0.0,0.0,0.0,0.0,0.0,0.0,0.0,0.0,0.0,0.0,0.0,0.0,0.0,0.0,0.0,0.0,0.0,0.0,0.0,0.0,0.0,0.0,0.0,0.0,0.0,0.0,0.0,0.0,0.0,0.0,0.0,0.0,0.0,0.0,0.0,0.0,0.0,0.0,0.0,0.0,0.0,0.0,0.0,0.0,0.0,0.0,0.0,0.0,0.0,0.0,0.0,0.0,0.0,0.0,0.0,0.0,0.0,0.0,0.0,0.0,0.0,0.0,0.0,0.0,0.0,0.0,0.0,0.0,0.0,0.0,0.0,0.0,0.0,0.0,0.0,0.0,0.0,0.0,0.0,0.0,0.0,0.0,0.0,0.0,0.0,0.0,0.0,0.0,0.0,0.0,0.0,0.0,0.0,0.0,0.0,0.0,0.0,0.0,0.0,0.0,0.0,0.0,0.0,0.0,0.0,0.0,0.0,0.0,0.0,0.0,0.0,0.0,0.0,0.0,0.0,0.0,0.0,0.0,0.0,0.0,0.0,0.0,0.0,0.0,0.0,0.0,0.0,0.0,0.0,0.0,0.0,0.0,0.0,0.0,0.0,0.0,0.0,0.0,0.0,0.0,0.0,0.0,0.0,0.0,0.0,0.0,0.0,0.0,0.0,0.0,0.0,0.0,0.0,0.0,0.0,0.0,0.0,0.0,0.0,0.0,0.0,0.0,0.0,0.0,0.0,0.0,0.0,0.0,0.0,0.0,0.0,0.0,0.0,0.0,0.0,0.0,0.0,0.0,0.0,0.0,0.0,0.0,0.0,0.0,0.0,0.0,0.0,0.0,0.0,0.0,0.0,0.0,0.0,0.0,0.0,0.0,0.0,0.0,0.0,0.0,0.0,0.0,0.0,0.0,0.0,0.0,0.0,0.0,0.0,0.0,0.0,0.0,0.0,0.0,0.0,0.0,0.0,0.0,0.0,0.0,0.0,0.0,0.0,0.0,0.0,0.0,0.0,0.0,0.0,0.0,0.0,0.0,0.0,0.0,0.0,0.0,0.0,0.0,0.0,0.0,0.0,0.0,0.0,0.0,0.0,0.0,0.0,0.0,0.0,0.0,0.0,0.0,0.0,0.0,0.0,0.0,0.0,0.0,0.0,0.0,0.0,0.0,0.0,0.0,0.0,1.0528,0.9999,0.0,0.0,0.0,0.0,0.0,0.0,0.0,0.0,0.0,0.0,0.0,0.0,0.0,0.0,0.0,0.0,0.0,0.0,0.0,0.0,0.0,0.0,0.0,0.8581,0.8848,0.925,0.9679,0.9941,0.9941,0.0,0.0,0.0,0.0,0.0,0.9014,0.8789,0.9001,0.9619,0.9404,0.9718,1.0557,1.0567,1.0117,0.9305,0.0,0.0,0.0,0.0,0.0,0.0,0.0,0.0,0.0,0.0,0.0,0.0,0.0,0.0,0.0,0.0,0.0,0.0,0.0,0.0,0.0,0.0,0.0,0.0,0.0,0.0,0.0,0.0,0.0,0.0,0.0,0.0,0.0,0.0,0.0,0.0,0.0,0.0,0.0,0.0,0.0,0.0,0.0,0.0,0.0,0.0,0.0,0.0,0.0,0.0,0.0,0.0,0.0,0.0,0.0,0.0,0.0,0.0,0.0,0.0,0.0,0.0,0.0,0.0,0.0,0.0,0.0,0.0,0.0,0.0,1.2246,1.1455,0.0,0.0,0.0,0.0,0.0,0.0,0.0,0.0,0.0,0.0,0.0,0.0,0.0,0.0,0.0,0.0,0.0,0.0,0.0,0.0,0.0,0.8022,0.8561,0.8975,0.9424,0.9903,1.0293,1.0488,1.042,1.041,0.0,0.0,0.0,0.9601,0.9346,0.9268,0.9687,1.0625,1.0468,1.1024,1.2269,1.3003,1.2582,1.1183,1.0811,0.0,0.0,0.0,0.0,0.0,0.0,0.0,0.0,0.0,0.0,0.0,0.0,0.0,0.0,0.0,0.0,0.0,0.0,0.0,0.0,0.0,0.0,0.0,0.0,0.0,0.0,0.0,0.0,0.0,0.0,0.0,0.0,0.0,0.0,0.0,0.0,0.0,0.0,0.0,0.0,0.0,0.0,0.0,0.0,0.0,0.0,0.0,0.0,0.0,0.0,0.0,0.0,0.0,0.0,0.0,0.0,0.0,0.0,0.0,0.0,0.0,0.0,0.0,1.5474,1.5913,1.7028,1.696,1.6921,1.6785,1.4289,1.348,1.3848,1.2573,0.0,0.0,0.0,0.0,0.0,0.0,0.0,0.0,0.0,0.0,0.0,0.0,0.0,0.0,0.0,0.0,0.0,0.0,0.0,0.8594,0.9367,0.9853,1.0449,1.1273,1.14,1.1252,1.085,1.082,0.0,0.0,1.0215,1.0342,1.0645,1.0303,1.0723,1.195,1.3003,1.3977,1.4902,1.5019,1.4961,1.4658,1.2779,1.2119,1.2289,0.0,0.0,0.0,0.0,0.0,0.0,0.0,0.0,0.0,0.0,0.0,0.0,0.0,0.0,0.0,0.0,0.0,0.0,0.0,0.0,0.0,0.0,0.0,0.0,0.0,0.0,0.0,0.0,0.0,0.0,0.0,0.0,0.0,0.0,0.0,0.0,0.0,0.0,0.0,0.0,0.0,0.9169,1.0341,0.0,0.0,0.0,0.0,0.0,0.0,0.0,0.0,0.0,0.0,0.0,0.0,0.0,1.5352,1.6268,1.7003,1.7482,1.7666,1.7935,1.8168,1.8334,1.7974,1.7842,1.7822,1.7422,0.0,1.5654,1.4326,0.0,0.0,0.0,0.0,0.0,0.0,0.0,0.0,0.0,0.0,0.0,0.0,0.0,0.0,0.0,0.0,0.0,0.0,0.0,0.0,0.0,1.0616,1.1281,1.1885,1.2396,1.2363,1.1677,1.1628,1.1326,1.0664,1.0635,1.0723,1.0908,1.1221,1.2129,1.3662,1.456,1.5531,1.6492,1.5537,1.5701,1.6794,1.5256,1.4176,1.348,1.2289,0.0,0.0,0.0,0.0,0.0,0.0,0.0,0.0,0.0,0.0,0.0,0.0,0.0,0.0,0.0,0.0,0.0,0.0,0.0,0.0,0.0,0.0,0.0,0.0,0.0,0.0,0.0,0.0,0.0,0.0,0.0,0.0,0.0,0.0,0.0,0.0,0.0,0.0,0.0,0.9174,0.9919,1.052,1.0397,0.9923,0.0,0.0,0.0,0.0,0.0,0.0,0.0,0.0,0.0,1.4289,1.458,1.5282,1.6462,1.7742,1.8527,1.8796,1.9649,2.0186,2.0459,2.0273,2.0185,2.0176,1.9894,1.9355,1.8472,1.6426,1.5225,1.4608,0.0,0.0,0.0,0.0,1.3086,1.3184,0.0,0.0,0.0,0.0,0.0,0.0,0.0,0.0,0.0,0.0,0.0,0.0,1.0674,1.1565,1.2308,1.2808,1.3467,1.3516,1.274,1.2486,1.2028,1.1258,1.1133,1.1133,1.1219,1.2408,1.3812,1.5478,1.6109,1.693,1.7871,1.6572,1.6812,1.8305,1.749,1.6384,1.503,1.3984,1.2832,0.0,0.0,0.0,0.0,0.0,0.0,0.0,0.0,0.0,0.0,0.0,0.0,0.0,0.0,0.0,0.0,0.0,0.0,0.0,0.0,0.0,0.0,0.0,0.0,0.0,0.0,0.0,0.0,0.0,0.0,0.0,0.0,0.0,0.0,0.0,0.0,0.0,0.0,0.9926,1.0322,1.0501,1.0903,1.0718,0.0,0.0,0.0,0.0,0.0,0.0,1.1868,1.2179,1.315,1.4945,1.5034,1.5638,1.679,1.7955,1.878,1.9248,2.0378,2.1151,2.1604,2.1809,2.1885,2.1865,2.1543,2.1211,2.0762,1.8359,1.7061,1.6515,1.5772,1.5186,1.4825,1.5293,1.5478,1.5557,0.0,0.0,0.0,0.0,0.0,0.0,0.0,0.0,0.0,0.0,0.0,1.0703,1.1969,1.2876,1.375,1.4608,1.4697,1.4531,1.4036,1.3291,1.2646,1.2164,1.178,1.1751,1.2135,1.4163,1.5908,1.7288,1.8066,1.8708,1.9189,1.91,1.9146,1.9219,1.9182,1.8666,1.7705,1.6006,1.4747,1.3792,0.0,0.0,0.0,0.0,0.0,0.0,0.0,0.0,0.0,0.0,0.0,0.0,0.0,0.0,0.0,0.0,0.0,0.0,0.0,0.0,0.0,0.0,0.0,0.0,0.0,0.0,0.0,0.0,0.0,0.0,0.0,0.0,0.0,0.0,0.0,0.0,0.0,0.0,0.0,1.0312,1.0947,0.0,0.0,0.0,0.0,1.0882,1.1697,1.2355,1.2732,1.4123,1.5275,1.5998,1.6928,1.7667,1.8118,1.8185,1.8409,1.8842,1.9668,2.0301,2.0809,2.1539,2.1885,2.1885,2.1865,2.1836,2.168,1.9893,1.8662,1.7871,1.7432,1.6982,1.6619,1.709,1.7288,1.7314,0.0,0.0,0.0,0.0,0.0,0.7695,0.7695,0.8096,0.8541,0.8945,1.0254,1.1516,1.2539,1.3896,1.4971,1.5586,1.5869,1.5703,1.4972,1.4133,1.3597,1.3441,1.3037,1.3535,1.5059,1.6143,1.7314,1.8603,1.8468,1.9137,2.0498,1.8816,1.8542,1.9464,1.9204,1.8778,1.8119,1.7106,1.6016,1.4777,1.3096,1.1809,0.0,0.0,0.0,0.0,0.0,0.0,0.0,0.0,0.0,0.0,0.0,0.0,0.0,0.0,0.0,0.0,0.0,0.0,0.0,0.0,0.0,0.0,0.0,0.0,0.0,0.0,0.0,0.0,0.0,0.0,0.0,0.0,0.0,0.0,0.0,0.0,0.0,1.155,1.2014,0.0,1.143,1.1859,1.2241,1.2405,1.306,1.3581,1.3874,1.4603,1.5226,1.5635,1.6,1.633,1.6639,1.7462,1.7933,1.8087,1.997,2.0906,2.1129,2.2174,2.2652,2.2652,2.2652,2.2539,2.2236,2.1621,2.0859,2.0001,1.9637,1.916,1.8763,1.8955,1.8838,1.8633,0.0,0.0,0.0,0.0,0.7695,0.7695,0.7695,0.8223,0.8799,0.9365,1.0831,1.225,1.3424,1.4785,1.5869,1.6486,1.665,1.6453,1.5868,1.4912,1.4328,1.4328,1.4219,1.5029,1.6914,1.7656,1.8584,1.9754,1.958,2.0186,2.1405,1.9652,1.9416,2.0369,2.0099,1.9715,1.9251,1.8697,1.7539,1.5967,1.4697,1.359,1.2533,0.0,0.0,0.0,0.0,0.0,0.0,0.0,0.0,0.0,0.0,0.0,0.0,0.0,0.0,0.0,0.0,0.0,0.0,0.0,0.0,0.0,0.0,0.0,0.0,0.0,0.0,0.0,0.0,0.0,0.0,0.0,0.0,0.0,0.0,0.0,1.2131,1.2418,1.3018,1.3186,1.2652,1.3053,1.3467,1.3634,1.4202,1.4616,1.4803,1.5097,1.5344,1.5538,1.5538,1.5631,1.5778,1.6622,1.7037,1.7084,1.9131,2.0079,2.0124,2.1355,2.2129,2.2492,2.2492,2.2567,2.2682,2.2682,2.235,2.1775,2.124,2.084,2.0576,2.0576,2.0312,1.9922,0.0,0.0,0.0,0.7695,0.7695,0.7695,0.7695,0.8441,0.9307,1.0175,1.1404,1.2876,1.46,1.5596,1.6476,1.7324,1.6992,1.6697,1.6697,1.5498,1.4813,1.4852,1.5264,1.6133,1.7484,1.8691,1.9783,2.0644,2.1505,2.1894,2.1904,2.1853,2.1853,2.1863,2.1843,2.1609,2.114,2.0791,1.9431,1.7474,1.6963,1.5996,1.4707,0.0,0.0,0.0,0.0,0.0,0.0,0.0,0.0,0.0,0.0,0.0,0.0,0.0,0.0,0.0,0.0,0.0,0.0,0.0,0.0,0.0,0.0,0.0,0.0,0.0,0.0,0.0,0.0,0.0,0.0,0.0,0.0,0.0,1.1062,1.2318,1.3133,1.2898,1.3848,1.4215,1.3373,1.4062,1.4563,1.4563,1.509,1.5411,1.5411,1.5678,1.5784,1.5784,1.5784,1.5784,1.5784,1.5784,1.5825,1.5872,1.7131,1.7777,1.787,1.9039,2.026,2.1346,2.1346,2.2031,2.3091,2.3091,2.3091,2.3013,2.2246,2.1914,2.1904,2.1904,2.1631,2.1151,0.0,0.0,0.7695,0.7695,0.7695,0.7695,0.7695,0.8441,0.9182,0.9718,1.1494,1.3232,1.4666,1.584,1.6894,1.7764,1.7126,1.6697,1.6697,1.5186,1.4736,1.5703,1.7021,1.8359,1.9695,2.0067,2.0683,2.1523,2.1768,2.2041,2.2334,2.1095,2.0758,2.1163,2.0739,2.0495,2.0509,2.1226,2.086,1.9607,1.8203,1.7038,1.6063,0.0,0.0,0.0,0.0,0.0,0.0,0.0,0.0,0.0,0.0,0.0,0.0,0.0,0.0,0.0,0.0,0.0,0.0,0.0,0.0,0.0,0.0,0.0,0.0,0.0,0.0,0.0,0.0,0.0,0.0,0.0,0.0,1.2599,1.2599,1.332,1.4048,1.4603,1.4957,1.5144,1.5065,1.5278,1.5425,1.5425,1.5618,1.5712,1.5712,1.5738,1.5784,1.5784,1.5784,1.5784,1.5784,1.5784,1.6244,1.7178,1.8411,1.9451,2.035,2.1543,2.2271,2.2633,2.2633,2.2775,2.3091,2.3091,2.3091,2.3071,2.2838,2.2607,2.2344,2.2344,2.207,2.1689,0.0,0.7695,0.7695,0.7695,0.7695,0.7695,0.7695,0.8441,0.9219,0.9824,1.1641,1.3394,1.4648,1.5781,1.6728,1.7412,1.6846,1.6377,1.6161,1.54,1.5518,1.6858,1.835,1.9609,2.0586,2.1103,2.1631,2.2148,2.2324,2.2539,2.273,2.1755,2.1497,2.1808,2.1478,2.123,2.1208,2.1878,2.165,2.0752,1.9766,1.874,1.7672,1.6836,1.6084,1.5391,1.4795,1.4189,1.3613,1.3149,0.0,0.0,0.0,0.0,0.0,0.0,0.0,0.0,0.0,0.0,0.0,0.0,0.0,0.0,0.0,0.0,0.0,0.0,0.0,0.0,0.0,0.0,0.0,0.0,1.3621,1.3841,1.4095,1.4422,1.487,1.5504,1.5578,1.5645,1.5764,1.5784,1.5784,1.5784,1.5945,1.6012,1.6012,1.6132,1.6199,1.6199,1.6199,1.6199,1.6199,1.6199,1.6464,1.7144,1.7831,1.8721,1.9807,2.0503,2.1409,2.2359,2.2359,2.2633,2.3091,2.3091,2.3091,2.3091,0.0,0.0,0.0,0.0,2.2353,2.2129,0.0,0.7695,0.7695,0.7695,0.7695,0.7695,0.7695,0.8441,0.9316,1.0195,1.178,1.3316,1.457,1.5469,1.6153,1.658,1.625,1.588,1.5508,1.5968,1.6799,1.8027,1.9307,2.0215,2.0742,2.1894,2.2539,2.2578,2.2916,2.3091,2.3091,2.296,2.296,2.3091,2.296,2.2746,2.2578,2.2578,2.2119,2.1337,2.1288,2.0527,1.9277,1.8516,1.793,1.7422,1.6672,1.586,1.5078,1.4621,0.0,0.0,0.0,0.0,0.0,0.0,0.0,0.0,0.0,0.0,0.0,0.0,0.0,0.0,0.0,0.0,0.0,0.0,0.0,0.0,0.0,0.0,0.0,0.0,1.5074,1.481,1.5364,1.5444,1.5538,1.5751,1.5784,1.5784,1.5784,1.5811,1.5879,1.5879,1.6152,1.6375,1.6375,0.0,0.0,0.0,0.0,1.6707,1.6707,1.6707,1.6722,1.6794,1.6711,1.7313,1.8381,1.8342,1.9497,2.1525,2.1525,2.212,2.3091,2.3091,2.3091,2.3091,2.3091,2.3091,2.3052,2.2682,2.2578,2.2529,0.0,0.7695,0.7695,0.7695,0.7695,0.7695,0.7695,0.8441,0.9316,1.0195,1.1494,1.2817,1.4094,1.4727,1.5381,1.6153,1.5791,1.5654,1.5948,0.0,1.7539,1.8442,1.9756,2.086,2.1611,2.2207,2.2676,2.2974,2.3052,2.3091,2.3091,2.212,2.2164,2.3047,2.2076,2.2126,2.2974,2.2974,2.2682,2.2236,2.1894,2.0967,1.9775,1.9609,1.9062,1.8344,1.8169,1.7812,1.7324,1.6894,1.6371,1.5629,1.4377,0.0,0.0,0.0,0.0,0.0,0.0,0.0,0.0,0.0,0.0,0.0,0.0,0.0,0.0,0.0,0.0,0.0,0.0,0.0,0.0,1.4552,1.5018,1.5351,1.5698,1.5698,1.5718,1.5771,1.5784,1.5784,1.5784,1.6046,1.6186,1.6186,1.6453,1.662,1.662,1.6673,1.6707,1.6707,1.6707,1.6707,1.6707,1.6707,1.7739,1.9742,1.936,0.0,2.2625,2.2244,2.2325,2.2765,2.2765,2.2862,2.3091,2.3091,2.3091,2.3091,2.3091,2.3091,2.3081,2.3003,2.2974,2.2964,0.7695,0.7695,0.7695,0.7695,0.7695,0.7695,0.7695,0.8441,0.9316,1.0195,1.1416,1.2613,1.3675,1.4172,1.4639,1.5059,1.5098,1.5469,0.0,1.7217,1.8164,1.9192,2.0527,2.1435,2.1875,2.25,2.2886,2.3091,2.3091,2.3091,2.3101,2.2492,2.2536,2.3047,2.2492,2.2536,2.3091,2.3091,2.2847,2.248,2.206,2.1357,2.0518,2.0322,1.9834,1.9241,1.9241,1.8831,1.8227,1.7842,1.7129,1.6145,1.465,1.3611,1.2791,0.0,0.0,0.0,0.0,0.0,0.0,0.0,0.0,0.0,0.0,0.0,0.0,0.0,0.0,1.3608,0.0,0.0,1.4264,1.5518,1.5677,1.5665,1.5758,1.5784,1.5784,1.5784,1.5784,1.5885,1.6039,1.6186,1.6382,1.648,1.676,1.6927,1.6927,1.7068,1.7442,1.8143,1.8143,1.8492,1.9177,1.9177,1.9786,2.0882,2.0652,2.1479,2.3194,2.2734,2.2869,2.3457,2.3188,2.3091,2.3091,2.3091,2.3091,2.3091,2.3091,2.3091,2.3091,2.3091,2.3091,2.3091,0.7695,0.7695,0.7695,0.7695,0.7695,0.7695,0.7695,0.8441,0.9287,1.0059,1.1221,1.2242,1.3037,1.3428,1.3675,1.3851,1.4443,0.0,0.0,1.7578,1.8613,1.998,2.1221,2.1885,2.1885,2.2672,2.3091,2.3091,2.3091,2.3091,2.3091,2.3091,2.3091,2.3091,2.3091,2.3091,2.3091,2.3091,2.2896,2.2588,2.209,2.167,2.1259,2.0811,2.039,2.0029,1.9941,1.9329,1.8549,1.8242,1.7326,1.6138,1.4743,1.3702,1.2814,1.2045,1.1775,0.0,0.0,0.0,0.0,0.0,0.0,0.0,0.0,0.0,1.3247,1.3468,1.3762,1.4368,1.5788,1.5283,1.5116,1.6541,1.6213,1.5784,1.5784,1.5784,1.5784,1.5784,1.5879,1.6012,1.6253,1.6422,1.654,1.6774,1.7119,1.7286,1.7286,1.7455,1.8094,1.9169,1.922,1.9782,2.0888,2.0888,2.1049,2.1304,2.118,2.1836,2.3091,2.2649,2.2941,2.3769,2.3286,2.3091,2.3091,2.3091,2.3091,2.3091,2.3091,2.3091,2.3091,2.3091,2.3091,2.3091,0.0,0.7695,0.7695,0.7695,0.7695,0.7695,0.7695,0.8441,0.917,0.963,1.0478,1.124,1.1773,1.1839,1.2181,1.2983,1.4128,0.0,1.7197,1.7744,1.875,2.0458,2.1427,2.1885,2.1885,2.2672,2.3091,2.3091,2.3091,2.3091,2.3091,2.3091,2.3091,2.3091,2.3091,2.3091,2.3091,2.3091,2.3062,2.2955,2.2207,2.1855,2.1719,2.0928,2.0576,2.0478,2.0059,1.9329,1.8598,1.8549,1.7969,1.7222,1.7027,1.6053,1.4895,1.4413,0.0,1.2298,1.3488,1.3796,1.3606,1.2848,1.3001,1.3684,0.0,0.0,1.5834,1.5752,1.5995,1.6009,1.5269,1.5212,1.545,1.5859,1.5852,1.5784,1.5784,1.5784,1.5784,1.5784,1.6059,1.6239,1.6321,1.6797,1.7119,1.7146,1.742,1.7535,1.7535,1.7562,1.7687,1.7838,1.7838,1.7891,1.8042,1.8042,1.9295,2.1635,2.1205,2.2364,2.4782,2.4346,2.4004,2.3769,2.3286,2.3091,2.3091,2.3091,2.3091,2.3091,2.3091,2.3091,2.3091,2.3091,2.3091,2.3091,0.0,0.7695,0.7695,0.7695,0.7695,0.7695,0.7695,0.8441,0.9133,0.9534,1.0351,1.1074,1.1557,1.1606,1.1839,1.2441,1.3672,1.5029,1.6545,1.7715,1.8916,2.0137,2.1279,2.1885,2.1885,2.2672,2.3091,2.3091,2.3091,2.3091,2.3091,2.3091,2.3091,2.3091,2.3091,2.3091,2.3091,2.3091,2.3091,2.3023,2.2217,2.1885,2.1758,2.0625,2.0029,1.9832,1.9619,1.8994,0.0,0.0,1.7278,1.6387,1.5695,1.5007,1.4366,1.3772,1.3771,0.0,1.4558,1.4344,1.3828,0.0,1.3487,1.4233,1.4797,1.5106,1.5354,1.5632,1.5781,1.5791,1.5523,1.5565,1.5745,0.0,1.6086,1.6086,1.6086,1.6086,1.6019,1.5804,1.6092,1.6339,1.6506,1.6747,1.7034,1.7427,1.7515,1.7582,1.7582,1.7582,1.7943,1.876,1.876,1.9524,2.1143,2.1143,2.2114,2.4048,2.3825,2.4347,2.5439,2.5,2.456,2.4131,2.3701,2.3516,2.3496,2.3198,2.3091,2.3091,2.3091,2.3091,2.3091,2.3091,2.3091,2.3091,0.0,0.7695,0.7695,0.7695,0.7695,0.7695,0.7695,0.8441,0.9111,0.9406,1.0186,1.0859,1.1193,1.133,1.1584,1.2002,1.309,1.4385,1.5821,1.7285,1.8559,1.9697,2.0889,2.1582,2.1699,2.2487,2.2925,2.2925,2.3042,2.3091,2.3091,2.3091,2.3091,2.3091,2.3091,2.3091,2.3091,2.2974,2.2925,2.2847,2.2051,2.1631,2.1387,2.0195,1.9336,1.876,1.876,1.8203,0.0,0.0,1.636,1.5643,1.4892,1.442,1.4087,1.3892,1.4588,1.5299,1.4588,1.4303,0.0,1.3347,1.3881,1.4609,1.4482,1.4676,1.5003,1.5431,1.5518,1.5578,1.5744,1.5784,1.5925,1.6274,1.6321,1.6321,1.6321,1.6321,1.6166,1.5818,1.6019,1.6266,1.656,1.6734,1.7001,1.7481,1.7896,1.8146,1.8146,1.8499,1.9169,2.0135,2.0179,2.1151,2.3126,2.3126,2.384,2.5177,2.5177,2.5323,2.5674,2.5273,2.4893,2.457,2.415,2.3896,2.3769,2.3447,2.3198,2.3091,2.3091,2.3091,2.3091,2.3091,2.3091,2.3091,0.0,0.0,0.7695,0.7695,0.7695,0.7695,0.7695,0.8441,0.9014,0.9023,0.9775,1.0322,1.0342,1.0684,1.1103,1.1587,1.2426,1.3633,1.5322,1.6258,1.7506,1.9238,2.0184,2.081,2.121,2.2048,2.2529,2.2529,2.2896,2.3091,2.3091,2.3091,2.3091,2.3091,2.3091,2.3091,2.3062,2.2662,2.2529,2.2451,2.1561,2.0996,2.0546,1.9676,1.8535,1.7474,1.7474,0.0,0.0,0.0,1.5439,1.5478,1.5917,1.5423,0.0,1.6127,1.6139,1.5276,1.3022,0.0,1.4513,1.4144,1.4546,1.5068,1.5297,1.5578,1.5792,1.5764,1.5764,1.5771,1.5784,1.5784,1.5925,1.6274,1.6321,1.6321,1.6321,1.6321,1.6166,1.5818,1.5791,1.5959,0.0,1.6851,1.7192,1.7213,1.864,1.9524,1.9524,2.0837,2.16,2.1651,2.1651,2.1702,2.1752,2.1752,2.2408,2.3741,2.3741,2.4461,2.5674,2.5273,2.5106,2.5077,2.459,2.417,2.3789,2.3779,2.3525,2.3091,2.3091,2.3091,2.3091,2.3091,2.3091,2.3091,0.0,0.0,0.0,0.7695,0.7969,0.8164,0.8164,0.8643,0.9004,0.9004,0.9764,0.0,0.0,0.0,0.0,0.0,0.0,1.3022,1.4445,1.5898,1.7087,1.7988,1.9375,2.0342,2.0781,2.1367,2.1807,2.21,2.2236,2.2305,2.2305,2.2305,2.2305,2.2305,2.2305,2.2305,2.2295,2.2158,2.2256,2.2412,2.125,2.0879,2.085,1.9404,1.8032,1.6843,0.0,0.0,0.0,1.4717,1.4326,1.4067,1.3986,0.0,0.0,1.4551,1.4494,1.4034,1.4247,0.0,1.4536,1.465,1.5104,1.5565,1.5658,1.5758,1.5784,1.5784,1.5678,1.5605,1.5792,1.5671,1.5765,1.6446,1.656,1.6627,1.6878,1.6904,1.6723,1.6186,1.6126,0.0,0.0,0.0,0.0,1.7172,1.7692,1.8088,1.8237,1.9576,2.0333,2.0333,2.1194,2.2106,2.3026,2.3026,2.3692,2.502,2.502,2.5274,2.5684,2.5586,2.5518,2.5488,2.5039,2.4766,2.4636,2.4023,2.3701,2.3545,2.3208,2.3091,2.3091,2.3091,2.3091,2.3091,0.0,0.0,0.0,0.0,0.0,0.0,0.0,0.0,0.0,0.0,0.0,0.0,0.0,0.0,0.0,0.0,0.0,0.0,1.3802,1.5069,1.6034,1.665,1.7871,1.874,1.9189,1.9629,2.0146,2.0723,2.0879,2.1113,2.1456,2.1456,2.1456,2.1456,2.1456,2.1456,2.1406,2.125,2.1338,2.1475,2.0176,1.9736,1.9687,1.8061,1.6755,0.0,0.0,0.0,0.0,1.3779,1.3662,1.3598,0.0,0.0,1.3497,1.3755,1.3869,1.4081,1.4945,1.4934,1.4776,1.517,1.5558,1.5784,1.5784,1.5784,1.5751,1.5698,1.5444,1.5297,1.5484,1.5277,1.5371,1.6253,1.648,1.6653,1.6998,1.7132,1.7018,1.6486,1.6426,1.6353,0.0,0.0,0.0,1.7012,1.7637,1.8147,1.829,1.962,2.059,2.1049,2.1954,2.3076,2.4402,2.4402,2.4864,2.5693,2.5693,2.5693,2.5693,2.5693,2.5693,2.5674,2.543,2.5215,2.5077,2.4519,2.4072,2.376,2.3486,2.3227,2.3091,2.3091,2.3091,2.3091,0.0,0.0,0.0,0.0,0.0,0.0,0.0,0.0,0.0,0.0,0.0,0.0,0.0,0.0,0.0,0.0,0.0,0.0,0.0,0.0,0.0,1.5312,1.5811,1.624,1.6658,1.71,1.7715,1.85,1.8955,1.957,2.041,2.041,2.041,2.041,2.041,2.0419,2.041,1.9941,1.9775,1.9707,1.8428,1.7686,1.7207,1.5908,0.0,0.0,0.0,0.0,0.0,0.0,0.0,0.0,0.0,0.0,0.0,1.3816,1.4247,1.5234,1.5031,1.5028,1.5137,1.5691,1.5784,1.5784,1.5784,1.5771,1.5678,1.5431,1.513,1.4955,0.0,0.0,1.4796,1.5598,1.6072,1.64,1.6687,1.7032,1.7112,0.0,0.0,0.0,0.0,0.0,0.0,1.6747,0.0,1.9457,1.9524,2.0837,2.2156,2.3434,2.3633,2.4304,2.5586,2.5693,2.5693,2.5693,2.5693,2.5693,2.5693,2.5693,2.5693,2.5693,2.5693,2.5498,2.5145,2.5125,2.459,2.3857,2.3809,2.3535,2.312,2.3101,2.3091,2.3091,0.0,0.0,0.0,0.0,0.0,0.0,0.0,0.0,0.0,0.0,0.0,0.0,0.0,0.0,0.0,0.0,0.0,0.0,0.0,0.0,0.0,0.0,0.0,1.5781,1.6251,1.6369,1.667,1.7184,1.7291,1.749,1.7672,1.7672,1.7672,1.7672,1.7672,1.7891,1.8198,1.7734,1.7876,1.8379,0.0,1.6689,1.6755,0.0,0.0,0.0,0.0,0.0,0.0,0.0,0.0,0.0,0.0,1.3561,1.392,0.0,0.0,1.4769,1.4925,1.5284,1.5645,1.5792,1.5784,1.5784,1.5784,1.5665,1.5424,1.5182,1.4713,1.4242,0.0,0.0,0.0,1.511,1.5979,0.0,1.7045,1.734,0.0,1.7125,0.0,1.6947,1.6727,1.6907,0.0,0.0,1.765,1.7912,1.808,1.942,2.0282,2.0641,2.2617,2.384,2.4196,2.5226,2.5693,2.5693,2.5693,2.5693,2.5693,2.5693,2.5693,2.5693,2.5693,2.5625,2.5537,2.5205,2.4988,2.4678,2.4043,2.3721,2.3584,2.3218,2.3091,2.3091,0.0,0.0,0.0,0.0,0.0,0.0,0.0,0.0,0.0,0.0,0.0,0.0,0.0,0.0,0.0,0.0,0.0,0.0,0.0,0.0,0.0,0.0,1.4043,1.4441,1.4686,1.4872,1.5156,0.0,0.0,0.0,1.6122,1.6122,1.6122,1.6122,1.6122,1.6289,1.6504,1.6229,0.0,0.0,0.0,0.0,0.0,0.0,0.0,0.0,0.0,0.0,0.0,0.0,0.0,1.56,1.4561,1.4527,1.4736,1.4324,0.0,1.481,1.5231,1.5578,1.5784,1.5784,1.5784,1.5678,1.5344,1.513,1.4816,1.4171,1.3661,0.0,1.2919,1.346,0.0,0.0,0.0,0.0,1.6965,1.7315,1.7522,0.0,1.7462,0.0,1.7308,1.8171,1.8777,0.0,1.8731,1.8688,1.8946,2.0317,2.1306,2.1974,2.3475,2.4569,2.5142,2.5698,2.6025,2.6016,2.5781,2.5693,2.5693,2.5693,2.5693,2.5693,2.5693,2.5693,2.5664,2.5469,2.5244,2.5047,2.4326,2.3955,2.374,2.3257,2.3091,2.3091,0.0,0.0,0.0,0.0,0.0,0.0,0.0,0.0,0.0,0.0,0.0,0.0,0.0,0.0,0.0,0.0,0.0,0.0,0.0,0.0,0.0,0.0,1.2905,1.2905,1.2905,1.3242,1.3578,0.0,0.0,0.0,0.0,0.0,0.0,0.0,0.0,0.0,0.0,0.0,0.0,0.0,0.0,0.0,0.0,0.0,0.0,0.0,0.0,0.0,0.0,0.0,1.6281,1.7341,1.6405,1.6411,1.653,1.5443,1.5122,1.519,1.5691,1.5784,1.5784,1.5784,1.5751,1.5551,1.4842,1.4465,1.4021,1.3058,0.0,1.2084,1.1792,1.2492,1.324,1.35,0.0,1.6286,1.6653,1.7174,1.7555,1.7635,1.7883,1.811,1.836,1.9755,2.0784,2.1047,2.104,2.0986,2.0963,2.2207,2.3535,2.4968,2.502,2.5618,2.697,2.665,2.6445,2.6387,2.6006,2.5742,2.5693,2.5693,2.5693,2.5693,2.5693,2.5693,2.5693,2.5693,2.5508,2.5117,2.4678,2.4248,2.3818,2.3344,2.314,2.3091,0.0,0.0,0.0,0.0,0.0,0.0,0.0,0.0,0.0,0.0,1.0743,1.0303,0.0,0.0,0.0,0.0,0.0,0.0,0.0,0.0,0.0,0.0,1.2905,1.2905,1.2905,0.0,0.0,0.0,0.0,0.0,0.0,0.0,0.0,0.0,0.0,0.0,0.0,0.0,0.0,0.0,0.0,0.0,0.0,0.0,0.0,0.0,0.0,0.0,0.0,0.0,1.6496,1.7964,1.6974,1.6853,1.6907,1.597,1.5678,1.5698,1.5751,1.5784,1.5784,1.5784,1.5651,1.5481,1.5503,1.4441,0.0,0.0,1.2235,1.1416,1.0921,1.194,1.2965,1.324,0.0,0.0,0.0,0.0,1.7408,0.0,0.0,1.8611,2.0077,2.0522,0.0,0.0,2.4044,2.4058,2.2597,2.274,2.3535,2.4968,2.502,2.5618,2.697,2.6943,2.6728,2.6387,2.6309,2.6084,2.5693,2.5693,2.5693,2.5693,2.5693,2.5693,2.5693,2.5693,2.5645,2.5528,2.5127,2.4687,2.4258,2.3828,2.3447,2.3091,0.0,0.0,0.0,0.0,0.0,0.0,0.0,1.0908,1.1064,1.1547,1.1428,1.1211,1.0997,1.1144,1.1349,0.0,0.0,0.0,0.0,0.0,0.0,0.0,0.0,0.0,0.0,0.0,0.0,0.0,0.0,0.0,0.0,0.0,0.0,0.0,0.0,0.0,0.0,0.0,0.0,0.0,0.0,0.0,0.0,0.0,0.0,0.0,0.0,0.0,0.0,0.0,1.6678,1.8245,1.7059,1.7458,1.804,1.629,1.5784,1.5784,1.5784,1.5784,1.5784,1.5784,1.5611,1.5337,1.5081,0.0,0.0,0.0,1.1563,1.085,1.0245,1.1176,0.0,1.2465,0.0,0.0,0.0,0.0,0.0,0.0,0.0,0.0,0.0,2.0637,2.1842,2.3502,2.499,2.5451,2.4619,2.5272,2.6028,2.6692,2.6744,2.7017,2.7676,2.7461,2.7139,2.6709,2.6494,2.6162,2.5693,2.5693,2.5693,2.5693,2.5693,2.5693,2.5693,2.5693,2.5693,2.5645,2.5244,2.4805,2.4365,2.3945,2.3516,2.3091,0.0,0.0,0.0,0.0,0.0,0.0,0.0,1.1133,1.1377,1.1927,1.2363,1.2447,1.2044,1.1917,1.1851,0.0,0.0,0.0,0.0,0.0,0.0,0.0,0.0,0.0,0.0,0.0,0.0,0.0,0.0,0.0,0.0,0.0,0.0,0.0,0.0,0.0,0.0,0.0,0.0,0.0,0.0,0.0,0.0,0.0,0.0,0.0,0.0,0.0,0.0,0.0,1.6413,1.7858,1.6668,1.7664,1.8814,1.6597,1.5866,1.5784,1.5784,1.5784,1.5784,1.5784,1.5565,1.5191,1.4772,1.3851,0.0,0.0,1.0999,1.0492,1.0035,0.0,1.1464,0.0,1.317,1.4329,0.0,0.0,0.0,0.0,0.0,0.0,1.9419,2.1048,0.0,2.371,2.5215,2.6264,2.6545,2.7672,2.8291,2.8291,2.8291,2.8291,2.8291,2.7881,2.7441,2.7012,2.6592,2.6162,2.5693,2.5693,2.5693,2.5693,2.5693,2.5693,2.5693,2.5693,2.5693,2.5654,2.5352,2.4883,2.4375,2.4043,2.3594,2.3091,0.0,0.0,0.0,0.0,0.0,0.0,0.0,1.1846,1.2379,1.3223,1.3665,1.3773,1.3379,1.2988,1.2598,0.0,0.0,0.0,0.0,0.0,0.0,0.0,0.0,0.0,0.0,0.0,0.0,0.0,0.0,0.0,0.0,0.0,0.0,0.0,0.0,0.0,0.0,0.0,0.0,0.0,0.0,0.0,0.0,0.0,0.0,0.0,0.0,0.0,0.0,0.0,0.0,1.6214,1.5549,1.6686,1.8037,1.6728,0.0,0.0,1.5784,1.5784,1.5784,1.5784,1.5418,1.5115,1.541,0.0,0.0,1.2102,1.1138,1.0414,1.0741,1.0735,1.1252,0.0,0.0,1.3794,0.0,0.0,0.0,0.0,0.0,0.0,2.1149,2.2686,2.3654,2.3766,2.5215,2.6653,2.8014,2.8237,2.8291,2.8291,2.8291,2.8291,2.8291,2.7881,2.7441,2.7012,2.6592,2.6162,2.5693,2.5693,2.5693,2.5693,2.5693,2.5693,2.5693,2.5693,2.5693,2.5684,2.5645,2.5109,2.4414,2.4375,2.3793,2.3091,0.0,0.0,0.0,0.0,0.0,0.0,1.1469,1.1731,1.2139,1.3018,1.3695,1.3948,1.3555,1.3584,1.3359,1.2686,0.0,0.0,0.0,0.0,0.0,0.0,0.0,0.0,0.0,0.0,0.0,0.0,0.0,0.0,0.0,0.0,0.0,0.0,0.0,0.0,0.0,0.0,0.0,0.0,0.0,0.0,0.0,0.0,0.0,0.0,0.0,0.0,0.0,0.0,0.0,0.0,1.4699,1.5486,0.0,0.0,1.6064,1.6092,1.5866,1.5784,1.5784,1.5784,1.5647,1.5547,1.5584,0.0,1.3405,1.2326,1.1609,1.0999,1.0315,1.0652,1.1293,1.2095,1.2375,1.3137,1.4964,0.0,0.0,0.0,0.0,0.0,0.0,0.0,2.3207,2.5041,2.6608,2.7672,2.8291,2.8291,2.8291,2.8291,2.8291,2.8291,2.8291,2.8125,2.7695,2.7012,2.6846,2.6406,2.5693,2.5693,2.5693,2.5693,2.5693,2.5693,2.5693,2.5693,2.5693,2.5693,2.5693,2.5148,2.4414,2.4414,2.3832,2.3091,0.0,0.0,0.0,0.0,0.0,1.0596,1.1469,1.1692,1.2093,1.2949,1.3665,1.3997,1.3695,1.3821,1.3685,1.3125,1.2983,0.0,0.0,0.0,0.0,0.0,0.0,0.0,0.0,0.0,0.0,0.0,0.0,0.0,0.0,0.0,0.0,0.0,0.0,0.0,0.0,0.0,0.0,0.0,0.0,0.0,0.0,0.0,0.0,0.0,0.0,0.0,0.0,0.0,0.0,0.0,0.0,0.0,0.0,0.0,1.6007,1.6228,1.6461,1.6427,1.6339,1.6339,1.64,1.6297,0.0,1.5049,1.4101,1.2688,1.207,1.154,1.0692,1.1056,1.1559,1.1772,1.2314,1.3308,1.4963,1.5127,0.0,0.0,0.0,1.8914,0.0,2.1861,2.3031,2.649,2.733,2.7843,2.8291,2.8291,2.8291,2.8291,2.8291,2.8291,2.8291,2.8037,2.7617,2.7012,2.6758,2.6269,2.5693,2.5693,2.5693,2.5693,2.5693,2.5693,2.5693,2.5693,2.5693,2.5693,2.5693,2.5148,2.4414,2.4414,2.3832,2.3091,0.0,0.0,0.0,0.0,0.0,0.0,1.1469,1.1943,1.2506,1.3389,1.3851,1.4104,1.4104,1.3734,1.3516,1.3496,1.3125,0.0,0.0,0.0,0.0,0.0,0.0,0.0,0.0,0.0,0.0,1.3496,0.0,0.0,0.0,0.0,0.0,0.0,0.0,0.0,0.0,0.0,0.0,0.0,0.0,0.0,0.0,0.0,0.0,0.0,0.0,0.0,0.0,0.0,0.0,0.0,0.0,0.0,0.0,0.0,1.5949,1.6057,1.773,1.7942,1.7692,1.7692,1.7728,1.7392,0.0,1.5049,1.4223,1.3275,1.2408,1.195,1.2382,1.2152,1.2077,1.269,1.3754,1.4724,1.5418,1.602,0.0,0.0,0.0,1.7561,1.8465,2.0386,2.3479,2.796,2.6943,0.0,2.8237,2.8291,2.8291,2.8291,2.8291,2.8291,2.8291,2.7451,2.7021,2.7002,2.6103,2.5693,2.5693,2.5693,2.5693,2.5693,2.5693,2.5693,2.5693,2.5693,2.5693,2.5693,2.5693,2.5148,2.4414,2.4414,2.3832,2.3091,0.0,0.0,0.0,0.0,0.0,0.0,0.0,1.1506,1.2005,1.2535,1.3237,1.3685,1.3685,1.3584,1.3506,1.3506,1.3125,0.0,0.0,0.0,0.0,0.0,0.0,0.0,0.0,0.0,1.3379,1.3506,1.4092,1.4228,0.0,0.0,0.0,0.0,0.0,0.0,0.0,0.0,0.0,0.0,0.0,0.0,0.0,0.0,0.0,0.0,0.0,0.0,0.0,0.0,0.0,0.0,0.0,0.0,0.0,1.4592,0.0,0.0,1.6363,1.6586,1.668,1.6355,1.6485,1.6493,1.5716,1.5087,1.4401,1.3332,1.2798,1.2376,1.1782,1.2395,1.323,1.3987,1.4857,0.0,0.0,0.0,0.0,2.1065,2.3377,2.4508,0.0,0.0,2.678,2.8184,2.7843,2.7789,2.8291,2.8291,2.8291,2.8291,2.8291,2.8154,2.7861,2.7598,2.7168,2.6582,2.6309,2.6025,2.5693,2.5693,2.5693,2.5693,2.5693,2.5693,2.5693,2.5693,2.5693,2.5693,2.5693,2.5148,2.4414,2.4414,2.3832,2.3091,0.0,0.0,0.0,0.0,0.0,0.0,0.0,1.1143,1.1496,1.1924,1.2588,1.3086,1.3252,1.3271,1.334,1.3496,1.3125,0.0,0.0,0.0,0.0,0.0,0.0,0.0,0.0,1.3135,1.3506,1.3994,1.4521,1.4814,1.4863,1.4863,1.4463,0.0,0.0,0.0,0.0,0.0,0.0,0.0,0.0,0.0,0.0,0.0,0.0,0.0,0.0,0.0,0.0,0.0,0.0,0.0,0.0,0.0,0.0,0.0,1.461,1.5535,0.0,1.6509,1.6679,1.6378,1.6612,1.6613,1.5506,1.5022,1.4499,1.3471,1.3071,1.2704,1.2038,1.2905,1.3788,1.4003,1.5239,1.6542,0.0,0.0,0.0,2.1904,0.0,0.0,0.0,2.6819,2.7726,2.8237,2.8291,2.8291,2.8291,2.8144,2.8057,2.8057,2.8057,2.793,2.7718,2.7344,2.6914,2.6387,2.6221,2.5996,2.5693,2.5693,2.5693,2.5693,2.5693,2.5693,0.0,2.5693,2.5693,2.5674,2.5557,2.5049,2.4394,2.4238,2.374,2.3091,0.0,0.0,0.0,0.0,0.0,0.0,0.0,1.0909,1.1055,1.1477,1.1934,1.2359,1.2793,1.2886,1.3037,1.3428,0.0,0.0,0.0,0.0,0.0,0.0,0.0,0.0,0.0,1.2964,1.359,1.4813,1.4873,1.5361,1.6144,1.6144,1.542,1.4153,0.0,0.0,0.0,0.0,0.0,0.0,0.0,0.0,0.0,0.0,0.0,0.0,0.0,0.0,0.0,0.0,0.0,0.0,0.0,0.0,0.0,0.0,0.0,0.0,0.0,1.721,0.0,1.7268,1.75,1.7211,1.5289,1.4777,0.0,1.3672,1.3174,1.2935,1.3023,1.3633,1.393,1.3377,1.5309,1.7202,0.0,1.9051,0.0,0.0,2.2663,0.0,2.5267,2.5943,2.6825,2.8184,2.8262,2.8252,2.8252,2.7851,2.7669,2.7669,2.764,2.763,2.763,2.6787,2.6367,2.6338,2.5937,2.5693,2.5693,2.5693,2.5693,2.5693,2.5693,2.5693,2.5693,2.5693,2.5693,2.5645,2.5283,2.4834,2.4365,2.3975,2.3545,2.3091,0.0,0.0,0.0,0.0,0.0,0.0,0.0,0.0,0.0,0.0,1.1726,1.2242,1.235,1.2676,1.2944,0.0,0.0,0.0,0.0,0.0,0.0,0.0,0.0,0.0,0.0,1.3516,1.415,1.4813,1.5791,1.6346,1.6541,1.6541,1.5879,1.4619,1.425,0.0,0.0,0.0,0.0,0.0,0.0,0.0,0.0,0.0,0.0,0.0,0.0,1.2905,0.0,0.0,0.0,0.0,0.0,0.0,0.0,0.0,1.333,1.3743,1.4277,0.0,1.5363,1.4971,1.4955,1.4877,0.0,1.4032,1.375,1.3545,0.0,1.3208,1.4187,1.4202,1.4798,1.6937,1.8065,1.8902,1.9466,0.0,0.0,2.5428,2.6206,2.6812,2.7516,2.7718,2.795,2.8291,2.7998,2.7812,2.7812,2.7402,2.7168,2.7168,2.6855,2.6689,2.6689,2.6484,2.6221,2.584,2.5732,2.5693,2.5693,2.5693,2.5693,2.5693,2.5693,2.5693,2.5693,2.5693,2.5693,2.5674,2.5625,2.5098,2.4404,2.4307,2.3789,2.3091,0.0,0.0,0.0,0.0,0.0,0.0,0.0,0.0,0.0,0.0,0.0,0.0,0.0,0.0,0.0,0.0,0.0,0.0,0.0,0.0,0.0,0.0,0.0,0.0,1.2905,1.3516,1.4248,1.5068,1.5977,1.6728,1.7291,1.7291,1.6621,1.5351,1.4307,1.3486,0.0,0.0,0.0,0.0,0.0,0.0,0.0,0.0,0.0,0.0,1.2905,1.2905,0.0,1.333,1.333,1.3203,0.0,0.0,0.0,0.0,1.3037,1.3223,1.3223,1.4131,1.5019,1.4747,1.4689,1.464,1.4445,0.0,0.0,0.0,0.0,0.0,1.4326,1.4775,1.5684,1.7734,1.875,0.0,0.0,0.0,2.4196,2.6703,2.7402,2.7885,0.0,2.8115,2.8008,2.8008,2.7607,2.7373,2.7373,2.6963,2.6728,2.6728,2.6309,2.6182,2.6387,2.6191,2.5967,2.5693,2.5693,2.5693,2.5693,2.5693,2.5693,2.5693,2.5693,2.5693,2.5693,2.5693,2.5693,2.5645,2.5245,2.4834,2.4365,2.3929,2.3491,2.3091,0.0,0.0,0.0,0.0,0.0,0.0,0.0,0.0,0.0,0.0,0.0,0.0,0.0,0.0,0.0,0.0,0.0,0.0,0.0,0.0,0.0,0.0,0.0,1.2964,1.3066,1.3418,1.4228,1.5508,1.6046,1.6897,1.8008,1.8076,1.7334,1.5919,1.4307,1.334,0.0,0.0,0.0,0.0,0.0,0.0,0.0,0.0,0.0,0.0,0.0,0.0,0.0,1.3701,1.3724,1.3555,1.3821,0.0,0.0,0.0,0.0,0.0,1.314,1.4316,1.5449,1.5186,1.5225,1.5205,1.4785,0.0,0.0,0.0,0.0,0.0,0.0,1.5527,0.0,0.0,0.0,0.0,2.3061,2.3485,2.4382,2.6616,2.7246,0.0,2.8057,2.7773,2.7568,2.7568,2.7168,2.6914,2.6914,2.6514,2.6289,2.6289,2.5937,2.5869,2.6289,2.5918,2.5693,2.5693,2.5693,2.5693,2.5693,2.5693,2.5693,2.5693,2.5693,2.5693,2.5693,2.5693,2.5645,2.5566,2.4814,2.4434,2.4228,2.3461,2.3149,2.3091,0.0,0.0,0.0,0.0,0.0,0.0,0.0,0.0,0.0,0.0,0.0,0.0,0.0,0.0,0.0,0.0,0.0,0.0,0.0,0.0,0.0,0.0,1.2905,1.3213,1.3899,1.3977,1.4668,1.5987,1.6809,1.7471,1.8018,1.8344,1.7428,1.5469,1.4455,1.3603,1.2905,0.0,0.0,0.0,0.0,0.0,0.0,0.0,0.0,0.0,0.0,0.0,0.0,1.3027,1.3271,1.3457,1.3164,0.0,0.0,0.0,0.0,0.0,1.4226,1.5244,1.5645,1.416,1.4346,1.4766,1.4309,0.0,0.0,0.0,0.0,0.0,0.0,1.7051,1.7856,0.0,0.0,2.2539,0.0,0.0,2.5218,2.6367,0.0,2.6748,2.7168,2.7158,2.7119,2.7119,2.6728,2.6484,2.6484,2.6074,2.5791,2.5791,2.5723,2.5713,2.5791,2.5723,2.5693,2.5693,2.5693,2.5693,2.5693,2.5693,2.5693,2.5693,2.5693,2.5693,2.5693,2.5693,2.5518,2.5156,2.5019,2.4521,2.3867,2.374,2.3457,2.3091,0.0,0.0,0.0,0.0,0.0,0.0,0.0,0.0,0.0,0.0,0.0,0.0,0.0,0.0,0.0,0.0,0.0,0.0,0.0,0.0,0.0,1.3213,1.3213,1.3398,1.3763,1.4445,1.5352,1.6426,1.7519,1.8281,1.8691,1.8193,1.7051,1.5342,1.4494,1.3636,1.2905,0.0,0.0,0.0,0.0,0.0,0.0,0.0,0.0,0.0,0.0,0.0,0.0,0.0,1.3496,1.3743,1.335,0.0,0.0,0.0,0.0,0.0,1.3619,1.4568,1.5263,1.4678,1.5537,1.6416,1.5986,1.5683,0.0,0.0,0.0,0.0,0.0,0.0,1.9453,2.1611,0.0,2.283,2.4526,2.4402,2.4697,0.0,0.0,2.6553,2.6973,2.6807,2.668,2.668,2.6279,2.6035,2.6035,2.5801,2.5693,2.5693,2.5693,2.5693,2.5693,2.5693,2.5693,2.5693,2.5693,2.5693,2.5693,2.5693,2.5693,2.5693,2.5693,2.5693,2.5693,2.5693,2.5478,2.5086,2.4805,2.4336,2.376,2.3525,2.331,2.3091,0.0,0.0,0.0,0.0,0.0,0.0,0.0,0.0,0.0,0.0,0.0,0.0,0.0,0.0,0.0,0.0,0.0,0.0,0.0,0.0,1.3052,1.335,1.3545,1.3821,1.4231,1.5117,1.6143,1.7301,1.8276,1.8965,1.9268,1.8184,1.6865,1.5381,1.4591,1.376,1.2905,1.2905,1.2905,0.0,0.0,0.0,0.0,0.0,0.0,0.0,0.0,0.0,0.0,0.0,0.0,0.0,0.0,0.0,0.0,1.3242,1.3027,1.312,1.3389,1.4189,1.5059,1.5586,0.0,1.7578,1.7656,1.7266,1.6941,0.0,0.0,0.0,0.0,1.9658,0.0,2.2945,2.287,2.3158,2.4857,2.4373,2.4433,2.6053,2.624,2.6357,2.6689,2.6426,2.624,2.624,2.5879,2.5693,2.5693,2.5693,2.5693,2.5693,2.5693,2.5693,2.5693,2.5693,2.5693,2.5693,2.5693,2.5693,2.5693,2.5693,2.5693,2.5693,2.5693,2.5625,2.5586,2.5586,2.5264,2.4783,2.4394,2.4014,2.3594,2.3218,2.3091,2.3091,0.0,0.0,0.0,0.0,0.0,0.0,0.0,0.0,0.0,0.0,0.0,0.0,0.0,0.0,0.0,0.0,0.0,0.0,0.0,0.0,1.2915,1.2954,1.3646,1.4816,1.6434,1.6182,1.7063,1.9102,1.9189,1.9258,1.9277,1.8744,1.7399,1.5391,1.4941,1.4069,1.2905,1.2905,1.2905,0.0,0.0,0.0,0.0,0.0,0.0,0.0,0.0,0.0,0.0,0.0,0.0,0.0,0.0,0.0,1.4016,1.3594,1.3467,1.3721,1.4912,1.5293,1.5576,1.6395,1.6416,1.6643,1.8159,1.792,0.0,1.8857,0.0,0.0,0.0,2.1445,2.2637,2.3584,2.4001,2.4438,2.5,2.5324,2.5557,2.5723,2.5732,2.5742,2.5771,2.5752,2.5732,2.5732,2.5703,2.5693,2.5693,2.5693,2.5693,2.5693,2.5693,2.5693,2.5693,2.5693,2.5693,2.5693,2.5693,2.5693,2.5693,2.5693,2.5693,2.5693,2.5693,2.5508,2.5117,2.5117,2.4629,2.3877,2.3848,2.3574,2.314,2.311,2.3091,2.3091,0.0,0.0,0.0,0.0,0.0,0.0,0.0,0.0,0.0,0.0,0.0,0.0,0.0,0.0,0.0,0.0,0.0,0.0,0.0,0.0,1.3023,1.3262,1.3802,1.466,1.5889,1.6807,1.793,1.9287,1.9551,1.9541,1.9268,1.8311,1.7129,1.5811,1.5116,1.4365,1.3617,1.3379,1.3271,1.3242,0.0,0.0,0.0,0.0,0.0,0.0,0.0,0.0,0.0,0.0,1.3291,1.3467,1.3203,1.3408,1.3662,1.3242,1.3125,1.3223,1.3711,1.4805,1.5957,1.6551,1.7174,0.0,0.0,1.9424,1.999,2.0752,2.1035,0.0,0.0,0.0,2.2881,2.3994,2.4316,2.4668,2.5381,2.5586,2.5693,2.5693,2.5693,2.5693,2.5693,2.5693,2.5693,2.5693,2.5693,2.5693,2.5693,2.5693,2.5693,2.5693,2.5693,2.5693,2.5693,2.5693,2.5693,2.5693,2.5693,2.5693,2.5693,2.5693,2.5693,2.5674,2.5439,2.5225,2.5096,2.4775,2.4316,2.376,2.3496,2.3247,2.3091,2.3091,2.3091,2.3091,0.0,0.0,0.0,0.0,0.0,0.0,0.0,0.0,0.0,0.0,0.0,0.0,0.0,0.0,0.0,0.0,0.0,0.0,1.2905,1.2905,1.3008,1.3301,1.3812,1.4504,1.5391,1.6992,1.8301,1.9287,1.9844,1.9697,1.8867,1.7988,1.7073,1.6065,1.5332,1.4746,1.427,1.374,1.3506,1.3467,0.0,0.0,0.0,0.0,0.0,0.0,0.0,0.0,0.0,0.0,1.3184,1.3281,1.315,1.3271,1.3447,1.3164,1.3271,1.3512,1.3512,1.4666,1.6065,1.6758,0.0,0.0,1.9707,2.0478,2.1299,2.2285,2.249,2.2578,2.2861,0.0,0.0,0.0,2.4531,2.4883,2.5586,2.5693,2.5693,2.5693,2.5693,2.5693,2.5693,2.5693,2.5693,2.5693,2.5693,2.5693,2.5693,2.5693,2.5693,2.5693,2.5693,2.5693,2.5693,2.5693,2.5693,2.5693,2.5693,2.5693,2.5693,2.5693,2.5615,2.5508,2.5205,2.4959,2.4639,2.4336,2.3965,2.3555,2.3218,2.3091,2.3091,2.3091,2.3091,2.3091,0.0,0.0,0.0,0.0,0.0,0.0,0.0,0.0,0.0,0.0,0.0,0.0,0.0,0.0,0.0,0.0,0.0,0.0,1.2905,1.2905,1.2905,1.2905,1.3656,1.4494,1.5342,1.6689,1.7998,1.9277,2.0165,1.9678,1.8008,1.7998,1.7305,1.6075,1.5615,1.5186,1.4764,1.3877,1.3516,1.3486,1.3057,0.0,0.0,0.0,0.0,0.0,0.0,0.0,0.0,0.0,1.3223,1.2983,1.3369,1.3506,1.3516,1.3506,1.4102,1.4775,1.4803,1.5088,1.5742,1.7061,0.0,0.0,2.081,2.0908,2.1241,2.335,2.3799,2.3799,2.3799,2.3799,0.0,2.4355,2.4785,2.5225,2.5625,2.5693,2.5693,2.5693,2.5693,2.5693,2.5693,2.5693,2.5693,2.5693,2.5693,2.5693,2.5693,2.5693,2.5693,2.5693,2.5693,2.5693,2.5693,2.5693,2.5693,2.5684,2.5684,2.5684,2.5693,2.5684,2.5488,2.5116,2.5106,2.4617,2.3789,2.3789,2.3525,2.3091,2.3091,2.3091,2.3091,2.3091,2.3091,2.3091,0.0,0.0,0.0,0.0,0.0,0.0,0.0,0.0,0.0,0.0,0.0,0.0,0.0,0.0,0.0,0.0,0.0,0.0,1.2905,1.2905,1.2905,1.2905,1.3408,1.3809,1.4072,1.5342,1.6924,1.8792,1.9082,1.8643,1.7559,1.7223,1.6738,1.6085,1.5958,1.5625,1.5166,1.428,1.4121,1.4346,1.3613,1.332,0.0,0.0,0.0,0.0,0.0,0.0,0.0,0.0,0.0,0.0,1.3027,1.3477,1.3802,1.3242,1.3662,1.4258,1.3965,1.5059,0.0,1.7578,0.0,0.0,0.0,2.2256,0.0,0.0,2.4228,2.4228,2.4228,2.4228,2.4375,2.4805,2.5028,2.5225,2.5625,2.5693,2.5693,2.5693,2.5693,2.5693,2.5693,2.5693,2.5693,2.5693,2.5693,2.5693,2.5693,2.5693,2.5693,2.5693,2.5693,2.5693,2.5693,2.5693,2.5586,2.5273,2.5273,2.543,2.5674,2.541,2.5195,2.5086,2.4434,2.4023,2.3769,2.3457,2.3218,2.3091,2.3091,2.3091,2.3091,2.3091,2.3091,2.3091,0.0,0.0,0.0,0.0,0.0,0.0,0.0,0.0,0.0,0.0,0.0,0.0,0.0,0.0,0.0,0.0,0.0,0.0,0.0,0.0,1.2983,1.3125,1.3369,1.374,1.4248,1.5186,1.6221,1.7321,1.7529,1.7266,1.6602,1.6865,1.6758,1.6338,1.6689,1.6437,1.5625,1.4903,1.4572,1.4482,1.3965,1.3627,1.3506,0.0,0.0,0.0,0.0,0.0,0.0,0.0,0.0,0.0,1.2905,0.0,1.3578,1.3428,1.3984,1.4669,1.4971,1.624,0.0,1.8948,2.0235,2.1551,2.2959,0.0,0.0,0.0,2.4678,2.4678,2.4678,2.4678,2.4756,2.5077,2.5215,2.543,2.5654,2.5693,2.5693,2.5693,2.5693,2.5693,2.5693,2.5693,2.5693,2.5693,2.5693,2.5693,2.5693,2.5566,2.5469,2.5469,2.5303,2.5167,2.5167,2.5167,2.5078,2.4805,2.4805,2.4951,2.5157,2.4932,2.4717,2.4521,2.3828,2.3525,2.3516,2.3198,2.3091,2.3091,2.3091,2.3091,2.3091,2.3091,2.3091,2.3091,0.0,0.0,0.0,0.0,0.0,0.0,0.0,0.0,0.0,0.0,0.0,0.0,0.0,0.0,0.0,0.0,0.0,0.0,0.0,0.0,1.3066,1.3486,1.3584,1.417,1.5332,1.5733,1.5723,1.5264,1.584,1.585,1.5381,1.6709,1.709,1.6677,1.7496,1.7187,1.6007,1.5498,1.4816,1.4104,1.4065,1.3821,1.3506,1.3506,0.0,0.0,0.0,0.0,0.0,0.0,0.0,0.0,1.2905,1.2954,1.3135,1.3792,1.465,1.5674,1.6875,1.7881,0.0,2.0703,2.1249,0.0,2.3906,2.4385,2.4551,2.5029,0.0,2.5127,2.5127,2.5127,2.5127,2.5127,2.5469,2.5693,2.5693,2.5693,2.5693,2.5693,2.5693,2.5693,2.5693,2.5693,2.5693,2.5693,2.5693,2.5674,2.5625,2.5293,2.5096,2.5057,2.4619,2.4414,2.4414,2.4414,2.4394,2.4365,2.4365,2.4336,2.4297,2.4346,2.4131,2.3711,2.331,2.3091,2.3091,2.3091,2.3091,2.3091,2.3091,2.3091,2.3091,2.3091,2.3091,2.3091,0.0,0.0,0.0,0.0,0.0,0.0,0.0,0.0,0.0,0.0,0.0,0.0,0.0,0.0,0.0,0.0,0.0,0.0,0.0,0.0,1.3066,1.3486,1.415,1.4639,1.4912,1.4678,1.4475,1.4377,1.5518,1.5703,1.4951,1.626,1.6631,1.6261,1.6768,1.6434,1.5498,1.4708,1.428,1.4075,1.3753,1.3584,1.3506,1.3506,1.3242,0.0,0.0,0.0,0.0,0.0,0.0,0.0,1.2905,1.333,1.3743,1.3291,1.4228,1.5478,1.5762,1.6963,0.0,0.0,2.1728,2.2896,2.374,2.418,2.4639,2.543,2.5596,2.5596,2.5596,2.5596,2.5596,2.5596,2.5625,2.5693,2.5693,2.5693,2.5693,2.5693,2.5693,2.5693,2.5693,2.5693,2.5693,2.5693,2.5693,2.5586,2.5234,2.5165,2.4912,2.456,2.4463,2.4414,2.4414,2.4414,2.4248,2.3926,2.3926,2.374,2.3383,2.3769,2.3682,2.3227,2.314,2.3091,2.3091,2.3091,2.3091,2.3091,2.3091,2.3091,2.3091,2.3091,2.3091,2.3222,0.0,0.0,0.0,0.0,0.0,0.0,0.0,0.0,0.0,0.0,0.0,0.0,0.0,0.0,0.0,0.0,0.0,0.0,0.0,0.0,1.3164,1.3753,1.4434,1.4813,1.4813,1.4328,1.4104,1.4104,1.4814,1.5019,1.4814,1.6328,1.7031,1.7012,1.7418,1.6892,1.5684,1.5019,1.4367,1.3802,1.3792,1.3665,1.3506,1.3506,1.3242,1.2905,1.2905,0.0,0.0,0.0,0.0,0.0,0.0,0.0,1.3525,1.3486,1.4258,1.5342,1.6377,0.0,0.0,2.1318,0.0,2.3208,2.3691,2.3965,2.4307,2.4923,2.5391,2.5693,2.5693,2.5693,2.5693,2.5693,2.5693,2.5693,2.5693,2.5693,2.5693,2.5693,2.5693,2.5693,2.5693,2.5693,2.5596,2.543,2.542,2.5225,2.4775,2.456,2.4355,2.4121,2.3916,2.3764,2.3764,2.3764,2.3647,2.3477,2.3477,2.3359,2.3101,2.3335,2.3305,2.3091,2.3091,2.3091,2.3091,2.3091,2.3091,2.3091,2.3091,2.3091,2.3091,2.3091,2.3091,2.3256,0.0,0.0,0.0,0.0,0.0,0.0,0.0,0.0,0.0,0.0,0.0,0.0,0.0,0.0,0.0,0.0,0.0,0.0,0.0,1.2974,1.3301,1.3968,1.4443,1.4678,1.4678,1.4221,1.4036,1.4104,1.4036,1.4443,0.0,0.0,1.7607,1.8018,1.8301,1.75,1.5948,1.541,1.4502,1.3428,1.3753,1.3685,1.3398,1.3398,1.3184,1.2905,1.2905,1.2905,1.2905,1.2905,0.0,0.0,0.0,0.0,1.3042,1.3685,1.4277,1.5078,1.6943,0.0,2.042,2.2467,2.3042,0.0,2.3594,2.374,2.3887,2.4238,2.4951,2.546,2.546,2.546,2.546,2.546,2.5528,2.5625,2.5625,2.5625,2.5625,2.5625,2.5508,2.546,2.546,2.546,2.5361,2.498,2.4998,2.4766,2.4336,2.3975,2.375,2.3682,2.3286,2.3091,2.3091,2.3091,2.3091,2.3091,2.3091,2.3091,2.3091,2.3091,2.3091,2.3091,2.3091,2.3091,2.3091,2.3091,2.3091,2.3091,2.3091,2.3091,2.3091,2.3091,2.3222,2.3551,0.0,0.0,0.0,0.0,0.0,0.0,0.0,0.0,0.0,0.0,0.0,1.2905,1.2905,1.2905,0.0,0.0,0.0,0.0,1.2905,0.0,0.0,1.3584,1.3968,1.4192,1.4192,1.3782,1.3743,1.4104,1.3743,0.0,0.0,0.0,0.0,1.7998,0.0,0.0,0.0,0.0,1.3763,1.2969,1.3052,1.3042,1.2993,1.2993,1.2954,1.2905,1.2905,1.2905,1.2905,1.2905,1.2905,0.0,0.0,0.0,1.2925,1.3042,1.3603,1.4338,0.0,0.0,2.0342,0.0,2.2828,2.311,0.0,0.0,2.3809,0.0,2.4258,2.459,2.459,2.459,2.459,2.459,2.4912,2.5156,2.5156,2.5156,2.5156,2.5156,2.4824,2.459,2.459,2.459,2.457,2.4502,2.4502,2.4316,2.3896,2.3818,2.3613,2.3198,2.312,2.3091,2.3091,2.3091,2.3091,2.3091,2.3091,2.3091,2.3091,2.3091,2.3091,2.3091,2.3091,2.3091,2.3091,2.3091,2.3091,2.3091,2.3091,2.3091,2.3091,2.3091,2.3714,2.4755,0.0,0.0,0.0,0.0,0.0,0.0,0.0,0.0,0.0,0.0,0.0,1.2905,1.2905,1.2905,0.0,0.0,0.0,0.0,1.2905,1.3081,0.0,0.0,1.3656,1.3753,1.3753,1.3578,1.3603,1.3753,0.0,0.0,0.0,1.7734,1.8477,0.0,0.0,0.0,0.0,0.0,1.4004,1.3213,1.3003,1.3447,1.4189,1.3267,1.3477,1.418,1.3248,1.2905,1.2905,1.2905,1.2905,1.2905,1.2905,0.0,0.0,0.0,1.3311,1.4189,1.6084,1.8047,2.0039,0.0,2.2646,2.2808,2.3042,0.0,2.3428,2.3428,2.3574,2.3803,2.4326,2.4414,2.4414,2.4414,2.458,2.4697,2.4697,2.4697,2.4697,2.4697,2.4531,2.4414,2.4414,2.4414,2.4316,2.4082,2.4062,2.3877,2.3447,2.3428,2.3296,2.3101,2.3091,2.3091,2.3091,2.3091,2.3091,2.3091,2.3091,2.3091,2.3091,2.3091,2.3091,2.3091,2.3091,2.3091,2.3091,2.3091,2.3091,2.3091,2.3091,2.3091,2.3091,2.3091,2.343,2.4092,0.0,0.0,0.0,0.0,0.0,0.0,0.0,0.0,0.0,0.0,0.0,0.0,1.2905,0.0,0.0,0.0,0.0,0.0,1.2905,0.0,0.0,0.0,0.0,1.335,1.335,1.335,1.3398,1.3506,0.0,0.0,1.813,1.813,1.9407,0.0,2.0244,1.8955,0.0,0.0,0.0,0.0,1.3652,1.4287,1.5322,1.4502,1.4971,1.585,1.4131,1.3551,1.3482,1.3052,1.2905,1.2905,1.2905,1.2905,0.0,0.0,0.0,0.0,0.0,0.0,1.8984,2.1152,2.1943,2.2324,0.0,0.0,2.3091,0.0,2.3091,2.3296,2.3929,2.4092,2.4092,2.4092,2.4189,2.4258,2.4258,2.4258,2.4258,2.4258,2.416,2.4092,2.4092,2.4092,2.3965,2.3643,2.3623,2.3486,2.311,2.3091,2.3091,2.3091,2.3091,2.3091,2.3091,2.3091,2.3091,2.3091,2.3091,2.3091,2.3091,2.3091,2.3091,2.3091,2.3091,2.3091,2.3091,2.3091,2.3091,2.3091,2.3091,2.3091,2.3091,2.3091,2.3256,2.38,0.0,0.0,0.0,0.0,0.0,0.0,0.0,0.0,0.0,0.0,0.0,0.0,0.0,0.0,0.0,0.0,0.0,0.0,0.0,0.0,0.0,0.0,0.0,0.0,1.2935,1.2935,1.3105,0.0,0.0,0.0,1.8568,1.8568,2.0147,2.2925,2.126,1.9392,1.7353,0.0,0.0,0.0,0.0,1.5332,1.5586,1.7148,1.7793,1.7646,1.5898,1.5283,1.5029,0.0,1.2905,1.2905,1.2905,1.2905,1.2905,0.0,0.0,0.0,0.0,1.5606,0.0,1.8916,2.0391,0.0,0.0,0.0,2.3091,2.3091,2.3091,2.311,2.3149,2.3159,2.3159,2.3159,2.3555,2.3828,2.3828,2.3828,2.3828,2.3828,2.3457,2.3159,2.3159,2.3159,2.3149,2.313,2.313,2.312,2.3091,2.3091,2.3091,2.3091,2.3091,2.3091,2.3091,2.3091,2.3091,2.3091,2.3091,2.3091,2.3091,2.3091,2.3091,2.3091,2.3091,2.3091,2.3091,2.3091,2.3091,2.3091,2.3091,2.3091,2.3091,2.3091,2.38,2.4872,0.0,0.0,0.0,0.0,0.0,0.0,0.0,0.0,0.0,0.0,0.0,0.0,0.0,1.2905,1.2905,1.2905,1.2905,0.0,0.0,0.0,0.0,0.0,0.0,0.0,0.0,1.2905,0.0,0.0,0.0,1.4434,1.6992,1.7243,1.8393,2.0206,2.0176,1.9873,1.9294,1.6719,0.0,0.0,0.0,1.666,1.79,1.7978,1.8691,1.9424,1.7695,0.0,0.0,0.0,0.0,1.3281,1.3281,1.3096,1.2905,1.2905,1.2905,0.0,0.0,0.0,0.0,1.793,1.9228,2.0205,2.1064,2.2021,2.2691,2.2691,2.2906,2.3091,2.3091,2.3091,2.3091,2.3091,2.3227,2.3369,2.3369,2.3369,2.3369,2.3369,2.3188,2.3091,2.3091,2.3091,2.3091,2.3091,2.3091,2.3091,2.3091,2.3091,2.3091,2.3091,2.3091,2.3091,2.3091,2.3091,2.3091,2.3091,2.3091,2.3091,2.3091,2.3091,2.3091,2.3091,2.3091,2.3091,2.3091,2.3091,2.3091,2.3091,2.3091,2.3551,2.4168,2.4168,2.4925,2.6047,0.0,0.0,0.0,0.0,0.0,0.0,0.0,0.0,0.0,1.2905,0.0,0.0,0.0,0.0,1.2905,1.2905,1.2905,1.2905,1.2905,0.0,0.0,0.0,0.0,0.0,0.0,1.3042,1.3052,0.0,0.0,0.0,0.0,1.6299,1.7233,1.8598,1.8633,1.9268,0.0,0.0,0.0,1.7578,0.0,1.8213,1.9512,1.9668,2.0439,2.1201,1.9482,0.0,0.0,0.0,0.0,0.0,1.4023,1.3447,1.2905,1.2905,1.2905,0.0,1.3942,0.0,0.0,0.0,0.0,1.8697,2.04,2.123,2.1807,2.2393,2.2691,2.2925,2.3071,2.3091,2.3091,2.3091,2.3091,2.3091,2.3091,2.3091,2.3091,2.3091,2.3091,2.3091,2.3091,2.3091,2.3091,2.3091,2.3091,2.3091,2.3091,2.3091,2.3091,2.3091,2.3091,2.3091,2.3091,2.3091,2.3091,2.3091,2.3091,2.3091,2.3091,2.3091,2.3091,2.3091,2.3091,2.3091,2.3091,2.3091,2.3091,2.3091,2.3091,2.38,2.4787,2.4787,2.5504,2.6637,0.0,0.0,0.0,0.0,0.0,0.0,0.0,0.0,1.2905,1.2925,0.0,0.0,0.0,0.0,0.0,1.2964,1.2954,1.2935,1.2925,1.2915,0.0,0.0,0.0,0.0,0.0,1.3281,1.3291,1.2905,1.3665,1.4504,1.5361,0.0,1.6914,1.8432,1.6807,1.7494,1.9785,0.0,1.9199,1.9336,0.0,1.9893,2.0205,0.0,2.3071,2.2877,2.124,2.0654,0.0,1.8228,0.0,0.0,1.5077,1.3906,1.2925,1.2905,1.2915,0.0,0.0,0.0,0.0,0.0,0.0,0.0,2.0274,0.0,2.0332,2.208,2.2441,2.2588,2.2994,2.3091,2.3091,2.3091,2.3091,2.3091,2.3091,2.3091,2.3091,2.3091,2.3091,2.3091,2.3091,2.3091,2.3091,2.3091,2.3091,2.3091,2.3091,2.3091,2.3091,2.3091,2.3091,2.3091,2.3091,2.3091,2.3091,2.3091,2.3091,2.3091,2.3091,2.3091,2.3091,2.3091,2.3091,2.3091,2.3091,2.3091,2.3091,2.3091,2.3091,2.38,2.483,2.483,2.5588,2.676,0.0,0.0,0.0,0.0,0.0,1.2905,1.2905,1.2905,1.2988,0.0,0.0,0.0,1.389,1.4141,1.4258,1.4258,1.3965,1.3627,1.335,1.3047,1.2905,1.2905,1.2905,1.2905,1.2905,1.3023,1.3023,1.2905,1.3115,1.3506,1.4043,1.4473,1.5225,1.6268,1.6163,1.6641,1.7496,1.6112,0.0,1.9648,1.8525,1.9394,0.0,0.0,0.0,0.0,0.0,2.1836,2.0957,0.0,1.876,1.6731,0.0,0.0,0.0,1.2993,0.0,0.0,1.2983,0.0,0.0,0.0,0.0,0.0,0.0,0.0,1.8564,2.0283,2.0889,2.1426,2.249,2.2886,2.3091,2.3091,2.3091,2.3091,2.3091,2.3091,2.3091,2.3091,2.3091,2.3091,2.3091,2.3091,2.3091,2.3091,2.3091,2.3091,2.3091,2.3091,2.3091,2.3091,2.3091,2.3091,2.3091,2.3091,2.3091,2.3091,2.3091,2.3091,2.3091,2.3091,2.3091,2.3091,2.3091,2.3091,2.3091,2.3091,2.3091,2.3091,2.3091,2.4307,2.6016,2.6016,2.7261,2.8922,0.0,0.0,0.0,0.0,0.0,1.3698,1.3698,1.3698,1.3786,0.0,0.0,0.0,1.4365,1.5283,1.5576,1.4844,1.4358,1.3929,1.3535,1.3115,1.2905,1.2905,1.2905,1.2983,1.3135,1.3145,1.3145,1.3145,1.3145,1.3174,1.3252,1.3496,1.3948,1.4619,1.4725,1.5176,1.582,1.4268,0.0,0.0,1.9023,0.0,0.0,2.248,2.2978,0.0,0.0,0.0,2.196,2.1785,2.0049,0.0,0.0,0.0,0.0,0.0,0.0,0.0,0.0,0.0,0.0,0.0,0.0,0.0,1.629,1.6582,1.7148,0.0,1.9853,2.043,2.1738,2.2136,2.2418,2.2779,2.2838,2.2896,2.3071,2.3091,2.3091,2.3091,2.3091,2.3091,2.3091,2.3091,2.3091,2.3091,2.3091,2.3091,2.3091,2.3091,2.3091,2.3091,2.3091,2.3091,2.3091,2.3091,2.3091,2.3091,2.3091,2.3091,2.3091,2.3091,2.3091,2.3091,2.3091,2.3091,2.3091,2.3091,2.3091,2.3091,2.3091,2.4478,2.6524,2.6524,2.7879,2.9792,0.0,0.0,1.3535,1.3633,1.4277,1.4814,1.494,1.4911,1.4902,0.0,1.4786,1.4796,1.5303,1.665,1.6894,1.5352,1.4687,1.4124,1.3682,1.3213,1.2954,1.2905,1.2954,1.3105,1.3437,1.3525,1.3525,1.3437,1.3486,1.3291,1.2905,1.2905,1.3076,1.3418,1.3071,1.3531,1.4539,1.3639,1.5029,1.8037,1.9972,2.1289,0.0,0.0,2.3779,2.3857,2.3857,2.3584,2.3091,2.2617,2.0839,0.0,0.0,0.0,0.0,0.0,1.4658,0.0,0.0,0.0,0.0,0.0,0.0,0.0,1.6553,1.6191,1.6064,0.0,1.8857,1.9268,2.0586,2.0917,2.1229,2.2031,2.2275,2.2549,2.3023,2.3091,2.3091,2.3091,2.3091,2.3091,2.3091,2.3091,2.3091,2.3091,2.3091,2.3091,2.3091,2.3091,2.3091,2.3091,2.3091,2.3091,2.3091,2.3091,2.3091,2.3091,2.3091,2.3091,2.3091,2.3091,2.3091,2.3091,2.3091,2.3178,2.3309,2.3309,2.3222,2.3091,2.3091,2.4478,2.6524,2.6524,2.7879,2.9792,0.0,1.3656,1.3721,1.4414,1.4705,1.5048,1.5743,1.5518,1.5674,1.6738,1.7393,1.8022,1.8828,1.8568,1.8217,1.7876,1.6533,1.539,1.459,1.3809,1.3232,1.2925,1.3203,1.3262,1.3032,1.3636,1.3682,1.3023,1.334,1.3291,1.2905,1.2905,1.2954,1.2998,1.2944,1.3042,1.3375,1.4842,0.0,1.7019,1.7822,2.0049,2.2877,2.3184,2.3701,2.4297,2.4297,2.4023,2.3496,2.2383,2.1435,2.0342,0.0,0.0,0.0,1.5625,1.5977,1.6731,1.5938,0.0,0.0,0.0,0.0,0.0,1.502,1.5069,1.5527,0.0,1.6172,1.668,1.833,1.9199,1.9727,1.9893,2.0801,2.1834,2.2935,2.3091,2.3091,2.3091,2.3091,2.3091,2.3091,2.3091,2.3091,2.3091,2.3091,2.3091,2.3091,2.3091,2.3091,2.3091,2.3091,2.3091,2.3091,2.3091,2.3091,2.3091,2.3091,2.3091,2.3091,2.3091,2.3091,2.3091,2.3091,2.3637,2.4457,2.4457,2.392,2.3091,2.3091,2.4478,2.6524,2.6524,2.7879,2.9792,0.0,1.4141,1.4346,1.499,1.5459,1.6045,1.6904,1.6846,1.71,1.8193,1.9268,1.9806,1.9619,1.9767,1.9465,1.8383,1.7148,1.6025,1.5156,1.4102,1.3418,1.3203,1.3193,1.3291,1.3496,1.3506,1.3506,1.3506,1.3301,1.3111,1.2905,1.2905,1.3248,1.3835,1.3389,1.3545,1.4189,0.0,1.5732,1.6872,1.8848,0.0,2.3223,2.3867,2.4421,2.4746,2.4746,2.4336,2.3633,2.2559,2.1914,0.0,1.9512,1.9111,1.8945,0.0,1.7324,1.7822,1.6995,0.0,0.0,1.6816,0.0,0.0,0.0,1.5235,1.5352,1.6221,1.5869,1.5937,1.7686,1.8008,1.8223,1.8857,1.9697,2.0557,2.1375,2.21,2.251,2.251,2.2705,2.2779,2.2779,2.2974,2.3091,2.3091,2.3091,2.3091,2.3091,2.3091,2.3091,2.3091,2.3091,2.3091,2.3091,2.3091,2.3091,2.3091,2.3091,2.3091,2.3091,2.3091,2.3091,2.3135,2.3714,2.4253,2.483,2.542,2.5305,2.4808,2.4808,2.5797,2.7279,2.7279,2.8371,2.9792,0.0,1.4541,1.4951,1.5449,1.6269,1.7116,1.7964,1.8203,1.8594,1.9541,2.0654,2.0976,2.0127,2.083,2.0683,1.9131,1.7876,1.6892,1.6201,1.4805,1.3965,1.3877,1.3389,1.3437,1.4094,1.3467,1.3379,1.387,1.3301,1.2983,1.2905,1.2905,1.3502,1.4521,1.3994,0.0,0.0,0.0,0.0,1.7818,0.0,2.2197,2.2865,2.4313,2.4871,2.4891,2.5057,2.4666,2.3906,2.3047,2.2529,2.2021,2.0703,2.0596,0.0,0.0,0.0,0.0,0.0,0.0,0.0,0.0,0.0,1.6858,0.0,0.0,0.0,1.6533,1.5908,0.0,0.0,0.0,0.0,1.7691,0.0,0.0,0.0,2.0303,0.0,2.1475,2.1953,2.2266,2.2266,2.2379,2.2574,2.2838,2.2691,2.2711,2.2955,2.3052,2.3091,2.3091,2.3091,2.3091,2.3091,2.3091,2.3091,2.3091,2.3091,2.3091,2.3091,2.3091,2.3091,2.3178,2.4296,2.4914,2.521,2.6337,2.6935,2.7098,2.6689,2.7168,2.8096,2.8096,2.8806,2.9792,1.4639,1.4746,1.5067,1.588,1.675,1.7588,1.8403,1.8896,1.959,2.081,2.1484,2.2041,2.2594,2.2168,2.2012,2.2467,2.0381,1.8955,1.8857,1.6946,1.5635,1.5205,1.4397,1.4007,1.4104,1.4016,1.3646,1.3052,1.3301,1.3242,1.2905,1.2905,1.3179,1.3682,1.4346,0.0,0.0,0.0,1.8447,0.0,2.1572,2.1515,0.0,2.3154,2.3935,2.4033,2.4842,2.5057,2.4832,0.0,2.3613,2.335,0.0,2.1953,2.2021,2.0713,0.0,0.0,0.0,0.0,0.0,0.0,1.9316,0.0,0.0,0.0,1.6093,1.4757,0.0,0.0,0.0,0.0,0.0,0.0,0.0,0.0,1.6633,1.7627,1.8867,2.0,2.0839,2.1337,2.1337,2.0674,2.0762,2.1943,2.1339,2.1357,2.2519,2.2896,2.3091,2.3091,2.3091,2.3091,2.3091,2.3091,2.3091,2.3091,2.3091,2.3091,2.3091,2.3091,2.3091,2.3178,2.4296,2.5378,2.6389,2.7481,2.8518,2.9209,2.7261,2.7168,2.8096,2.8096,2.8806,2.9792,1.4697,1.4813,0.0,1.5938,1.6398,1.7103,1.8393,2.0078,2.1357,2.1863,2.2568,2.3125,2.3477,2.3203,2.3037,0.0,2.1709,2.0469,1.9697,1.8105,0.0,1.6572,1.5723,1.5127,1.4855,1.4358,1.3821,1.3242,1.3174,1.3081,1.2905,1.2905,1.3659,1.5028,1.539,0.0,1.7973,0.0,1.8594,0.0,0.0,2.0371,0.0,2.3613,2.4922,2.4961,2.5322,2.5293,2.4979,2.4082,2.3789,0.0,0.0,0.0,0.0,2.1641,0.0,0.0,0.0,0.0,0.0,0.0,0.0,0.0,1.6777,0.0,1.5878,0.0,0.0,0.0,0.0,0.0,0.0,0.0,1.54,0.0,0.0,0.0,1.708,1.8623,0.0,1.9611,2.0352,1.9912,1.998,2.1085,2.0537,2.0762,2.208,2.2549,2.2847,2.3091,2.3091,2.3091,2.3091,2.3091,2.3091,2.3091,2.3091,2.3091,2.3091,2.3091,2.3091,2.3222,2.501,2.6058,2.6637,2.8371,2.9365,2.9702,2.8791,2.87,2.9106,2.9106,2.9404,2.9792,1.4697,0.0,0.0,1.5801,1.6212,1.7073,1.8887,2.083,2.2246,2.248,2.3057,2.3613,2.4082,2.4141,2.4209,0.0,2.3506,2.2432,2.1221,1.9736,1.8701,1.8271,1.7112,1.631,1.5957,1.4962,1.4133,1.3506,1.3203,1.3105,1.3223,1.3105,1.4089,1.5938,1.6418,1.7699,1.9453,0.0,1.958,2.0,2.0566,2.0908,2.1357,2.4141,2.5382,2.5693,2.5693,2.5527,2.5137,2.4394,2.4141,2.4014,2.3271,2.3164,2.3193,0.0,0.0,0.0,2.1804,0.0,0.0,0.0,0.0,0.0,0.0,0.0,0.0,0.0,0.0,0.0,0.0,0.0,0.0,0.0,0.0,1.4873,0.0,1.4873,0.0,0.0,0.0,0.0,1.9287,1.8682,1.873,1.9941,1.9424,1.9766,2.1435,2.2041,2.2539,2.2916,2.3033,2.3091,2.3091,2.3091,2.3091,2.3091,2.3091,2.3091,2.3091,2.3091,2.3256,2.3681,2.5641,2.6678,2.7087,2.9,2.9792,2.9792,2.9792,2.9792,2.9792,2.9792,2.9792,2.9792,1.4697,1.5107,0.0,1.543,1.6494,1.8091,2.0214,2.0947,2.1531,2.2402,2.2539,2.3184,2.4891,2.5077,2.5752,2.7425,2.6348,2.5187,2.4326,2.2253,2.0928,2.0517,1.8492,1.7334,1.7357,1.6035,1.4756,1.3506,1.3496,1.3665,1.4055,1.3656,1.418,1.5508,1.7197,1.8672,1.9951,2.0752,2.2578,2.4783,2.358,2.4053,2.5362,2.4287,2.4639,2.5693,2.5693,2.5674,2.5596,2.5185,2.5077,2.4951,2.4492,2.4082,2.3769,0.0,0.0,0.0,2.3033,2.3033,2.2428,1.9951,1.9297,1.8603,1.6055,0.0,1.7207,0.0,0.0,0.0,0.0,0.0,0.0,0.0,0.0,0.0,0.0,0.0,0.0,0.0,0.0,0.0,0.0,1.6533,1.6416,1.851,1.7506,1.7939,2.0507,2.1435,2.21,2.2519,2.2886,2.3091,2.3091,2.3091,2.3091,2.3091,2.3091,2.3091,2.3091,2.3091,2.3714,2.4787,2.5975,2.7087,2.8136,2.9326,2.9792,2.9792,2.9792,2.9792,2.9792,2.9792,2.9792,2.9792,0.0,0.0,0.0,0.0,1.6016,1.7357,1.9766,2.1484,2.292,2.4053,2.4463,2.5303,2.7012,2.7207,2.7549,2.8418,2.7842,2.6943,2.5801,2.4228,2.3144,2.2715,2.0918,1.9658,1.9072,1.7793,1.6494,1.5224,1.4629,1.457,1.4933,1.4221,1.4738,0.0,0.0,1.927,0.0,0.0,0.0,0.0,0.0,2.4144,2.5645,2.5196,2.5304,2.5693,2.5693,2.5693,2.5664,2.5566,2.5312,2.5086,2.4893,2.4551,2.415,2.3867,2.3682,2.3506,2.3169,2.3091,2.2682,2.0966,1.9932,1.897,1.7743,1.7426,1.7419,0.0,0.0,0.0,0.0,0.0,0.0,0.0,0.0,0.0,0.0,0.0,0.0,0.0,0.0,0.0,0.0,0.0,1.5927,1.7243,1.6941,1.7701,2.001,2.0967,2.1777,2.249,2.2877,2.3091,2.3091,2.3091,2.3091,2.3091,2.3091,2.3091,2.3091,2.3091,2.3714,2.4872,2.6016,2.7128,2.8176,2.9326,2.9792,2.9792,2.9792,2.9792,2.9792,2.9792,2.9792,2.9792,1.6309,0.0,1.6707,1.5976,1.6621,1.793,2.0059,2.2217,2.3965,2.4988,2.5723,2.6736,2.835,2.8516,2.874,2.9326,2.9131,2.8232,2.6504,2.5879,2.5107,2.4062,2.2959,2.1843,2.0859,1.9736,1.8291,1.6564,1.6016,1.5771,0.0,0.0,0.0,0.0,0.0,1.9658,2.1113,2.2808,2.3525,0.0,0.0,2.4971,0.0,2.5967,2.583,2.5693,2.5693,2.5693,2.5693,2.5693,2.5547,2.5303,2.5303,2.5,2.46,2.4326,2.4131,2.3955,2.3627,2.3549,2.3247,2.197,2.0947,1.9974,1.9014,1.865,1.8552,1.8559,0.0,0.0,0.0,0.0,0.0,0.0,0.0,0.0,0.0,1.3831,0.0,0.0,0.0,0.0,0.0,0.0,1.5225,1.6406,1.6317,1.7096,1.9131,2.0205,2.1122,2.2031,2.2574,2.2945,2.3091,2.3091,2.3091,2.3091,2.3091,2.3299,2.3714,2.3714,2.4542,2.6025,2.6748,2.7695,2.8767,2.9495,2.9792,2.9792,2.9792,2.9792,2.9792,2.9792,2.9792,2.9792,1.6921,1.7178,1.7393,1.6989,1.8262,1.9756,2.1025,2.3057,2.46,2.5098,2.6299,2.7598,2.8877,2.9014,2.9346,3.0156,3.0234,2.9189,2.6738,2.7295,2.6807,2.4727,2.456,2.3935,2.2695,2.1726,2.0088,1.7607,1.7471,0.0,0.0,0.0,0.0,0.0,1.8711,0.0,2.0772,2.3301,2.4678,2.5253,2.6074,2.6416,2.6416,2.6416,2.6162,2.5742,2.5703,2.5693,2.5693,2.5693,2.5693,2.5693,2.5693,2.5449,2.5145,2.5125,2.4775,2.4443,2.4424,2.4414,2.4131,2.291,2.2246,2.1496,1.986,2.0143,2.0585,2.0143,2.1504,2.247,0.0,0.0,0.0,0.0,0.0,0.0,0.0,0.0,0.0,0.0,0.0,0.0,0.0,0.0,1.4248,1.5909,1.5635,0.0,0.0,1.918,2.0235,2.1161,2.2102,2.2791,2.3169,2.3266,2.3266,2.3266,2.3266,2.3844,2.4872,2.4872,2.6066,2.8096,2.8096,2.8767,2.9792,2.9792,2.9792,2.9792,2.9792,2.9792,2.9792,2.9792,2.9792,2.9792,1.7725,1.8535,1.9434,1.9943,1.9865,2.0195,2.1514,2.3252,2.4922,2.6328,2.7637,2.8926,3.0244,3.0391,3.0478,3.0693,3.0713,3.0293,2.9287,2.8828,2.835,2.7783,2.6553,2.5576,2.4875,2.3125,2.1709,2.0732,0.0,0.0,1.8091,0.0,0.0,0.0,0.0,0.0,2.0752,2.2988,2.4766,2.6094,2.6641,2.6855,2.6855,2.6855,2.6787,2.6602,2.5918,2.5693,2.5693,2.5693,2.5693,2.5693,2.5693,2.5615,2.5498,2.5166,2.499,2.4834,2.4502,2.4414,2.4336,2.4004,2.29,2.1922,2.2039,2.2189,2.2321,2.2429,2.3179,2.3538,2.2648,2.175,0.0,0.0,0.0,0.0,0.0,0.0,0.0,1.4348,0.0,0.0,0.0,1.4023,1.4639,1.5107,1.5303,1.6172,1.792,1.8578,1.9621,2.1151,2.2848,2.397,2.4372,2.5221,2.5641,2.5641,2.5641,2.5766,2.6058,2.6058,2.683,2.8096,2.8096,2.8767,2.9792,2.9792,2.9792,2.9792,2.9792,2.9792,2.9792,2.9792,2.9792,2.9792,1.8926,2.0039,2.1269,2.1902,2.2119,2.2353,2.291,2.3965,2.5264,2.6816,2.8125,2.9199,2.9941,3.0547,3.0889,3.0889,3.0889,3.0537,2.9687,2.9726,0.0,2.8682,2.791,2.7207,2.6592,2.4639,0.0,2.2158,0.0,1.8682,1.8305,0.0,0.0,0.0,0.0,1.9658,2.0449,2.2988,2.4971,2.6426,2.6846,2.7129,0.0,2.7305,2.7178,2.6953,2.6415,2.6182,2.5986,2.5752,2.5693,2.5693,2.5693,2.5693,2.5635,2.5439,2.5361,2.5303,2.5059,2.4953,2.4953,2.4953,2.4131,2.3305,2.333,2.3536,2.3697,2.369,2.453,2.5105,2.4572,2.3553,2.2177,0.0,0.0,0.0,0.0,0.0,0.0,0.0,1.5148,0.0,0.0,1.416,1.4653,1.452,1.4893,1.5644,1.6807,1.7964,1.9221,2.0576,2.2312,2.369,2.4777,2.542,2.6016,2.6524,2.6524,2.676,2.7209,2.7209,2.7815,2.8858,2.8858,2.9197,2.9792,2.9792,2.9792,2.9792,2.9792,2.9792,2.9792,2.9792,2.9792,2.9792,2.0391,2.1602,2.2861,2.313,2.4297,2.5088,2.4873,2.5215,2.5918,2.7109,2.8379,2.918,2.918,3.0205,3.0889,3.0889,3.0889,3.04,2.9258,3.0254,3.0215,2.8701,2.8926,2.8691,2.7851,2.6182,2.4404,0.0,2.0879,1.9316,1.7988,0.0,0.0,0.0,0.0,0.0,0.0,2.3379,2.5322,2.6514,2.6992,2.7412,2.7796,2.7796,2.7519,2.7178,2.7119,2.6826,2.6406,2.5967,2.5771,2.5762,2.5703,2.5693,2.5693,2.5693,2.5693,2.5693,2.5693,2.5693,2.5693,2.5693,2.54,2.49,2.4234,2.463,2.5041,2.4739,2.5819,2.6774,2.6714,2.5709,2.3916,0.0,0.0,0.0,0.0,0.0,0.0,0.0,0.0,0.0,0.0,1.4314,0.0,1.405,1.4404,1.4873,1.5469,1.7243,1.8825,2.006,2.1481,2.3114,2.4893,2.5251,2.588,2.6719,2.6842,2.7412,2.8307,2.8307,2.8858,2.9792,2.9792,2.9792,2.9792,2.9792,2.9792,2.9792,2.9792,2.9792,2.9792,2.9792,2.9792,2.9792,2.2021,2.3154,2.3994,2.3721,2.4756,2.5957,2.6943,2.7461,2.793,2.8506,2.9726,3.0547,3.0547,3.0752,3.0889,3.0889,3.0889,3.0791,3.0566,3.0762,3.0752,3.0449,3.0137,2.957,2.8721,2.7031,2.5303,2.3564,2.1475,1.9609,1.7998,0.0,0.0,0.0,0.0,0.0,2.2767,2.4678,0.0,2.6973,2.7754,2.8115,2.8184,2.8184,2.8135,2.8018,2.7676,2.7275,2.6836,2.6416,2.6279,2.6211,2.5801,2.5693,2.5693,2.5693,2.5693,2.5693,2.5693,2.5693,2.5693,2.5693,2.54,2.5204,2.5593,2.6226,2.6836,2.7325,2.7631,2.7816,2.7814,2.6534,2.4983,0.0,0.0,0.0,0.0,0.0,0.0,0.0,0.0,1.7805,0.0,0.0,0.0,0.0,0.0,1.4375,1.5899,1.6339,1.7945,2.1026,2.3031,2.4487,2.547,2.7774,2.853,2.7844,2.8779,2.9326,2.9495,2.9495,2.9624,2.9792,2.9792,2.9792,2.9792,2.9792,2.9792,2.9792,2.9792,2.9792,2.9792,2.9792,2.9792,2.9792,2.4394,2.4834,2.5176,2.542,2.6348,2.7344,2.8184,2.9072,2.9473,2.8984,2.9473,2.9873,2.9873,3.0478,3.0889,3.0889,3.0889,3.0889,3.0889,3.0889,3.0889,3.0889,3.0449,3.0,2.959,2.792,2.6309,2.4795,2.2187,2.0029,1.8286,1.7686,0.0,0.0,0.0,2.0732,0.0,0.0,2.5889,2.6768,2.7627,2.8096,2.8291,2.8291,2.8291,2.8262,2.8066,2.7851,2.7578,2.6934,2.6572,2.6357,2.6143,2.5918,2.5693,2.5693,2.5693,2.5693,2.5693,2.5693,2.5693,2.5693,2.5528,2.5377,2.5243,2.636,2.7388,2.7277,2.8199,2.8813,2.8187,2.6979,2.5808,2.4958,2.3653,0.0,0.0,0.0,0.0,0.0,0.0,0.0,0.0,0.0,0.0,0.0,0.0,1.4534,1.583,1.6953,1.8627,2.1007,2.3198,2.502,2.6465,2.8095,2.8937,2.8988,2.9534,2.9792,2.9792,2.9792,2.9792,2.9792,2.9792,2.9792,2.9792,2.9792,2.9792,2.9792,2.9792,2.9792,2.9792,2.9792,2.9792,2.9792,2.6387,2.6396,2.6465,2.7051,2.793,2.8672,2.9014,3.0176,3.0615,2.9482,2.9336,2.9336,2.9336,3.0264,3.0889,3.0889,3.0889,3.0889,3.0889,3.0889,3.0889,3.0889,3.0537,3.0293,3.0195,2.8711,2.7207,2.5684,2.3033,2.0752,1.8861,0.0,0.0,0.0,0.0,2.1522,2.3452,2.4795,2.5859,2.6728,2.7542,2.7998,2.8291,2.8291,2.8291,2.8291,2.8291,2.8291,2.8193,2.7519,2.7012,2.6641,2.6553,2.623,2.583,2.583,2.5762,2.5781,2.6014,2.5927,2.5781,2.6062,2.61,2.592,2.5237,2.6642,2.7937,2.7346,2.8593,2.9453,2.831,2.7595,2.6901,2.5925,2.4795,0.0,0.0,0.0,0.0,0.0,0.0,0.0,1.6955,0.0,0.0,0.0,0.0,1.4797,1.605,1.7606,1.9153,2.0743,2.3034,2.4969,2.6532,2.7837,2.8806,2.9443,2.9663,2.9792,2.9792,2.9792,2.9792,2.9792,2.9792,2.9792,2.9792,2.9792,2.9792,2.9792,2.9792,2.9792,2.9792,2.9792,2.9792,2.9792,2.6943,2.7549,2.7959,2.7656,2.8687,2.9463,2.9502,3.0615,3.1279,3.0771,3.0703,3.0703,3.0703,3.081,3.0889,3.0889,3.0889,3.0889,3.0889,3.0889,3.0889,3.0889,3.085,3.0635,3.0205,2.9277,2.7783,2.5703,2.4258,2.2266,1.9785,1.9326,1.9268,1.9629,2.1455,2.3027,2.4385,2.5703,2.6758,2.764,2.8047,2.8262,2.8291,2.8291,2.8291,2.8291,2.8291,2.8291,2.8281,2.8203,2.7891,2.748,2.708,2.667,2.6328,2.6328,2.6045,2.5965,2.7125,2.6572,2.5965,2.7125,2.74,2.7431,2.7391,2.8436,2.9451,2.947,2.9663,2.9453,2.831,2.8863,2.88,2.6751,2.67,2.6776,0.0,0.0,2.3602,0.0,0.0,0.0,0.0,1.6955,0.0,0.0,1.472,1.4896,1.7301,1.7167,1.817,2.0733,2.3069,2.4214,2.4033,2.7756,2.9197,2.8255,2.9326,2.9792,2.9792,2.9792,2.9792,2.9792,2.9792,2.9792,2.9792,2.9792,2.9792,2.9792,2.9792,2.9792,2.9792,2.9792,2.9792,2.9792,2.8545,2.8408,2.8574,2.9453,2.959,2.9922,3.1025,3.1572,3.1846,3.168,3.1435,3.1269,3.1269,3.1045,3.0889,3.0889,3.0889,3.0889,3.0889,3.0889,3.0889,3.0889,3.0889,3.0801,3.0615,3.0,2.8887,2.7256,2.5439,2.3506,2.1465,2.0771,2.1094,2.2266,2.2969,2.4141,2.5654,2.6435,2.7256,2.8076,2.8496,2.8672,2.8672,2.8672,2.8516,2.8291,2.8291,2.8291,2.8291,2.8291,2.8018,2.7689,2.7461,2.7109,2.6768,2.6768,2.6465,2.6409,2.7624,2.7417,2.6945,2.7447,2.8132,2.8337,2.7022,2.8232,2.9451,2.8906,2.9326,2.9654,2.9202,2.8925,2.8712,2.8486,2.7555,2.6977,0.0,0.0,0.0,0.0,0.0,0.0,0.0,1.7799,0.0,0.0,0.0,1.5541,1.7105,1.8076,1.9178,2.0389,2.3805,2.5524,2.5394,2.8325,2.9573,2.9118,2.9573,2.9792,2.9792,2.9792,2.9792,2.9792,2.9792,2.9792,2.9792,2.9792,2.9792,2.9792,2.9792,2.9792,2.9792,2.9792,2.9792,2.9792,3.0088,2.9658,2.9668,3.1025,3.0752,3.081,3.2043,3.2275,3.2353,3.2353,3.209,3.1846,3.1728,3.1328,3.1074,3.1074,3.0967,3.0889,3.0889,3.0889,3.0889,3.0889,3.0889,3.0889,3.0889,3.043,2.9697,2.8672,2.6885,2.5205,2.3633,2.2857,2.3159,2.4385,2.4756,2.5684,2.6982,2.7402,2.7998,2.8691,2.8984,2.9111,2.9111,2.9111,2.8926,2.8652,2.8525,2.8476,2.8457,2.833,2.8096,2.7904,2.7904,2.7559,2.7207,2.7207,2.6904,2.6833,2.7924,2.7982,2.7841,2.8081,2.9039,2.95,2.7766,2.881,2.9837,2.8814,2.9236,2.9792,2.9792,2.9139,2.875,2.9214,2.8109,2.7293,0.0,2.6138,0.0,0.0,2.2372,2.0955,2.0137,1.8696,0.0,0.0,1.8019,1.7448,1.8214,1.9241,2.0165,2.0956,2.4554,2.6458,2.6412,2.8675,2.9792,2.9792,2.9792,2.9792,2.9792,2.9792,2.9792,2.9792,2.9792,2.9792,2.9792,2.9792,2.9792,2.9792,2.9792,2.9792,2.9792,2.9792,2.9792,2.9792,3.1318,3.1484,3.1621,3.207,3.2209,3.2209,3.2229,3.2519,3.2793,3.2793,3.2783,3.2627,3.2207,3.1768,3.1514,3.1514,3.1133,3.0889,3.0889,3.0889,3.0889,3.0889,3.0889,3.0889,3.0889,3.043,2.999,2.9551,2.8682,2.7598,2.6328,2.5889,2.5645,2.5713,2.7051,2.7914,2.8301,2.8721,2.915,2.9551,2.9616,2.956,2.956,2.956,2.9616,2.9502,2.9062,2.8916,2.8848,2.8437,2.8291,2.8281,2.8281,2.7998,2.7708,2.7708,2.7344,2.7158,2.8007,2.8212,2.8375,2.9161,3.0271,3.1036,3.0458,3.0863,3.1085,3.0018,2.9792,2.9792,2.9792,2.9779,2.9415,2.831,2.8561,2.8335,2.6738,2.5963,0.0,2.413,2.2062,2.0691,2.0679,1.966,0.0,0.0,2.0654,2.0865,2.1418,2.0401,2.0751,2.2787,2.5215,2.639,2.6227,2.8598,2.9792,2.9792,2.9792,2.9792,2.9792,2.9792,2.9792,2.9792,2.9792,2.9792,2.9792,2.9792,2.9792,2.9792,2.9792,2.9792,2.9792,2.9792,2.9792,2.9792,3.1904,3.1963,3.209,3.2519,3.2598,3.2695,3.2978,3.3135,3.3223,3.3223,3.3223,3.3174,3.3037,3.2383,3.1963,3.1963,3.1572,3.1318,3.1318,3.1055,3.0889,3.0889,3.0889,3.0889,3.0889,3.0742,3.0449,3.0,2.9141,2.8213,2.7307,2.7119,2.7363,2.792,2.834,2.876,2.917,2.9307,2.9609,3.0,3.0,3.0,3.0,3.0,2.9824,2.9551,2.9414,2.917,2.8896,2.876,2.8535,2.8291,2.8291,2.8203,2.8096,2.8096,2.8443,2.9102,3.016,3.065,3.0905,3.1169,3.1877,3.2148,3.0742,3.0648,3.0658,2.9942,2.9792,2.9792,2.9792,2.9792,2.9679,2.9315,2.8762,2.8185,2.7657,0.0,2.4946,2.4607,2.2924,2.1782,2.1782,2.1129,2.069,2.0691,2.0327,2.0352,2.0918,2.1656,2.218,2.2471,2.5448,2.6999,2.6948,2.8837,2.9792,2.9792,2.9792,2.9792,2.9792,2.9792,2.9792,2.9792,2.9792,2.9792,2.9792,2.9792,2.9792,2.9792,2.9792,2.9792,2.9792,2.9792,2.9792,2.9792,3.2607,3.2637,3.2725,3.2978,3.3027,3.3115,3.3379,3.3418,3.3418,3.3418,3.3418,3.3418,3.3418,3.2949,3.2578,3.2422,3.2012,3.1758,3.1758,3.1357,3.1123,3.1123,3.0976,3.0889,3.0889,3.0889,3.0752,3.0459,2.9746,2.9131,2.8613,2.8613,2.8896,2.9404,2.958,2.9805,3.0068,3.0068,3.0215,3.0459,3.0459,3.0459,3.0459,3.0459,3.0293,3.0039,2.9863,2.9629,2.9375,2.9219,2.8994,2.875,2.8584,2.8525,2.8496,2.834,2.9068,3.006,3.0676,3.1561,3.2269,3.2124,3.2612,3.2746,3.1412,3.0964,3.0746,3.0218,2.9942,2.9792,2.9792,2.9792,2.9792,2.9792,2.8837,2.8109,2.8109,2.6377,2.5046,0.0,0.0,2.2862,2.2606,2.2686,2.2598,2.2288,2.246,2.2686,2.2866,2.3025,2.3421,2.4155,2.6603,2.8009,2.8222,2.9264,2.9792,2.9792,2.9792,2.9792,2.9792,2.9792,2.9792,2.9792,2.9792,2.9792,2.9792,2.9792,2.9792,2.9792,2.9792,2.9792,2.9792,2.9792,2.9792,2.9792,3.335,3.3418,3.3418,3.3418,3.3418,3.3418,3.3418,3.3418,3.3418,3.3418,3.3418,3.3418,3.3418,3.3418,3.3262,3.2871,3.2451,3.2217,3.2217,3.1807,3.1543,3.1514,3.1143,3.0918,3.0889,3.0889,3.0889,3.0889,3.0459,3.0244,3.0244,3.0244,3.0244,3.0264,3.0703,3.0889,3.0889,3.0889,3.0889,3.0889,3.0889,3.0889,3.0889,3.0889,3.0889,3.083,3.04,3.0225,3.0137,2.9746,2.959,2.9558,2.9202,2.9099,2.8937,2.8472,2.926,3.0223,2.9956,3.13,3.2674,3.2359,3.268,3.2918,3.234,3.1813,3.1286,3.0733,3.0206,2.9842,2.9804,2.9792,2.9792,2.9792,2.8837,2.8109,2.8109,2.6691,2.5473,2.4996,2.4481,2.3954,2.3384,2.4286,2.4876,2.48,2.6276,2.6977,2.6461,2.4506,2.4619,2.7256,2.8373,2.9202,2.9779,2.9792,2.9792,2.9792,2.9792,2.9792,2.9792,2.9792,2.9792,2.9792,2.9792,2.9792,2.9792,2.9792,2.9792,2.9792,2.9792,2.9792,2.9792,2.9792,2.9792,2.9792,3.3408,3.3418,3.3418,3.3418,3.3418,3.3418,3.3418,3.3418,3.3418,3.3418,3.3418,3.3418,3.3418,3.3418,3.3379,3.3281,3.2891,3.2646,3.2646,3.2256,3.1865,3.1533,3.1426,3.1221,3.0898,3.0889,3.0889,3.0889,3.0781,3.0723,3.0723,3.0723,3.0723,3.0732,3.084,3.0889,3.0889,3.0889,3.0889,3.0889,3.0889,3.0889,3.0889,3.0889,3.0889,3.0879,3.0762,3.0498,3.0185,3.0078,2.9834,2.9774,3.0772,3.082,3.0202,2.873,2.926,3.0493,3.144,3.2494,3.3457,3.3945,3.3608,3.2918,3.234,3.2114,3.175,3.0809,3.0507,3.0294,2.9867,2.9792,2.9792,2.9792,2.8837,2.8109,2.8109,2.7042,2.6248,2.6122,2.5996,2.5858,2.572,2.5946,2.5724,2.4883,2.5548,2.5937,2.5812,2.6126,2.6791,2.7871,2.8537,2.9202,2.9779,2.9792,2.9792,2.9792,2.9792,2.9792,2.9792,2.9792,2.9792,2.9792,2.9792,2.9792,2.9792,2.9792,2.9792,2.9792,2.9792,2.9792,2.9792,2.9792,2.9792,2.9792,3.3418,3.3418,3.3418,3.3418,3.3418,3.3418,3.3418,3.3418,3.3418,3.3418,3.3418,3.3418,3.3418,3.3418,3.3418,3.3418,3.3213,3.3076,3.3076,3.2685,3.2344,3.2109,3.1914,3.1621,3.1182,3.1172,3.1084,3.0889,3.0889,3.0889,3.0889,3.0889,3.0889,3.0889,3.0889,3.0889,3.0889,3.0889,3.0889,3.0889,3.0889,3.0889,3.0889,3.0889,3.0889,3.0889,3.0889,3.0732,3.0518,3.0518,3.0361,3.0411,3.165,3.1894,3.1545,3.102,3.1051,3.1378,3.2079,3.2874,3.3635,3.4209,3.3897,3.3307,3.2742,3.2403,3.2039,3.1461,3.0959,3.052,3.0218,2.9967,2.9704,2.944,2.8662,2.8009,2.777,2.7218,2.6876,2.6876,2.709,2.7241,2.7241,2.7444,2.7243,2.6389,2.7055,2.7394,2.713,2.7959,2.8448,2.8486,2.9038,2.9478,2.9792,2.9792,2.9792,2.9792,2.9792,2.9792,2.9792,2.9792,2.9792,2.9792,2.9792,2.9792,2.9792,2.9792,2.9792,2.9792,2.9792,2.9792,2.9792,2.9792,2.9792,2.9792,3.3418,3.3418,3.3418,3.3418,3.3418,3.3418,3.3418,3.3418,3.3418,3.3418,3.3418,3.3418,3.3418,3.3418,3.3418,3.3418,3.3418,3.3418,3.3418,3.3086,3.2861,3.2793,3.2451,3.206,3.1621,3.1553,3.1309,3.0889,3.0889,3.0889,3.0889,3.0889,3.0889,3.0889,3.0889,3.0889,3.0889,3.0889,3.0889,3.0889,3.0889,3.0889,3.0889,3.0889,3.0889,3.0889,3.0889,3.0889,3.0947,3.117,3.1054,3.1159,3.2661,3.2969,3.294,3.4075,3.3617,3.2745,3.2745,3.3275,3.3847,3.4093,3.4022,3.3771,3.3307,3.2754,3.2315,3.2227,3.1486,3.0809,3.0645,3.0231,2.9704,2.9001,2.8536,2.8009,2.7369,2.7419,2.7494,2.7419,2.7971,2.836,2.836,2.8675,2.8737,2.8386,2.9164,2.9478,2.9051,2.9528,2.9566,2.9038,2.9528,2.9792,2.9792,2.9792,2.9792,2.9792,2.9792,2.9792,2.9792,2.9792,2.9792,2.9792,2.9792,2.9792,2.9792,2.9792,2.9792,2.9792,2.9792,2.9792,2.9792,2.9792,2.9792,2.9792,3.3418,3.3418,3.3418,3.3418,3.3418,3.3418,3.3418,3.3418,3.3418,3.3418,3.3418,3.3418,3.3418,3.3418,3.3418,3.3418,3.3418,3.3418,3.3418,3.3359,3.3164,3.2812,3.2734,3.25,3.208,3.1709,3.1309,3.0889,3.0889,3.0889,3.0889,3.0889,3.0889,3.0889,3.0889,3.0889,3.0889,3.0889,3.0889,3.0889,3.0889,3.0889,3.0889,3.0889,3.0889,3.0889,3.0889,3.0889,3.1112,3.2369,3.193,3.1594,3.5461,3.5511,3.4408,3.5934,3.5596,3.4743,3.4743,3.4957,3.5214,3.5236,3.4587,3.3872,3.3796,3.3345,3.2805,3.2315,3.2077,3.1687,3.0783,3.0545,3.0143,2.9063,2.8813,2.8448,2.7419,2.8084,2.8461,2.8034,2.89,2.9528,2.9528,2.9164,2.9101,2.9503,2.9239,2.9239,2.9641,2.9741,2.9754,2.9666,2.9741,2.9792,2.9792,2.9792,2.9792,2.9792,2.9792,2.9792,2.9792,2.9792,2.9792,2.9792,2.9792,2.9792,2.9792,2.9792,2.9792,2.9792,2.9792,2.9792,2.9792,2.9792,2.9792,2.9792,3.3418,3.3418,3.3418,3.3418,3.3418,3.3418,3.3418,3.3418,3.3418,3.3418,3.3418,3.3418,3.3418,3.3418,3.3418,3.3418,3.3418,3.3418,3.3418,3.3418,3.334,3.3144,3.3135,3.2939,3.2519,3.209,3.166,3.123,3.123,3.1113,3.0889,3.0889,3.0889,3.0889,3.0889,3.0889,3.0889,3.0889,3.0889,3.0889,3.0889,3.0889,3.0889,3.0889,3.0889,3.0889,3.0889,3.0889,3.1112,3.2587,3.2644,3.2701,3.6368,3.6861,3.6395,3.7931,3.6858,3.5163,3.4839,3.5367,3.5918,3.5571,3.5119,3.4625,3.4035,3.3709,3.3357,3.2792,3.2428,3.2064,3.1562,3.1009,3.0344,2.9528,2.9101,2.8612,2.7846,2.8423,2.88,2.8549,2.9277,2.9792,2.9792,2.9553,2.9503,2.9779,2.9541,2.9515,2.9779,2.9792,2.9792,2.9792,2.9792,2.9792,2.9792,2.9792,2.9792,2.9792,2.9792,2.9792,2.9792,2.9792,2.9792,2.9792,2.9792,2.9792,2.9792,2.9792,2.9792,2.9792,2.9792,2.9792,2.9792,2.9792,2.9792,2.9792,3.3418,3.3418,3.3418,3.3418,3.3418,3.3418,3.3418,3.3418,3.3418,3.3418,3.3418,3.3418,3.3418,3.3418,3.3418,3.3418,3.3418,3.3418,3.3418,3.3418,3.3418,3.3418,3.3418,3.3223,3.2803,3.248,3.21,3.167,3.167,3.1455,3.1035,3.1035,3.0986,3.0889,3.0889,3.0889,3.0889,3.0889,3.0889,3.0889,3.0889,3.0889,3.0889,3.0889,3.0889,3.0889,3.0889,3.0889,3.117,3.2975,3.335,3.3677,3.6972,3.7796,3.7796,3.9245,3.7986,3.5811,3.4878,3.5453,3.6304,3.583,3.5596,3.527,3.4474,3.4085,3.3771,3.3357,3.2817,3.2365,3.224,3.1537,3.0721,2.993,2.9528,2.9038,2.8222,2.8699,2.9076,2.8913,2.944,2.9792,2.9792,2.9792,2.9792,2.9792,2.9792,2.9792,2.9792,2.9792,2.9792,2.9792,2.9792,2.9792,2.9792,2.9792,2.9792,2.9792,2.9792,2.9792,2.9792,2.9792,2.9792,2.9792,2.9792,2.9792,2.9792,2.9792,2.9792,2.9792,2.9792,2.9792,2.9792,2.9792,2.9792,2.9792,3.3418,3.3418,3.3418,3.3418,3.3418,3.3418,3.3418,3.3418,3.3418,3.3418,3.3418,3.3418,3.3418,3.3418,3.3418,3.3418,3.3418,3.3418,3.3418,3.3418,3.3418,3.3418,3.3418,3.3223,3.2803,3.2764,3.2549,3.2119,3.2119,3.1894,3.1475,3.1475,3.126,3.0889,3.0889,3.0889,3.0889,3.0889,3.0889,3.0889,3.0889,3.0889,3.0889,3.0889,3.0889,3.0889,3.0889,3.0889,3.1334,3.4191,3.4236,3.3845,3.8202,3.8582,3.7796,3.9245,3.9182,3.8128,3.5761,3.5782,3.6405,3.6355,3.5918,3.547,3.5395,3.4625,3.3884,3.3847,3.3395,3.2855,3.2303,3.2152,3.1587,3.0043,3.0181,2.993,2.8335,2.9038,2.9528,2.895,2.944,2.9792,2.9792,2.9792,2.9792,2.9792,2.9792,2.9792,2.9792,2.9792,2.9792,2.9792,2.9792,2.9792,2.9792,2.9792,2.9792,2.9792,2.9792,2.9792,2.9792,2.9792,2.9792,2.9792,2.9792,2.9792,2.9792,2.9792,2.9792,2.9792,2.9792,2.9792,2.9792,2.9792,2.9792,2.9792,3.3418,3.3418,3.3418,3.3418,3.3418,3.3418,3.3418,3.3418,3.3418,3.3418,3.3418,3.3418,3.3418,3.3418,3.3418,3.3418,3.3418,3.3418,3.3418,3.3418,3.3418,3.3418,3.3418,3.335,3.3193,3.3184,3.2978,3.2559,3.2559,3.2334,3.1924,3.1924,3.1689,3.1279,3.1279,3.1133,3.0889,3.0889,3.0889,3.0889,3.0889,3.0889,3.0889,3.0889,3.0889,3.0889,3.0889,3.0889,3.1334,3.4303,3.4902,3.5068,3.8594,3.931,3.8961,3.953,3.9308,3.8667,3.7753,3.7195,3.6832,3.6493,3.6207,3.5968,3.5583,3.5169,3.468,3.4035,3.3734,3.342,3.2855,3.2453,3.2014,3.1399,3.1185,3.0871,3.0231,3.052,3.0583,3.0004,3.0168,3.0168,2.9829,2.9792,2.9792,2.9792,2.9792,2.9792,2.9792,2.9792,2.9792,2.9792,2.9792,2.9792,2.9792,2.9792,2.9792,2.9792,2.9792,2.9792,2.9792,2.9792,2.9792,2.9792,2.9792,2.9792,2.9792,2.9792,2.9792,2.9792,2.9792,2.9792,2.9792,2.9792,2.9792,2.9792,3.3652,3.3633,3.3584,3.3447,3.3418,3.3418,3.3418,3.3418,3.3418,3.3418,3.3418,3.3418,3.3418,3.3418,3.3418,3.3418,3.3418,3.3418,3.3418,3.3418,3.3418,3.3418,3.3418,3.3418,3.3418,3.3418,3.3281,3.2998,3.2998,3.2773,3.2363,3.2363,3.2139,3.1728,3.1728,3.1484,3.1094,3.1094,3.1016,3.0889,3.0889,3.117,3.1604,3.1604,3.1604,3.1604,3.1604,3.1267,3.1334,3.4303,3.5288,3.5847,3.8764,3.9697,3.9697,3.9697,3.9421,3.9094,3.8969,3.8304,3.7538,3.6845,3.6531,3.6304,3.5893,3.5621,3.5282,3.4575,3.4135,3.3784,3.3407,3.2867,3.2428,3.224,3.1888,3.1587,3.1411,3.1386,3.126,3.0896,3.0859,3.0708,3.0331,3.0294,3.0294,3.0294,3.0294,3.0294,3.0294,3.0294,3.0294,3.0294,3.0294,3.0294,3.0294,2.9967,2.9792,2.9792,2.9967,2.9955,2.9804,2.9967,3.0043,3.0043,2.9867,2.9892,3.0043,2.9867,2.9792,2.9792,2.9792,2.9792,2.9792,2.9792,2.9792,2.9792,3.416,3.4072,3.3935,3.3506,3.3418,3.3418,3.3418,3.3418,3.3418,3.3418,3.3418,3.3418,3.3418,3.3418,3.3418,3.3418,3.3418,3.3418,3.3418,3.3418,3.3418,3.3418,3.3418,3.3418,3.3418,3.3418,3.3418,3.3418,3.3418,3.3213,3.2803,3.2803,3.2578,3.2178,3.2178,3.1934,3.1523,3.1523,3.1279,3.0898,3.0898,3.1767,3.3077,3.3134,3.3134,3.3134,3.3134,3.215,3.1392,3.4303,3.5288,3.5847,3.8764,3.9697,3.9697,3.9697,3.9697,3.9572,3.9032,3.8919,3.8655,3.7462,3.682,3.6417,3.6405,3.5943,3.5508,3.5495,3.4675,3.3909,3.3897,3.3458,3.2893,3.2315,3.2227,3.2026,3.1486,3.1399,3.1399,3.1399,3.1399,3.1399,3.1386,3.1386,3.1386,3.1386,3.1386,3.1386,3.1386,3.1386,3.1386,3.1386,3.1386,3.1386,3.1386,3.0331,2.9804,2.9817,3.0357,3.0331,2.9829,3.0369,3.062,3.0595,3.0043,3.0118,3.0583,3.003,2.9804,2.9804,2.9804,2.9792,2.9792,2.9792,2.9792,2.9792,3.4541,3.4277,3.4033,3.3906,3.3623,3.3418,3.3418,3.3418,3.3418,3.3418,3.3418,3.3418,3.3418,3.3418,3.3418,3.3418,3.3418,3.3418,3.3418,3.3418,3.3418,3.3418,3.3418,3.3418,3.3418,3.3418,3.3418,3.3418,3.3418,3.3359,3.3232,3.3232,3.3008,3.2607,3.2607,3.2373,3.1973,3.1973,3.1728,3.1387,3.2433,3.297,3.318,3.4236,3.4626,3.4626,3.4626,3.3698,3.2918,3.5825,3.6162,3.5847,3.8764,3.9697,3.9697,3.9697,3.9697,3.9659,3.9496,3.917,3.8655,3.7462,3.7061,3.6835,3.6505,3.6279,3.6006,3.5583,3.5245,3.4768,3.4035,3.3771,3.347,3.2905,3.2817,3.2767,3.2646,3.2566,3.2428,3.2014,3.1964,3.1813,3.1436,3.1386,3.1386,3.1386,3.1386,3.1386,3.1386,3.1386,3.1386,3.1386,3.1386,3.1386,3.1386,3.1072,3.0909,3.0922,3.1085,3.1072,3.0922,3.1085,3.116,3.1148,3.0984,3.1009,3.1148,3.0984,3.0696,3.0369,3.0369,3.0131,2.9792,2.9792,2.9792,2.9792,3.501,3.4775,3.4482,3.4131,3.3857,3.3623,3.3447,3.3418,3.3418,3.3418,3.3418,3.3418,3.3418,3.3418,3.3418,3.3418,3.3418,3.3418,3.3418,3.3418,3.3418,3.3418,3.3418,3.3418,3.3418,3.3418,3.3418,3.3418,3.3418,3.3418,3.3418,3.3418,3.3281,3.3047,3.3691,3.3749,3.3458,3.405,3.3723,3.284,3.436,3.4812,3.4656,3.5979,3.6516,3.6438,3.6231,3.5222,3.4348,3.6703,3.7317,3.737,3.9141,3.9697,3.9697,3.9697,3.9697,3.9697,3.9697,3.9446,3.8981,3.8078,3.7513,3.7098,3.6807,3.6568,3.6317,3.5931,3.5658,3.5295,3.4675,3.4374,3.4048,3.3483,3.3407,3.3319,3.3106,3.3124,3.2943,3.2591,3.2554,3.2428,3.2089,3.2051,3.2051,3.2051,3.2051,3.2051,3.2051,3.2051,3.2051,3.2051,3.2051,3.2051,3.2051,3.2051,3.1825,3.1386,3.1612,3.1599,3.1399,3.1612,3.1725,3.17,3.1486,3.1512,3.17,3.1486,3.121,3.0922,3.0922,3.0595,3.0118,3.0118,2.998,2.9792,3.5527,3.542,3.5127,3.4277,3.4092,3.3926,3.3486,3.3418,3.3418,3.3418,3.3418,3.3418,3.3418,3.3418,3.3418,3.3418,3.3418,3.3418,3.3418,3.3418,3.3418,3.3418,3.3418,3.3481,3.3597,3.3481,3.3418,3.3418,3.3418,3.3418,3.3418,3.3544,3.3597,3.366,3.5335,3.5818,3.5547,3.7034,3.6513,3.4907,3.6502,3.7053,3.7031,3.8158,3.8515,3.8407,3.7929,3.6804,3.5672,3.7037,3.8465,3.9697,3.9697,3.9697,3.9697,3.9697,3.9697,3.9697,3.9697,3.9697,3.9572,3.9069,3.814,3.7312,3.7211,3.6845,3.6468,3.6417,3.5968,3.5558,3.5508,3.5094,3.4613,3.406,3.3935,3.3721,3.3219,3.3106,3.3124,3.3124,3.3124,3.3124,3.3124,3.3124,3.3124,3.3124,3.3124,3.3124,3.3124,3.3124,3.3124,3.3124,3.3124,3.3124,3.3124,3.3124,3.2566,3.1549,3.2051,3.2026,3.1562,3.2064,3.229,3.2265,3.175,3.1825,3.2252,3.175,3.1512,3.1461,3.1411,3.1072,3.0608,3.0557,3.0218,2.9792,3.5898,3.5625,3.5215,3.4658,3.4287,3.3926,3.3486,3.3418,3.3418,3.3418,3.3418,3.3418,3.3418,3.3418,3.3418,3.3418,3.3418,3.3418,3.3418,3.3418,3.3418,3.3418,3.3418,3.4017,3.5273,3.4017,3.3418,3.3418,3.3418,3.3418,3.3418,3.4674,3.5263,3.5324,3.6952,3.7619,3.758,3.7948,3.761,3.7047,3.8596,3.893,3.8721,4.0116,4.0372,3.9988,3.9876,3.8606,3.7079,3.7412,3.8465,3.9697,3.9697,3.9697,3.9697,3.9697,3.9697,3.9697,3.9697,3.9697,3.9672,3.9546,3.9007,3.8328,3.7387,3.7098,3.6933,3.6505,3.6317,3.6056,3.5583,3.5395,3.5144,3.4625,3.4173,3.3859,3.3734,3.3345,3.3124,3.3124,3.3124,3.3124,3.3124,3.3124,3.3124,3.3124,3.3124,3.3124,3.3124,3.3124,3.3124,3.3124,3.3124,3.3124,3.3124,3.3124,3.2998,3.2717,3.283,3.283,3.2759,3.283,3.288,3.288,3.2767,3.278,3.288,3.2767,3.2441,3.1989,3.1562,3.1072,3.057,3.0131,2.9892,2.9792,3.725,3.7713,3.8039,3.7557,3.7274,3.6706,3.5448,3.525,3.4873,3.3887,3.373,3.3652,3.3447,3.3418,3.3506,3.3711,3.3916,3.3945,3.375,3.373,3.3643,3.3428,3.3418,3.4133,3.5734,3.4974,3.4922,3.5704,3.4922,3.455,3.455,3.5386,3.5806,3.5918,3.826,3.9347,3.9405,4.0175,3.9906,3.914,4.0724,4.0725,3.9985,4.1248,4.1555,4.1229,4.0701,3.9653,3.857,3.857,3.9077,3.9697,3.9697,3.9697,3.9697,3.9697,3.9697,3.9697,3.9697,3.9697,3.9697,3.9697,3.9484,3.9044,3.8191,3.7575,3.7098,3.6857,3.6593,3.6317,3.5994,3.5931,3.5755,3.5157,3.4831,3.4587,3.4324,3.3822,3.347,3.347,3.3275,3.3124,3.3124,3.3124,3.3124,3.3124,3.3124,3.3124,3.3124,3.3124,3.3124,3.3124,3.3124,3.3124,3.3124,3.3124,3.3124,3.3124,3.3124,3.3124,3.3124,3.3124,3.3124,3.3124,3.3124,3.3124,3.3124,3.3124,3.2893,3.2591,3.2303,3.17,3.0947,3.067,3.0231,2.9792,3.8608,4.0018,4.1024,4.0583,4.0493,3.9885,3.8006,3.7741,3.7118,3.5335,3.5103,3.4963,3.4528,3.4488,3.4702,3.5073,3.5435,3.5291,3.4695,3.4675,3.4413,3.3978,3.3958,3.4755,3.6589,3.6639,3.7133,3.8223,3.6892,3.6223,3.6223,3.6467,3.6639,3.676,3.9686,4.1007,4.1076,4.2432,4.2206,4.1133,4.2444,4.2206,4.1085,4.1991,4.2288,4.2087,4.1116,4.0388,3.9823,3.9722,3.9697,3.9697,3.9697,3.9697,3.9697,3.9697,3.9697,3.9697,3.9697,3.9697,3.9697,3.9697,3.9697,3.9572,3.912,3.8216,3.7425,3.7224,3.687,3.6518,3.643,3.6405,3.6267,3.5768,3.5558,3.5345,3.4881,3.4387,3.4035,3.4035,3.3558,3.3181,3.3124,3.3124,3.3124,3.3124,3.3124,3.3124,3.3124,3.3124,3.3124,3.3124,3.3124,3.3124,3.3124,3.3124,3.3124,3.3124,3.3124,3.3124,3.3124,3.3124,3.3124,3.3124,3.3124,3.3124,3.3124,3.3124,3.3061,3.2918,3.2872,3.2215,3.1386,3.1286,3.0633,2.9792,3.8608,4.0018,4.1024,4.0583,4.0493,4.0262,3.9623,3.9545,3.9461,3.9146,3.9146,3.9113,3.9046,3.9046,3.9069,3.9135,3.9139,3.8527,3.698,3.6853,3.6655,3.6102,3.6081,3.7274,3.9884,3.9931,3.9405,3.8223,3.7985,3.7865,3.7914,3.9288,3.9931,4.0047,4.1842,4.2681,4.2681,4.2918,4.2862,4.2681,4.2918,4.2862,4.2669,4.283,4.2627,4.2187,4.2037,4.1279,4.0337,3.986,3.9697,3.9697,3.9697,3.9697,3.9697,3.9697,3.9697,3.9697,3.9697,3.9697,3.9697,3.9697,3.9697,3.9672,3.9597,3.9094,3.8416,3.7387,3.7123,3.6923,3.6505,3.6405,3.638,3.6304,3.5855,3.547,3.5395,3.4919,3.4613,3.4613,3.4123,3.3608,3.3174,3.3124,3.3124,3.3124,3.3124,3.3124,3.3124,3.3124,3.3124,3.3124,3.3124,3.3124,3.3124,3.3124,3.3124,3.3124,3.3124,3.3124,3.3124,3.3124,3.3124,3.3124,3.3124,3.3124,3.3124,3.3124,3.278,3.229,3.18,3.1524,3.1336,3.0884,3.0331,2.9792,4.1426,4.2832,4.3993,4.3754,4.3767,4.3376,4.218,4.2021,4.1595,4.0389,4.0219,4.018,3.9949,4.0113,4.0219,4.0219,4.0478,4.0208,3.9174,3.8157,3.788,3.8412,3.7167,3.796,4.0973,4.0746,4.0707,4.0892,4.0001,3.9522,3.9581,4.0245,4.0592,4.065,4.2263,4.2974,4.2974,4.2974,4.2974,4.2974,4.2974,4.2974,4.2974,4.2974,4.2823,4.2627,4.2313,4.1455,4.0475,4.0237,3.9948,3.9697,3.9697,3.9697,3.9697,3.9697,3.9697,3.9697,3.9697,3.9697,3.9697,3.9697,3.9697,3.9697,3.9697,3.9509,3.9094,3.8291,3.7626,3.7111,3.6908,3.6619,3.6405,3.6405,3.6157,3.5994,3.5994,3.5529,3.5019,3.4763,3.4236,3.3809,3.3558,3.3257,3.3124,3.3124,3.3124,3.3124,3.3124,3.3124,3.3124,3.3124,3.3124,3.3124,3.3124,3.3124,3.3124,3.3124,3.3124,3.3124,3.3124,3.3124,3.3124,3.3124,3.3124,3.3124,3.3124,3.3124,3.293,3.2641,3.2064,3.1486,3.0922,3.0708,3.0269,2.9792]}]]